GFSGBSN_con_sbcape_000.txt.gz
CAPE
11 5 5 6 6 5 4 4 4 6 4 4 3 3 3 3 3 2 1 3 3 2 2 2 3 2 0 0 0 0 0 0 0 0 0 0 0 0 0 0 0 0 0 0 0 11 83
10 12 9 11 12 6 14 5 9 9 8 8 7 7 6 4 3 1 2 5 5 3 2 2 2 0 0 0 0 0 0 0 0 0 0 0 0 0 0 0 0 0 0 0 0 0 124
15 16 7 11 13 11 12 8 10 8 7 7 10 8 7 5 2 0 1 3 4 2 3 3 1 0 0 0 0 0 0 0 0 0 0 0 0 0 0 0 0 0 0 4 1 70 302
12 10 6 11 12 12 11 15 9 7 8 10 6 3 2 2 2 4 4 6 3 4 0 3 1 0 0 0 0 0 0 0 0 0 0 0 0 0 0 0 0 0 0 18 81 196 365
8 15 7 15 18 20 14 8 9 6 10 12 7 3 3 5 6 7 4 3 2 1 1 1 0 0 0 0 0 0 0 0 0 0 0 0 0 0 0 0 0 0 1 9 218 249 512
6 11 13 18 12 18 18 14 11 12 11 13 15 10 6 5 5 3 3 0 0 0 0 0 0 0 0 0 0 0 0 0 0 0 0 0 0 0 0 0 0 2 1 27 37 281 427
9 12 14 12 15 15 16 11 6 4 7 11 9 7 5 4 4 1 0 0 0 0 0 0 0 0 0 0 0 0 0 0 0 0 0 0 0 0 0 0 0 3 28 43 38 229 364
10 10 9 6 6 9 13 1 4 3 4 5 7 8 5 1 1 0 0 0 0 0 0 0 0 0 0 0 0 0 0 0 0 0 0 0 0 0 0 0 0 0 4 39 87 159 228
13 13 11 12 16 17 23 22 14 3 6 5 4 7 4 3 0 0 0 0 0 0 0 0 0 0 0 0 0 0 0 0 0 0 0 0 0 0 0 0 0 0 0 24 94 158 209
16 28 30 21 23 21 29 27 15 1 6 7 4 4 3 2 0 0 0 0 0 0 0 0 0 0 0 0 0 0 0 0 0 0 0 0 0 0 0 0 0 0 0 7 56 108 139
29 32 41 37 29 28 23 16 14 0 8 5 3 0 1 0 0 0 0 0 0 0 0 0 0 0 0 0 0 0 0 0 0 0 0 0 0 0 0 0 0 0 0 0 9 88 123
30 35 30 32 25 27 32 20 11 7 8 9 3 0 2 0 0 0 0 0 0 0 0 0 0 0 0 0 0 0 0 0 0 0 0 0 0 0 0 0 0 0 0 0 13 40 92
40 39 30 34 28 35 36 30 18 9 3 0 0 0 0 0 0 0 0 0 0 0 0 0 0 0 0 0 0 0 0 0 0 0 0 0 0 0 0 0 0 0 0 6 28 38 45
48 57 51 43 44 46 54 48 33 19 13 0 0 0 0 0 0 0 0 0 0 0 0 0 0 0 0 0 0 0 0 0 0 0 0 0 0 0 0 0 0 0 0 6 42 24 25
78 64 63 56 43 48 56 51 36 26 13 0 0 0 0 0 0 0 0 0 0 0 0 0 0 0 0 0 0 0 0 0 0 0 0 0 0 0 0 0 0 0 0 0 26 39 23
88 66 78 70 69 60 57 33 34 31 8 0 0 0 0 0 0 0 0 0 0 0 0 0 0 0 0 0 0 0 0 0 0 0 0 0 0 0 0 0 0 0 0 0 2 67 36
28 35 27 29 41 41 22 12 15 20 0 0 0 0 0 0 0 0 0 0 0 0 0 0 0 0 0 0 0 0 0 0 0 0 0 0 0 0 0 0 0 0 0 0 1 4 12
40 54 63 53 49 51 41 43 33 22 0 0 0 0 0 0 0 0 0 0 0 0 0 0 0 0 0 0 0 0 0 0 0 0 0 0 0 0 0 0 0 0 0 0 2 1 10
50 53 53 46 59 46 43 46 45 33 22 15 0 0 0 0 0 0 0 0 0 0 0 0 0 0 0 0 0 0 0 0 0 0 0 0 0 4 0 0 0 0 0 0 0 2 96
54 58 65 65 60 62 65 59 54 41 27 29 6 0 0 0 0 0 0 0 0 0 0 0 0 0 0 0 0 0 0 0 0 0 119 0 0 0 0 0 0 0 0 0 0 3 1
33 43 53 63 72 69 72 93 70 64 40 42 23 0 0 0 73 63 50 26 1 0 0 0 0 0 0 0 0 0 0 0 0 0 0 91 97 33 0 0 0 0 0 0 0 0 3
46 54 60 59 71 81 79 104 95 52 22 32 42 55 37 0 0 0 0 0 15 1 3 0 0 0 0 0 0 0 0 0 0 0 0 0 130 57 35 8 7 4 0 0 0 0 0
56 55 54 65 73 76 84 92 138 70 28 44 28 27 27 1 0 0 0 1 3 46 2 0 0 0 0 0 0 0 0 0 0 0 0 14 161 387 216 111 66 63 11 3 0 0 0
67 72 73 73 81 92 87 78 102 127 52 95 57 22 20 10 2 0 1 0 0 1 7 0 0 0 0 0 0 0 0 0 0 0 0 79 482 437 342 289 247 1 1 0 0 0 0
55 64 78 99 95 105 102 77 106 149 78 59 93 22 39 25 15 0 0 0 6 2 1 0 0 0 0 0 0 0 0 0 0 0 0 16 192 374 204 290 134 31 196 28 3 0 0
78 74 76 80 97 124 110 113 123 147 146 95 110 85 31 29 0 5 2 13 10 8 0 0 0 0 0 0 1 40 9 0 0 0 30 83 162 308 298 197 174 566 323 222 315 80 0
62 79 77 73 99 120 114 122 115 112 139 69 169 168 97 92 15 11 9 11 14 12 25 1 0 0 13 180 94 101 58 28 25 73 161 315 447 116 271 310 301 444 265 400 352 51 4
64 82 97 102 113 120 125 118 114 89 77 62 65 93 50 31 7 13 23 15 10 17 32 3 0 7 39 277 195 129 132 125 99 203 567 496 415 159 303 362 331 165 440 665 658 457 448
70 38 84 107 122 121 111 111 67 55 30 47 37 281 314 69 4 5 3 2 1 1 9 9 0 0 0 46 195 208 400 252 167 198 454 384 226 210 284 208 218 80 275 457 589 615 600

GFSGBSN_con_sbcape_003.txt.gz
CAPE
14 12 11 13 13 6 11 8 7 7 6 4 6 4 2 2 1 1 1 2 1 1 0 0 1 1 0 0 0 0 0 4 0 0 0 0 0 0 0 0 0 0 19 25 8 9 56
11 8 8 10 12 12 7 8 8 6 4 5 4 4 4 2 0 0 1 4 2 1 1 1 1 0 0 0 0 0 0 0 0 0 0 0 0 0 0 0 0 3 10 5 4 18 14
7 8 7 11 9 15 7 9 7 5 5 5 5 3 3 2 0 0 0 3 2 1 1 2 1 0 0 0 0 0 0 0 0 0 0 0 0 0 0 0 0 0 0 2 0 4 5
10 7 10 10 11 10 12 5 7 5 4 3 3 3 3 1 0 0 3 4 0 3 1 0 1 0 0 0 0 0 0 0 0 0 0 0 0 0 0 0 0 0 0 24 63 3 7
11 12 12 10 11 13 15 8 5 3 6 5 4 4 2 1 2 2 3 1 0 2 1 0 0 0 0 0 0 0 0 0 0 0 0 0 0 0 0 0 0 0 0 7 18 10 82
12 12 10 9 8 12 16 14 6 9 5 7 8 5 7 4 1 0 0 0 0 0 0 0 0 0 0 0 0 0 0 0 0 0 0 0 0 0 0 0 0 9 10 77 178 13 165
10 9 10 9 9 12 16 14 9 6 3 4 6 6 5 1 0 0 0 0 0 0 0 0 0 0 0 0 0 0 0 0 0 0 0 0 0 0 0 0 0 14 61 44 46 27 81
15 12 6 7 12 14 15 15 10 5 4 2 5 4 2 0 0 0 0 0 0 0 0 0 0 0 0 0 0 0 0 0 0 0 0 0 0 0 0 0 0 0 24 66 46 42 29
14 12 13 20 22 27 29 29 22 14 7 4 4 6 1 0 0 0 0 0 0 0 0 0 0 0 0 0 0 0 0 0 0 0 0 0 0 0 0 0 0 0 8 43 71 145 77
21 22 32 44 37 29 30 27 26 21 16 11 5 4 1 0 0 0 0 0 0 0 0 0 0 0 0 0 0 0 0 0 0 0 0 0 0 0 0 0 0 0 0 16 66 49 112
33 43 42 51 45 34 31 20 22 17 13 12 13 0 0 0 0 0 0 0 0 0 0 0 0 0 0 0 0 0 0 0 0 0 0 0 0 0 0 0 0 0 0 15 46 140 135
36 38 44 39 42 42 25 20 24 22 10 2 2 0 0 0 0 0 0 0 0 0 0 0 0 0 0 0 0 0 0 0 0 0 0 0 0 0 0 0 0 0 0 18 40 83 112
55 56 57 51 45 35 15 12 6 2 0 0 0 0 0 0 0 0 0 0 0 0 0 0 0 0 0 0 0 0 0 0 0 0 0 0 0 0 0 0 0 0 0 8 44 66 42
65 69 68 58 46 31 8 0 0 0 0 0 0 0 0 0 0 0 0 0 0 0 0 0 0 0 0 0 0 0 0 0 0 0 0 0 0 0 0 0 0 0 0 0 17 39 41
68 61 66 67 58 47 46 34 31 17 11 0 0 0 0 0 0 0 0 0 0 0 0 0 0 0 0 0 0 0 0 0 0 0 0 0 0 0 0 0 0 0 0 0 24 67 57
58 53 53 54 54 54 54 44 35 28 17 0 0 0 0 0 0 0 0 0 0 0 0 0 0 0 0 0 0 0 0 0 0 0 0 0 0 0 0 0 0 0 0 0 7 74 71
26 33 41 46 56 55 52 53 45 28 0 0 0 0 0 0 0 0 0 0 0 0 0 0 0 0 0 0 0 0 0 0 0 0 0 0 0 0 0 0 0 0 0 0 1 29 37
32 43 44 51 63 61 51 64 51 30 0 0 0 0 0 0 0 0 0 0 0 0 0 0 0 0 0 0 0 0 0 0 0 0 0 0 0 0 0 0 0 0 0 0 25 35 21
41 49 43 52 65 52 61 77 62 32 22 28 7 0 0 0 0 0 0 0 0 0 0 0 0 0 0 0 0 0 0 0 0 0 0 0 0 0 0 0 0 0 0 0 0 12 132
41 37 44 49 50 45 66 75 64 44 44 43 36 8 7 3 0 0 0 0 0 0 0 0 0 0 0 0 0 0 0 0 0 0 0 0 0 0 0 0 0 0 0 0 0 0 7
49 55 55 58 48 58 78 89 75 63 41 25 63 39 52 58 41 4 8 33 13 19 11 3 2 0 0 0 0 0 0 0 0 0 0 0 0 0 0 0 3 0 0 0 0 0 1
49 58 64 71 81 81 89 127 91 77 31 8 123 107 102 67 46 1 0 0 0 1 1 0 0 1 0 0 0 0 0 0 0 0 0 0 15 18 0 0 0 2 3 0 0 0 0
42 65 85 87 93 102 102 101 134 77 33 83 83 191 139 22 75 95 3 9 19 4 3 0 0 0 13 9 0 0 0 6 0 19 18 38 70 328 161 66 93 72 0 0 1 1 0
53 56 72 94 92 107 120 114 121 143 70 132 50 48 109 100 84 127 55 13 2 2 39 18 0 0 0 0 0 0 0 0 0 4 2 38 66 65 143 330 239 0 99 58 30 22 13
60 63 66 98 101 102 109 144 134 154 155 259 117 11 28 51 50 111 125 49 28 11 2 0 0 0 0 0 0 0 0 0 0 0 0 18 54 79 281 406 273 221 541 440 500 195 29
70 72 76 102 110 123 122 162 140 153 187 291 403 91 45 33 64 73 87 56 64 33 29 14 5 0 0 2 2 17 16 0 0 0 0 1 14 207 450 266 326 171 700 508 402 211 15
96 108 95 101 147 149 160 161 147 139 142 299 138 80 53 32 14 53 79 33 32 9 82 2 34 6 8 20 13 13 19 4 3 0 0 0 3 0 78 216 179 845 502 547 429 417 1114
85 72 73 57 114 145 164 159 150 161 116 185 289 336 73 34 10 47 60 59 4 42 2 19 78 52 99 111 124 47 32 32 40 57 44 0 15 24 90 142 183 549 556 575 1070 886 1008
72 63 64 21 91 123 128 109 139 67 63 54 138 297 134 61 10 37 52 42 32 37 18 10 9 2 28 137 135 30 171 196 98 95 60 111 18 38 101 268 916 714 891 840 831 892 1002

GFSGBSN_con_sbcape_009.txt.gz
CAPE
4 8 9 8 11 9 4 5 6 5 4 3 2 2 1 0 0 0 0 0 0 0 0 0 0 1 0 0 0 0 0 25 0 0 0 0 0 0 0 0 0 0 1 2 23 37 44
16 13 10 5 7 3 2 3 3 3 3 2 4 5 5 5 4 1 1 0 0 0 0 0 0 2 0 0 0 0 0 0 0 0 0 0 0 0 0 0 0 0 0 35 17 0 78
19 13 11 14 14 12 7 5 5 2 1 2 3 3 5 5 2 2 2 1 0 0 0 0 3 0 0 0 0 0 0 0 0 0 0 0 0 0 0 0 0 0 0 0 1 0 9
34 21 13 8 14 18 15 6 7 7 4 3 3 3 2 4 3 4 1 0 0 0 0 0 0 0 0 0 0 0 0 0 0 0 0 0 0 0 0 0 0 0 0 0 0 0 0
18 24 27 23 21 18 20 22 16 15 9 5 6 4 2 1 2 0 0 0 0 0 0 1 0 0 0 0 0 0 0 0 0 0 0 0 0 0 0 0 0 0 0 0 0 0 0
28 33 27 23 16 23 25 20 21 11 3 4 2 1 1 0 0 0 0 0 0 0 0 0 0 0 0 0 0 0 0 0 0 0 0 0 0 0 0 0 0 0 0 0 0 0 2
30 29 20 23 28 25 27 16 19 13 8 10 10 4 1 0 0 0 0 0 0 0 0 0 0 0 0 0 0 0 0 0 0 0 0 0 0 0 0 0 0 0 0 0 0 9 5
42 43 36 38 36 34 28 13 2 6 6 8 9 5 2 0 0 0 0 0 0 0 0 0 0 0 0 0 0 0 0 0 0 0 0 0 0 0 0 0 0 0 0 0 0 3 2
47 42 36 37 37 36 30 24 12 3 3 4 4 2 0 0 0 0 0 0 0 0 0 0 0 0 0 0 0 0 0 0 0 0 0 0 0 0 0 0 0 0 0 0 0 0 14
43 39 36 34 31 31 32 24 13 7 6 4 2 0 0 0 0 0 0 0 0 0 0 0 0 0 0 0 0 0 0 0 0 0 0 0 0 0 0 0 0 0 0 0 0 0 1
24 24 26 30 31 30 24 20 11 4 6 4 3 0 0 0 0 0 0 0 0 0 0 0 0 0 0 0 0 0 0 0 0 0 0 0 0 0 0 0 0 0 0 0 0 0 20
35 33 34 34 38 33 21 4 6 5 3 3 2 0 0 0 0 0 0 0 0 0 0 0 0 0 0 0 0 0 0 0 0 0 0 0 0 0 0 0 0 0 0 0 0 0 0
38 41 38 39 32 20 6 8 12 5 1 0 0 0 0 0 0 0 0 0 0 0 0 0 0 0 0 0 0 0 0 0 0 0 0 0 0 0 0 0 0 0 0 0 0 0 0
35 26 25 32 26 23 26 32 27 9 2 0 0 0 0 0 0 0 0 0 0 0 0 0 0 0 0 0 0 0 0 0 0 0 0 0 0 0 0 0 0 0 0 0 0 0 0
35 34 38 32 29 32 36 36 27 12 0 0 0 0 0 0 0 0 0 0 0 0 0 0 0 0 0 0 0 0 0 0 0 0 0 0 0 0 0 0 0 0 0 0 0 0 0
34 39 40 39 36 37 39 41 41 36 0 0 0 0 0 0 0 0 0 0 0 0 0 0 0 0 0 0 0 0 0 0 0 0 0 0 0 0 0 0 0 0 0 0 0 0 0
39 41 47 47 47 47 48 49 44 32 0 0 0 1 0 0 0 0 0 0 0 0 0 0 0 0 0 0 0 0 0 0 0 0 0 0 0 0 0 0 0 0 0 0 0 0 0
47 50 54 57 59 65 69 65 56 41 0 0 0 0 0 0 0 0 0 0 0 0 0 0 0 0 0 0 0 0 0 0 0 0 0 0 0 0 0 0 0 0 0 0 0 0 0
38 48 54 53 62 73 73 67 69 53 49 9 3 0 0 0 0 0 0 0 0 0 0 0 0 0 0 0 0 0 0 0 0 0 0 0 0 0 0 0 0 0 0 0 0 0 0
51 40 42 54 64 65 75 72 69 52 55 17 27 4 0 0 0 2 0 0 0 0 0 0 0 0 0 0 0 0 0 0 0 0 15 1 0 0 0 0 0 0 0 0 0 0 0
27 21 28 56 57 64 69 95 121 84 62 56 95 21 12 2 0 0 10 1 0 0 0 0 0 0 0 0 0 0 0 0 0 0 0 0 0 0 0 0 0 0 0 0 0 0 0
38 43 52 72 83 64 109 135 188 133 55 99 45 61 12 0 0 0 0 0 3 0 0 0 0 0 0 1 0 0 0 0 0 0 0 0 0 0 0 0 0 0 0 0 0 0 0
32 34 42 49 89 71 79 153 189 144 17 127 84 50 52 7 0 4 0 1 1 8 0 4 0 0 0 0 0 0 0 0 0 0 0 0 0 0 0 0 0 0 0 0 0 0 0
35 38 48 57 71 63 56 142 203 196 54 157 189 104 28 8 5 2 0 0 4 5 3 0 5 4 0 7 0 0 0 0 0 0 0 0 0 0 0 0 11 0 0 0 0 0 0
46 37 37 41 55 51 47 101 145 208 138 147 198 85 16 15 9 5 0 7 1 2 1 0 0 18 8 38 3 0 0 0 0 0 0 0 0 0 0 0 0 0 0 0 0 0 36
51 69 79 40 58 61 60 96 147 212 159 136 198 135 21 7 3 0 11 0 1 13 35 67 24 19 10 11 12 1 1 0 0 0 0 0 0 0 0 0 0 0 52 187 147 206 730
19 37 43 54 65 66 68 131 131 179 217 184 189 130 30 4 0 0 2 17 23 57 16 2 9 0 29 1 22 7 0 0 0 0 0 1 16 0 25 0 0 76 257 177 92 467 489
70 104 121 76 84 94 95 102 122 138 128 79 95 192 106 5 0 1 0 5 6 24 44 45 0 10 1 113 0 18 0 0 0 0 0 0 0 0 86 91 69 436 336 413 658 856 1193
94 100 114 115 117 83 57 75 66 73 86 88 65 287 203 49 2 0 0 0 0 0 17 4 0 0 1 91 218 157 2 60 14 0 0 0 0 0 0 47 366 440 222 483 511 924 1001

GFSGBSN_con_sbcape_012.txt.gz
CAPE
16 11 8 10 15 12 7 4 4 5 4 3 1 1 1 0 0 0 0 0 0 0 0 0 0 1 0 0 0 0 0 149 0 0 0 0 0 0 0 0 0 0 0 0 7 37 0
23 22 16 11 13 15 10 9 8 11 8 4 3 4 4 3 2 2 3 2 2 0 0 0 0 1 0 0 0 0 0 0 0 0 0 0 0 0 0 0 0 0 0 0 0 3 11
17 18 5 7 16 23 16 11 6 5 6 5 7 5 3 3 5 3 3 2 2 0 0 0 1 0 0 0 0 0 0 0 0 0 0 0 0 0 0 0 0 0 0 0 0 0 9
29 14 6 14 19 17 20 13 13 15 9 8 9 8 5 3 3 3 1 0 0 0 0 0 2 0 0 0 0 0 0 0 0 0 0 0 0 0 0 0 0 0 0 0 0 0 0
35 36 29 32 29 29 24 22 17 9 6 4 5 5 4 3 2 0 0 0 0 0 0 0 0 0 0 0 0 0 0 0 0 0 0 0 0 0 0 0 0 0 0 0 0 0 8
45 43 36 30 29 26 24 25 22 14 12 10 7 4 3 1 0 0 0 0 0 0 0 0 0 0 0 0 0 0 0 0 0 0 0 0 0 0 0 0 0 0 0 0 0 0 1
54 34 14 17 23 25 25 28 26 16 12 8 7 5 2 1 0 0 0 0 0 0 0 0 0 0 0 0 0 0 0 0 0 0 0 0 0 0 0 0 0 0 0 0 0 0 0
17 10 15 29 34 31 29 28 27 22 15 9 6 4 3 0 0 0 0 0 0 0 0 0 0 0 0 0 0 0 0 0 0 0 0 0 0 0 0 0 0 0 0 0 0 0 0
21 29 37 35 34 31 30 26 19 9 10 9 6 3 1 0 0 0 0 0 0 0 0 0 0 0 0 0 0 0 0 0 0 0 0 0 0 0 0 0 0 0 0 0 0 0 0
32 32 27 29 32 32 23 10 6 7 8 8 6 3 1 2 0 0 0 0 0 0 0 0 0 0 0 0 0 0 0 0 0 0 0 0 0 0 0 0 0 0 0 0 0 0 0
32 37 30 28 29 24 17 14 13 10 4 3 3 2 0 0 0 0 0 0 0 0 0 0 0 0 0 0 0 0 0 0 0 0 0 0 0 0 0 0 0 0 0 0 0 0 0
33 27 22 26 28 27 22 19 15 3 3 4 2 0 0 0 0 0 0 0 0 0 0 0 0 0 0 0 0 0 0 0 0 0 0 0 0 0 0 0 0 0 0 0 0 0 0
30 17 19 29 26 23 23 22 22 12 7 5 0 0 0 0 0 0 0 0 0 0 0 0 0 0 0 0 0 0 0 0 0 0 0 0 0 0 0 0 0 0 0 0 0 0 0
15 32 38 36 31 28 26 29 23 8 1 0 0 0 0 0 0 0 0 0 0 0 0 0 0 0 0 0 0 0 0 0 0 0 0 0 0 0 0 0 0 0 0 0 0 0 0
33 40 39 35 37 37 39 38 30 17 0 0 0 0 0 0 0 0 0 0 0 0 0 0 0 0 0 0 0 0 0 0 0 0 0 0 0 0 0 0 0 0 0 0 0 0 0
24 25 30 38 40 44 48 47 43 33 0 0 0 0 0 0 0 0 0 0 0 0 0 0 0 0 0 0 0 0 0 0 0 0 0 0 0 0 0 0 0 0 0 0 0 0 0
17 14 28 42 44 44 49 58 53 49 0 0 0 0 0 0 0 0 0 0 0 0 0 0 0 0 0 0 0 0 0 0 0 0 0 0 0 0 0 0 0 0 0 0 0 0 0
18 34 41 41 45 49 59 62 55 42 3 0 0 0 0 0 0 0 0 0 0 0 0 0 0 0 0 0 0 0 0 0 0 0 0 0 0 0 0 0 0 0 0 0 0 0 0
37 46 45 50 59 69 70 67 51 38 33 0 0 0 0 0 0 0 0 0 0 0 0 0 0 0 0 0 0 0 0 0 0 0 0 0 0 0 0 0 0 0 0 0 0 0 0
35 36 34 50 67 77 80 61 45 44 22 0 0 0 0 0 0 0 1 0 0 0 0 0 0 0 0 0 0 0 0 0 0 0 0 0 0 0 0 0 0 0 0 0 0 0 0
26 28 31 43 54 65 80 76 59 47 24 0 0 0 0 1 0 0 4 0 0 0 0 0 0 0 0 0 0 0 0 0 0 0 0 0 0 0 0 0 0 0 0 0 0 0 0
29 32 33 41 53 80 86 93 80 64 21 2 8 25 0 0 0 0 0 0 2 0 0 0 0 0 0 0 0 0 0 0 0 0 0 0 0 0 0 0 0 0 0 0 0 0 0
18 25 31 45 81 73 79 94 88 70 6 0 2 13 13 3 0 0 0 0 0 0 0 1 0 0 0 0 0 0 0 0 0 0 0 0 0 0 0 0 0 0 0 0 0 0 0
27 23 29 35 55 63 71 110 133 107 17 0 0 39 36 7 0 0 0 0 0 0 4 0 0 0 0 0 0 0 0 0 0 0 0 0 0 0 0 0 0 0 0 0 0 0 0
22 20 28 31 50 74 80 70 114 182 171 0 3 54 32 9 2 3 1 0 0 0 0 0 1 0 0 0 0 0 0 0 0 0 0 0 0 0 0 0 0 0 0 0 0 0 0
19 33 29 53 66 82 104 126 154 238 186 3 0 1 48 7 0 5 0 0 0 0 0 0 0 0 0 17 13 0 0 0 1 9 0 0 0 0 0 0 0 0 0 3 0 227 179
20 40 47 59 50 103 125 128 154 187 227 3 0 0 7 3 1 0 1 0 0 0 0 0 1 0 23 28 9 0 0 2 0 0 7 3 0 1 0 0 0 14 14 54 51 37 57
38 60 64 36 46 68 83 98 109 107 120 7 0 0 25 9 2 0 0 2 0 1 4 0 3 0 0 17 6 12 0 0 1 0 0 6 34 74 0 2 151 0 30 47 109 931 882
29 47 62 63 42 43 41 54 66 61 74 29 0 0 2 39 5 0 0 0 0 0 0 0 16 5 3 18 11 2 33 81 23 47 58 79 4 1 0 0 0 0 177 414 440 500 499

GFSGBSN_con_sbcape_018.txt.gz
CAPE
20 20 18 18 19 17 11 12 13 14 9 6 3 4 3 3 3 3 3 3 4 1 2 3 3 2 0 0 0 0 0 0 235 0 0 0 0 0 0 0 0 11 0 0 0 0 13
37 35 30 27 19 14 11 12 10 14 11 10 9 10 9 10 8 6 8 10 11 4 2 3 4 2 0 0 0 0 0 0 0 0 0 0 0 0 0 0 0 0 0 0 0 0 9
40 25 22 28 25 20 18 14 12 8 7 8 12 12 12 12 8 8 5 5 6 4 3 4 5 1 0 0 0 0 0 0 0 0 0 0 0 0 0 0 0 0 0 0 0 0 8
11 13 16 15 15 21 22 20 16 14 14 14 9 9 10 10 9 4 0 2 4 2 0 3 5 0 0 0 0 0 0 0 0 0 0 0 0 0 0 0 0 0 0 0 0 0 30
17 18 18 18 17 22 27 20 12 16 14 13 13 11 9 6 4 1 0 0 0 2 1 4 0 0 0 0 0 0 0 0 0 0 0 0 0 0 0 0 0 0 0 0 0 0 0
18 17 21 13 11 25 28 21 18 19 15 10 8 6 6 6 2 0 0 0 0 0 0 0 0 0 0 0 0 0 0 0 0 0 0 0 0 0 0 0 0 0 0 0 0 0 0
13 20 23 13 12 19 16 17 15 16 14 11 9 6 4 3 1 0 0 0 0 0 0 0 0 0 0 0 0 0 0 0 0 0 0 0 0 0 0 0 0 0 0 0 0 0 0
19 26 22 10 12 10 8 7 8 9 7 7 4 4 3 2 0 0 0 0 0 0 0 0 0 0 0 0 0 0 0 0 0 0 0 0 0 0 0 0 0 0 0 0 0 0 0
13 9 8 14 16 17 16 15 18 16 10 7 4 2 4 4 0 0 0 0 0 0 0 0 0 0 0 0 0 0 0 0 0 0 0 0 0 0 0 0 0 0 0 0 0 0 0
12 20 25 23 22 27 27 25 23 19 11 6 3 2 3 3 0 0 0 0 0 0 0 0 0 0 0 0 0 0 0 0 0 0 0 0 0 0 0 0 0 0 0 0 0 0 0
16 22 26 24 23 23 26 22 19 18 12 5 2 2 0 0 0 0 0 0 0 0 0 0 0 0 0 0 0 0 0 0 0 0 0 0 0 0 0 0 0 0 0 0 0 0 0
19 14 13 14 16 23 32 26 19 17 17 4 1 0 0 0 0 0 0 0 0 0 0 0 0 0 0 0 0 0 0 0 0 0 0 0 0 0 0 0 0 0 0 0 0 0 0
12 11 12 16 21 29 26 20 9 10 11 2 0 0 0 0 0 0 0 0 0 0 0 0 0 0 0 0 0 0 0 0 0 0 0 0 0 0 0 0 0 0 0 0 0 0 0
13 19 26 31 30 31 32 35 28 20 11 0 0 0 0 0 0 0 0 0 0 0 0 0 0 0 0 0 0 0 0 0 0 0 0 0 0 0 0 0 0 0 0 0 0 0 0
15 27 30 30 34 38 41 42 27 16 5 0 0 0 0 0 0 0 0 0 0 0 0 0 0 0 0 0 0 0 0 0 0 0 0 0 0 0 0 0 0 0 0 0 0 0 0
9 24 30 36 40 39 41 46 37 17 0 0 0 0 0 0 0 0 0 0 0 0 0 0 0 0 0 0 0 0 0 0 0 0 0 0 0 0 0 0 0 0 0 0 0 0 0
11 23 30 41 48 45 50 53 42 17 0 0 0 0 0 0 0 0 0 0 0 0 0 0 0 0 0 0 0 0 0 0 0 0 0 0 0 0 0 0 0 0 0 0 0 0 0
16 33 46 47 49 51 59 60 43 8 0 0 0 0 0 0 0 0 0 0 0 0 0 0 0 0 0 0 0 0 0 0 0 0 0 0 0 0 0 0 0 0 0 0 0 0 0
29 37 41 56 57 61 70 69 42 7 3 0 0 0 0 0 0 0 0 0 0 1 0 0 0 0 0 0 0 0 0 0 0 0 0 0 0 0 0 0 0 0 0 0 0 0 0
15 20 23 38 49 62 71 52 46 19 3 0 0 1 0 0 0 0 0 0 0 0 3 0 0 0 0 0 0 0 0 0 0 0 0 0 0 0 0 0 0 0 0 0 0 0 0
11 18 17 23 45 53 65 47 55 27 1 0 0 0 0 0 0 1 0 0 3 0 0 2 0 0 0 0 0 0 0 0 0 0 0 0 0 0 0 0 0 0 0 0 0 0 0
13 13 14 16 39 68 73 69 65 30 0 0 3 13 2 0 5 2 0 0 1 0 2 0 12 4 0 0 0 0 0 0 0 0 0 0 0 0 0 0 0 0 0 0 0 0 0
7 11 17 15 18 51 66 78 79 36 0 0 0 0 8 4 19 4 0 0 0 0 0 4 10 0 0 0 0 0 0 0 0 0 0 0 0 0 0 0 0 0 0 0 0 0 0
6 4 6 16 23 25 67 78 83 73 0 0 0 12 32 22 3 11 11 3 0 0 5 0 0 0 0 0 0 0 0 0 0 0 0 0 0 0 0 0 0 0 0 0 0 0 0
3 3 2 3 5 12 23 57 84 83 36 0 0 14 42 30 7 3 4 7 0 0 0 0 0 0 0 0 0 0 0 0 0 0 0 0 0 0 0 0 0 0 0 0 0 0 0
1 0 1 2 3 8 17 25 55 68 47 0 0 0 18 27 2 8 8 1 0 1 0 0 0 0 0 0 0 0 0 0 0 0 0 0 0 0 0 0 0 0 0 0 0 0 0
1 1 1 1 2 4 27 38 37 53 57 0 0 0 10 29 5 6 12 0 2 9 8 0 0 0 0 6 0 0 0 0 0 4 0 0 0 0 0 0 0 0 3 1 0 0 0
0 1 1 2 1 6 15 35 41 42 78 4 0 0 13 12 0 0 1 5 0 4 2 1 1 0 0 5 15 0 0 0 0 0 0 0 0 0 0 0 0 0 36 96 0 0 1
0 0 1 2 5 4 9 29 39 53 48 36 2 0 0 6 5 0 0 0 0 0 1 4 11 0 0 0 1 0 1 1 0 2 0 0 6 24 0 0 0 1 0 8 0 1 1

GFSGBSN_con_sbcape_021.txt.gz
CAPE
30 13 17 19 26 22 15 14 14 13 9 6 6 6 5 5 4 3 4 6 8 4 3 4 3 4 0 0 0 0 0 2 597 2 0 0 0 0 0 76 83 543 62 2 0 0 0
12 18 19 17 15 11 12 14 10 13 11 9 9 11 11 10 7 5 7 10 9 2 1 3 5 1 0 0 0 0 0 0 42 0 0 0 8 0 0 0 0 0 0 0 0 0 0
19 22 20 10 15 13 14 10 9 7 6 5 7 9 11 11 8 7 8 7 1 1 1 3 4 1 0 0 0 0 0 0 0 0 0 0 0 0 0 0 0 0 0 0 0 0 0
19 23 20 6 11 13 10 9 7 5 5 4 3 5 6 10 5 4 3 3 0 1 1 3 4 1 0 0 0 0 0 0 0 0 0 0 0 0 0 0 0 0 0 0 0 0 0
15 21 22 14 11 10 8 9 7 7 7 6 5 5 7 11 5 0 1 0 0 2 4 4 1 0 0 0 0 0 0 0 0 0 0 0 0 0 0 0 0 0 0 0 0 0 21
24 26 11 13 11 12 16 15 11 10 8 7 8 8 7 4 1 0 0 0 0 0 0 1 0 0 0 0 0 0 0 0 0 0 0 0 0 0 0 0 0 0 0 0 0 0 0
13 11 12 14 12 10 15 15 9 10 9 7 8 7 8 2 0 0 0 0 0 0 0 0 0 0 0 0 0 0 0 0 0 0 0 0 0 0 0 0 0 0 0 0 0 0 0
15 12 14 11 9 9 7 8 8 7 8 7 8 6 6 1 0 0 0 0 0 0 0 0 0 0 0 0 0 0 0 0 0 0 0 0 0 0 0 0 0 0 0 0 0 0 0
14 13 12 10 11 10 11 11 14 12 7 5 8 5 1 1 1 0 0 0 0 0 0 0 0 0 0 0 0 0 0 0 0 0 0 0 0 0 0 0 0 0 0 0 0 0 0
9 19 21 15 17 17 17 20 21 18 8 5 7 6 0 3 0 0 0 0 0 0 0 0 0 0 0 0 0 0 0 0 0 0 0 0 0 0 0 0 0 0 0 0 0 0 0
5 20 23 25 25 23 22 17 17 15 5 3 5 4 0 0 0 0 0 0 0 0 0 0 0 0 0 0 0 0 0 0 0 0 0 0 0 0 0 0 0 0 0 0 0 0 0
6 9 12 19 18 23 24 18 18 17 7 3 3 0 1 0 0 0 0 0 0 0 0 0 0 0 0 0 0 0 0 0 0 0 0 0 0 0 0 0 0 0 0 0 0 0 0
8 6 15 16 21 31 32 30 29 21 9 2 0 0 0 0 0 0 0 0 0 0 0 0 0 0 0 0 0 0 0 0 0 0 0 0 0 0 0 0 0 0 0 0 0 0 0
6 13 23 32 28 25 24 20 17 10 5 0 0 0 0 0 0 0 0 0 0 0 0 0 0 0 0 0 0 0 0 0 0 0 0 0 0 0 0 0 0 0 0 0 0 0 0
8 24 25 22 18 17 20 23 19 9 2 0 0 0 0 0 0 0 0 0 0 0 0 0 0 0 0 0 0 0 0 0 0 0 0 0 0 0 0 0 0 0 0 0 0 0 0
16 10 18 22 28 31 35 34 19 7 0 0 0 0 0 0 0 0 0 0 0 0 0 0 0 0 0 0 0 0 0 0 0 0 0 0 0 0 0 0 0 0 0 0 0 0 0
11 9 19 30 31 30 37 43 22 9 0 0 0 0 0 0 0 0 0 0 0 0 0 0 0 0 0 0 0 0 0 0 0 0 0 0 0 0 0 0 0 0 0 0 0 0 0
10 19 28 33 38 43 54 42 16 0 0 0 1 0 0 0 0 0 0 0 0 0 0 0 0 0 0 0 0 0 0 0 0 0 0 0 0 0 0 0 0 0 0 0 0 0 0
15 18 31 37 39 49 54 34 8 0 0 7 0 0 0 0 1 4 1 0 0 12 12 1 0 0 0 0 0 0 0 0 0 0 0 0 0 0 0 0 0 0 0 0 0 0 0
10 15 19 27 30 38 56 45 13 0 0 0 1 0 0 0 0 3 4 0 1 0 10 14 15 0 0 0 0 0 0 0 0 0 0 0 0 0 0 0 0 0 0 0 0 0 0
12 13 14 17 25 32 58 56 42 4 0 0 1 3 2 2 0 2 14 0 7 7 0 5 9 36 9 0 0 0 0 0 0 0 0 0 0 0 0 0 0 0 0 0 0 0 0
10 12 13 14 20 32 47 58 49 35 0 4 16 23 27 4 8 17 0 5 12 13 8 3 90 7 9 15 4 3 0 0 0 0 0 0 0 0 0 0 0 0 0 0 0 0 0
10 12 14 13 10 9 16 44 54 31 0 11 17 28 18 27 8 38 14 7 12 22 0 17 28 11 0 4 0 0 0 0 0 0 0 0 0 0 0 0 0 0 0 0 0 0 0
4 6 7 6 7 6 12 41 68 56 4 36 69 63 59 16 34 8 12 15 9 17 28 0 0 7 1 0 0 0 0 0 0 0 0 0 0 0 0 0 0 0 0 0 0 0 0
1 2 1 0 1 3 10 27 54 65 39 13 16 61 51 25 11 7 11 3 3 0 12 1 2 1 0 0 0 0 4 0 0 0 0 0 0 0 0 0 0 0 0 0 0 0 0
0 0 0 0 0 1 6 12 37 57 45 17 19 20 48 52 4 4 16 6 5 8 8 8 0 0 0 95 47 7 0 0 0 11 0 0 0 1 0 0 0 0 0 0 0 0 0
0 0 0 0 0 0 2 11 31 60 56 31 30 3 37 20 11 11 17 14 3 2 16 4 3 1 42 10 5 16 9 7 0 0 13 1 0 1 0 0 0 0 0 65 10 0 0
1 1 0 1 0 0 4 10 18 49 65 36 2 0 75 34 11 9 5 6 27 11 12 5 20 16 44 59 39 10 19 42 33 0 0 12 17 9 1 0 0 0 0 0 91 62 38
2 2 0 2 3 3 9 10 15 49 59 70 1 0 0 23 0 3 1 8 8 9 14 17 15 14 20 42 16 6 39 34 40 19 19 22 7 75 0 0 0 0 0 11 117 87 65

GFSGBSN_con_sbcape_024.txt.gz
CAPE
17 17 16 10 7 16 10 6 6 4 4 3 2 3 3 3 2 1 3 6 6 2 2 3 4 1 0 0 0 0 0 0 0 0 0 0 0 0 0 0 34 284 72 17 17 0 0
14 19 14 10 13 8 6 5 5 4 2 2 3 6 7 9 2 2 5 9 5 1 2 5 4 1 0 0 0 0 0 0 0 0 0 0 0 0 0 0 0 21 58 6 0 0 0
20 21 10 8 6 7 6 6 4 4 3 3 5 8 10 7 3 6 6 4 0 0 0 5 5 0 0 0 0 0 0 0 0 0 0 0 0 0 0 0 0 0 0 0 0 0 0
22 7 10 11 9 8 7 6 4 4 5 6 6 7 5 6 5 3 3 1 0 0 2 2 5 0 0 0 0 0 0 0 0 0 0 0 0 0 0 0 0 0 0 0 0 0 0
8 10 11 8 8 7 6 4 3 7 10 9 10 9 4 4 2 0 0 0 0 2 1 6 0 0 0 0 0 0 0 0 0 0 0 0 0 0 0 0 0 0 0 0 0 0 0
6 8 10 9 7 5 9 9 7 9 10 8 9 7 3 3 2 0 0 0 0 2 0 1 0 0 0 0 0 0 0 0 0 0 0 0 0 0 0 0 0 0 0 0 0 0 0
12 10 9 7 6 5 8 8 5 8 10 10 8 3 1 0 1 1 0 0 0 0 0 0 0 0 0 0 0 0 0 0 0 0 0 0 0 0 0 0 0 0 0 0 0 0 0
8 9 9 9 7 5 6 7 7 7 7 11 8 2 0 0 0 0 0 0 0 0 0 0 0 0 0 0 0 0 0 0 0 0 0 0 0 0 0 0 0 0 0 0 0 0 0
3 12 12 14 14 12 9 10 9 5 3 5 5 0 0 0 0 0 0 0 0 0 0 0 0 0 0 0 0 0 0 0 0 0 0 0 0 0 0 0 0 0 0 0 0 0 0
8 12 9 17 13 14 15 13 9 5 4 6 4 0 0 1 0 0 0 0 0 0 0 0 0 0 0 0 0 0 0 0 0 0 0 0 0 0 0 0 0 0 0 0 0 0 0
10 11 12 19 20 20 22 20 15 9 4 2 2 0 0 0 0 0 0 0 0 0 0 0 0 0 0 0 0 0 0 0 0 0 0 0 0 0 0 0 0 0 0 0 0 0 0
12 8 12 16 15 22 21 18 17 11 7 4 0 0 0 0 0 0 0 0 0 0 0 0 0 0 0 0 0 0 0 0 0 0 0 0 0 0 0 0 0 0 0 0 0 0 0
8 5 8 15 21 26 16 11 8 4 3 0 0 0 0 0 0 0 0 0 0 0 0 0 0 0 0 0 0 0 0 0 0 0 0 0 0 0 0 0 0 0 0 0 0 0 0
5 7 16 24 21 10 10 14 13 7 1 0 0 0 0 0 0 0 0 0 0 0 0 0 0 0 0 0 0 0 0 0 0 0 0 0 0 0 0 0 0 0 0 0 0 0 0
6 10 16 17 12 15 16 11 2 0 0 0 0 0 0 0 0 0 0 0 0 1 2 0 0 0 0 0 0 0 0 0 0 0 0 0 0 0 0 0 0 0 0 0 0 0 0
7 5 8 20 20 17 19 14 1 0 0 0 0 0 0 0 0 0 7 0 5 5 2 0 0 0 0 0 0 0 0 0 0 0 0 0 0 0 0 0 0 0 0 0 0 0 0
6 2 9 19 13 15 24 26 8 0 0 0 0 0 0 0 0 14 26 8 0 6 7 0 8 7 3 1 0 0 0 0 0 0 0 0 0 0 0 0 0 0 0 0 0 0 0
0 3 15 21 17 25 33 26 6 0 0 0 0 0 0 0 15 9 20 0 0 25 46 39 7 8 16 8 0 0 0 0 0 0 0 0 0 0 0 0 0 0 0 0 0 0 0
2 8 15 27 25 27 29 24 0 0 0 1 0 0 0 0 15 27 33 27 16 45 45 52 52 40 13 18 8 5 8 0 0 0 0 0 0 0 0 0 0 0 0 0 0 0 0
2 5 8 17 26 25 29 27 7 0 0 3 5 3 6 21 27 43 38 65 52 42 42 23 60 60 27 6 16 16 10 0 0 0 0 0 0 0 0 0 0 0 0 0 0 0 0
2 1 5 4 9 12 27 28 27 0 0 18 25 17 17 17 35 35 40 69 38 27 52 56 25 35 33 10 27 10 15 2 0 0 0 0 0 0 0 0 0 0 0 0 0 0 0
0 2 3 3 2 4 9 23 36 19 0 31 25 25 30 16 30 44 19 72 35 19 31 50 37 1 7 47 14 14 13 17 10 0 0 0 0 0 0 0 0 0 0 0 0 0 0
0 0 1 2 1 2 2 16 41 32 1 45 38 42 58 14 28 63 54 16 22 21 58 51 39 28 15 18 7 14 9 2 1 0 0 0 0 0 0 0 0 0 0 0 0 0 0
0 0 0 0 0 1 2 8 27 59 43 102 62 66 63 29 27 26 13 12 5 6 14 24 32 33 32 11 1 7 6 0 0 0 0 0 0 0 0 0 0 0 0 0 0 0 0
0 0 0 0 0 1 3 8 17 41 66 60 84 94 63 41 20 27 14 6 17 8 8 21 37 64 39 37 73 40 24 13 0 0 0 0 0 0 0 0 0 0 0 0 0 0 0
0 1 0 0 0 1 3 9 20 36 58 60 61 86 83 40 16 15 27 19 26 27 17 16 21 53 76 116 85 57 46 14 7 3 0 1 0 0 0 0 0 0 0 0 0 0 0
0 0 0 0 0 1 8 14 11 35 55 62 34 29 60 38 4 18 24 33 29 29 33 19 20 43 64 139 113 67 58 26 17 22 16 6 21 3 1 0 0 0 0 41 1 94 28
0 1 1 3 2 4 12 9 15 22 51 59 13 1 14 21 8 17 11 25 24 25 51 25 23 33 105 153 79 58 69 75 55 22 21 21 16 6 2 1 0 0 0 0 53 63 22
4 3 2 5 6 10 6 12 16 23 48 53 38 3 2 23 7 3 23 18 13 15 28 26 21 25 32 135 146 162 85 75 66 75 56 28 20 26 8 0 0 0 0 0 0 0 0

GFSGBSN_con_sbcape_027.txt.gz
CAPE
15 6 5 3 5 5 6 5 5 4 3 2 2 2 3 1 1 1 2 5 3 1 1 2 2 1 0 0 0 0 47 0 0 0 0 0 0 0 0 0 1 3 92 142 211 54 29
11 6 6 7 6 5 6 6 5 3 2 2 2 5 5 5 6 6 6 6 3 0 0 2 4 1 0 0 0 0 0 0 0 0 0 0 0 0 0 0 1 19 27 109 45 37 24
7 12 7 5 5 5 4 3 3 2 1 1 2 4 3 3 4 4 3 2 0 0 0 3 9 0 0 0 0 0 0 0 0 0 0 0 0 0 0 0 0 19 14 47 100 0 5
7 5 5 6 4 4 4 4 2 1 2 3 1 1 3 3 1 1 0 0 0 0 0 0 6 0 0 0 0 0 0 0 0 0 0 0 0 0 0 0 0 0 0 30 1 0 0
7 8 8 6 4 2 6 5 3 5 8 6 4 2 2 1 0 0 0 0 0 0 0 2 0 0 0 0 0 0 0 0 0 0 0 0 0 0 0 0 0 0 0 0 25 6 14
8 7 7 6 4 5 9 10 9 10 9 7 2 2 2 0 0 0 0 0 0 0 0 0 0 0 0 0 0 0 0 0 0 0 0 0 0 0 0 0 0 0 0 1 10 78 22
7 9 8 9 6 5 5 4 3 5 5 4 2 2 1 0 0 0 0 0 0 0 0 0 0 0 0 0 0 0 0 0 0 0 0 0 0 0 0 0 0 0 0 0 24 69 40
9 8 5 7 4 3 2 1 2 3 4 4 2 1 0 0 0 0 0 0 0 0 0 0 0 0 0 0 0 0 0 0 0 0 0 0 0 0 0 0 0 0 0 0 0 9 40
9 4 5 6 5 5 4 4 3 2 1 1 1 0 0 0 0 0 0 0 0 0 0 0 0 0 0 0 0 0 0 0 0 0 0 0 0 0 0 0 0 0 0 0 0 3 7
6 6 13 9 9 12 7 2 4 4 4 3 1 0 0 0 0 0 0 0 0 0 0 0 0 0 0 0 0 0 0 0 0 0 0 0 0 0 0 0 0 0 0 0 0 3 12
4 10 14 14 12 6 7 12 11 8 5 3 3 0 0 0 0 0 0 0 0 0 0 0 0 0 0 0 0 0 0 0 0 0 0 0 0 0 0 0 0 0 0 0 0 0 1
6 8 8 7 7 13 11 7 6 1 0 0 0 0 0 0 0 0 0 0 0 0 0 0 0 0 0 0 0 0 0 0 0 0 0 0 0 0 0 0 0 0 0 0 0 0 0
7 9 7 12 13 13 5 3 0 0 0 0 0 0 0 0 0 0 0 0 0 0 0 0 0 0 0 0 0 0 0 0 0 0 0 0 0 0 0 0 0 0 0 0 0 0 0
9 4 11 18 10 5 1 1 0 0 0 0 0 0 0 0 0 0 0 0 0 0 0 0 0 0 0 0 0 0 0 0 0 0 0 0 0 0 0 0 0 0 0 0 0 0 0
7 8 15 12 2 12 5 1 0 0 0 0 0 0 0 0 0 0 0 16 8 24 0 1 0 0 0 0 0 0 0 0 0 0 0 0 0 0 0 0 0 0 0 0 0 0 0
2 3 5 8 0 10 18 13 0 0 0 0 0 0 0 0 0 0 96 80 13 0 1 0 0 3 1 4 0 0 0 0 0 0 0 0 0 0 0 0 0 0 0 0 0 0 0
3 1 1 5 0 6 18 12 6 0 0 0 0 0 0 0 1 84 33 20 2 0 1 3 0 1 1 1 0 5 0 0 0 0 0 0 0 0 0 0 0 0 0 0 0 0 0
2 3 6 3 3 8 16 11 0 0 0 0 0 0 0 0 37 40 41 44 14 18 67 52 34 8 2 9 0 0 8 0 0 0 0 0 0 0 0 0 0 0 0 0 0 0 0
1 3 4 5 7 7 12 17 0 0 0 0 3 0 7 0 32 88 70 70 105 139 75 69 36 9 33 14 3 1 2 0 0 0 0 1 0 0 1 0 0 0 0 0 0 0 0
0 0 1 3 6 8 10 12 6 0 0 0 11 17 4 21 41 60 67 118 97 83 65 55 97 45 7 6 6 2 7 1 0 0 0 0 0 0 0 0 0 0 0 0 0 0 0
0 0 1 1 2 6 9 14 12 4 0 0 17 16 16 23 38 45 80 69 145 83 72 75 136 42 32 22 43 8 5 17 1 0 0 0 0 0 0 4 0 0 0 0 0 0 0
0 0 0 1 0 4 8 13 23 34 0 46 31 16 18 29 20 51 90 104 72 82 83 96 67 49 26 52 29 6 30 7 8 4 0 0 0 0 0 0 0 0 0 0 0 0 0
0 0 0 3 2 5 4 10 18 36 7 32 57 44 62 17 26 44 49 57 50 18 82 98 56 34 55 49 44 28 13 7 3 2 4 0 2 22 5 0 1 0 0 0 0 0 0
1 0 0 1 2 4 4 10 17 28 35 74 55 42 54 24 28 30 26 30 49 46 57 26 56 121 93 57 19 13 4 3 0 0 1 2 2 15 19 8 11 0 0 0 0 0 0
1 0 0 0 1 3 4 12 21 29 45 64 62 42 31 55 21 33 19 26 20 26 61 114 81 81 88 62 60 78 35 14 3 0 0 0 2 9 8 16 0 0 0 0 0 0 0
0 0 0 0 0 7 6 11 22 28 34 44 44 60 27 33 13 21 39 31 27 59 136 146 130 83 74 112 92 79 56 43 9 0 0 0 1 5 12 4 35 12 0 0 0 0 0
0 0 1 2 3 9 11 8 14 34 32 34 29 23 39 20 11 17 32 44 46 49 40 35 67 120 116 133 130 122 35 58 36 25 1 3 5 5 9 2 3 19 29 12 7 312 180
1 3 4 6 13 10 5 13 20 23 34 46 41 6 16 17 6 12 22 14 44 26 48 62 108 152 78 141 138 91 60 117 63 9 19 9 12 16 14 12 2 0 0 55 26 6 12
2 4 8 13 18 11 6 14 17 25 36 40 33 3 3 12 4 1 17 20 22 21 29 41 48 55 52 163 263 231 137 68 73 78 21 13 22 11 6 10 9 0 1 1 0 0 0

GFSGBSN_con_sbcape_030.txt.gz
CAPE
6 6 4 5 4 3 3 3 1 2 1 1 0 1 3 2 0 0 0 0 1 0 0 1 2 2 0 0 0 0 0 0 0 0 0 0 0 0 0 0 2 17 219 160 4 99 24
3 6 6 6 4 3 4 3 2 2 3 1 1 3 3 4 4 3 1 2 1 0 0 2 2 2 0 0 0 0 0 0 0 0 0 0 0 0 0 0 2 17 38 57 37 225 53
9 9 9 7 5 2 2 2 1 0 0 0 3 3 3 2 1 1 0 0 0 0 0 4 3 1 0 0 0 0 0 0 0 0 0 0 0 0 0 0 0 4 17 31 69 125 32
8 8 8 6 3 2 2 2 2 3 4 3 3 3 3 1 0 0 0 0 0 0 0 1 8 0 0 0 0 0 0 0 0 0 0 0 0 0 0 0 6 2 4 28 52 82 12
6 6 5 6 6 7 8 6 4 3 3 3 3 3 2 0 0 0 0 0 0 0 0 1 0 0 0 0 0 0 0 0 0 0 0 0 0 0 0 0 1 0 1 4 42 30 5
4 4 4 6 6 10 6 4 5 4 5 3 3 3 2 0 0 0 0 0 0 0 0 0 0 0 0 0 0 0 0 0 0 0 0 0 0 0 0 0 0 0 0 0 2 57 16
9 6 7 4 2 6 7 6 6 5 2 2 0 0 0 0 0 0 0 0 0 0 0 0 0 0 0 0 0 0 0 0 0 0 0 0 0 0 0 0 0 0 1 0 1 10 61
10 4 4 3 9 12 8 4 1 1 1 0 0 0 0 0 0 0 0 0 0 0 0 0 0 0 0 0 0 0 0 0 0 0 0 0 0 0 0 0 0 0 0 0 0 6 14
4 1 9 12 12 7 2 2 3 4 1 1 1 0 0 0 0 0 0 0 0 0 0 0 0 0 0 0 0 0 0 0 0 0 0 0 0 0 0 0 0 0 0 0 0 0 15
2 11 13 12 6 1 2 8 8 6 3 1 0 0 0 0 0 0 0 0 0 0 0 0 0 0 0 0 0 0 0 0 0 0 0 0 0 0 0 0 0 0 0 0 0 7 8
8 10 14 11 6 6 12 12 6 0 0 0 0 0 0 0 0 0 0 0 0 0 0 0 0 0 0 0 0 0 0 0 0 0 0 0 0 0 0 0 0 0 0 0 0 0 2
6 6 5 8 14 10 1 0 0 0 0 0 0 0 0 0 0 0 0 0 0 0 0 0 0 0 0 0 0 0 0 0 0 0 0 0 0 0 0 0 0 0 0 0 0 0 0
7 2 2 13 12 4 0 0 0 0 0 0 0 0 0 0 0 0 0 0 0 0 0 0 0 0 0 0 0 0 0 0 0 0 0 0 0 0 0 0 0 0 0 0 0 0 0
1 2 7 9 7 0 0 0 0 0 0 0 0 0 0 0 0 0 0 0 0 0 1 0 0 0 0 0 0 0 0 0 0 0 0 0 0 0 0 0 0 0 0 0 0 0 0
3 3 7 6 2 0 1 0 0 0 0 0 0 0 0 0 0 0 0 0 0 5 0 0 0 0 0 0 0 0 0 0 0 0 0 0 0 0 0 0 0 0 0 0 0 0 0
3 3 3 3 0 0 3 0 0 0 0 0 0 0 0 0 0 0 10 8 21 0 0 0 3 0 0 0 0 0 0 0 0 0 0 0 0 0 0 0 0 0 0 0 0 0 0
3 3 0 3 0 0 2 4 0 0 0 0 0 0 0 0 0 3 30 12 34 2 14 15 4 0 10 9 6 10 0 0 0 4 0 0 0 0 0 0 0 0 0 0 0 0 0
2 2 3 3 2 0 1 3 0 0 0 0 0 7 0 0 1 4 21 12 20 61 98 25 14 2 13 17 5 14 17 1 0 0 0 0 0 0 0 0 0 0 0 0 0 0 0
1 3 2 4 5 3 0 0 0 0 0 5 0 4 5 0 10 4 12 18 20 103 107 42 25 39 3 8 5 10 18 3 0 0 0 0 0 0 0 4 0 0 0 0 0 0 0
0 0 1 2 3 4 2 0 0 0 0 3 6 8 6 0 10 26 32 30 65 110 151 73 55 77 41 16 2 6 12 2 0 0 0 0 0 0 0 0 0 0 0 0 0 0 0
0 0 0 0 2 4 4 6 2 0 0 0 15 12 8 3 12 22 28 82 100 141 56 34 90 75 60 24 20 13 6 0 0 17 0 0 0 0 0 0 7 0 0 0 0 0 0
0 1 0 2 5 6 4 10 12 13 1 16 38 64 19 10 31 30 41 78 149 93 44 40 120 101 27 19 11 19 16 5 15 0 0 0 0 0 6 0 0 4 0 0 0 0 0
0 0 0 1 5 4 3 9 13 17 25 32 33 2 45 4 28 38 75 77 45 111 123 84 74 52 15 30 25 11 1 0 0 0 0 0 0 0 0 0 0 2 2 0 0 0 0
1 0 0 0 1 3 7 14 16 24 29 91 40 17 18 13 17 30 40 72 82 73 58 47 78 79 79 42 11 1 0 0 0 1 0 0 0 0 0 0 2 0 3 1 0 0 0
0 0 0 0 3 6 9 16 19 27 27 113 45 6 17 36 22 19 29 57 94 59 76 157 169 170 86 57 46 22 9 0 1 0 0 0 0 0 0 1 0 10 0 0 0 1 5
0 0 1 2 4 3 7 6 14 28 28 104 33 2 22 20 11 3 26 26 58 112 75 101 132 127 115 53 26 56 0 93 1 0 0 0 0 0 0 0 2 0 0 0 0 1 402
1 1 3 3 5 9 7 14 21 28 28 90 43 1 10 13 5 6 7 31 49 81 106 75 133 125 59 44 67 32 10 0 32 0 0 0 0 0 0 0 0 0 0 0 11 121 85
2 3 5 10 12 5 10 15 22 23 31 72 36 1 1 14 2 3 7 9 21 46 65 63 62 145 183 174 168 126 6 43 14 0 3 0 0 0 0 0 0 0 0 26 62 0 0
2 6 10 16 14 11 13 17 18 22 28 32 26 2 2 6 0 0 0 6 23 28 55 38 26 32 26 48 124 28 50 19 32 3 0 2 25 1 0 0 62 0 0 0 0 0 0

GFSGBSN_con_sbcape_033.txt.gz
CAPE
6 6 6 4 5 4 2 2 1 3 1 0 0 4 6 3 1 0 0 0 1 0 0 1 1 2 0 0 0 0 0 19 0 0 0 0 0 0 0 0 0 12 105 10 17 28 0
9 9 9 6 4 3 2 2 1 2 3 4 6 5 4 4 3 1 1 0 0 0 0 1 3 0 0 0 0 0 0 0 0 0 0 0 0 0 0 0 0 0 74 13 58 54 32
10 9 8 6 3 2 2 2 2 3 3 3 5 5 4 4 1 0 0 0 0 0 0 0 2 2 0 0 0 0 0 0 0 0 0 0 0 0 0 0 0 0 10 169 44 2 98
8 6 7 5 3 5 8 6 6 6 5 5 3 2 0 0 0 0 0 0 0 0 0 0 1 3 0 0 0 0 0 0 0 0 0 0 0 0 0 0 0 0 0 5 16 34 72
5 4 5 2 3 6 6 7 7 5 4 3 1 0 0 0 0 0 0 0 0 0 0 0 0 0 0 0 0 0 0 0 0 0 0 0 0 0 0 0 0 0 0 0 0 1 52
3 2 4 2 3 7 7 6 5 6 4 2 1 0 0 0 0 0 0 0 0 0 0 0 0 0 0 0 0 0 0 0 0 0 0 0 0 0 0 0 0 0 0 0 0 0 53
2 2 4 2 2 6 2 2 4 4 4 2 0 0 0 0 0 0 0 0 0 0 0 0 0 0 0 0 0 0 0 0 0 0 0 0 0 0 0 0 0 0 0 0 0 0 3
2 3 2 2 6 3 1 0 2 5 5 1 0 0 0 0 0 0 0 0 0 0 0 0 0 0 0 0 0 0 0 0 0 0 0 0 0 0 0 0 0 0 0 0 0 0 0
3 2 3 6 2 0 3 6 7 5 2 0 0 0 0 0 0 0 0 0 0 0 0 0 0 0 0 0 0 0 0 0 0 0 0 0 0 0 0 0 0 0 0 0 0 0 0
8 7 4 2 1 4 7 5 2 1 0 0 0 0 0 0 0 0 0 0 0 0 0 0 0 0 0 0 0 0 0 0 0 0 0 0 0 0 0 0 0 0 0 0 0 0 0
10 3 2 3 7 7 3 1 0 0 0 0 0 0 0 0 0 0 0 0 0 0 0 0 0 0 0 0 0 0 0 0 0 0 0 0 0 0 0 0 0 0 0 0 0 0 0
8 2 2 6 7 3 0 0 0 0 0 0 0 0 0 0 0 0 0 0 0 0 0 0 0 0 0 0 0 0 0 0 0 0 0 0 0 0 0 0 0 0 0 0 0 0 0
4 3 5 7 6 2 0 0 0 0 0 0 0 0 0 0 0 0 0 0 0 0 0 0 0 0 0 0 0 0 0 0 0 0 0 0 0 0 0 0 0 0 0 0 0 0 0
8 6 9 7 4 1 0 1 0 0 0 0 0 0 0 0 0 0 0 0 0 0 0 0 0 0 0 0 0 0 0 0 0 0 0 0 0 0 0 0 0 0 0 0 0 0 0
7 7 10 4 2 0 1 2 0 0 0 0 0 0 0 0 0 0 0 0 0 0 0 0 0 0 0 0 0 0 0 0 0 0 0 0 0 0 0 0 0 0 0 0 0 0 0
8 7 7 4 2 0 1 4 0 0 0 0 0 0 0 0 0 0 0 0 0 0 0 0 0 0 0 1 0 0 0 0 0 0 0 0 0 0 0 0 0 0 0 0 0 0 0
5 4 6 5 3 0 1 3 0 0 0 0 0 0 0 0 0 0 0 0 0 0 0 0 31 3 0 7 0 0 1 0 0 0 0 0 0 0 0 0 0 0 0 0 0 0 0
4 3 4 3 2 2 1 2 0 0 0 0 0 0 0 0 0 0 0 0 0 1 0 16 39 3 0 0 1 1 27 30 1 1 0 0 0 0 0 0 0 0 0 0 0 0 0
2 1 2 2 4 6 3 1 0 0 0 2 0 0 0 0 0 0 0 0 1 1 11 7 25 16 5 41 23 12 19 14 6 4 0 0 0 0 0 0 0 0 0 0 0 0 0
2 1 2 2 7 8 4 4 0 0 0 0 0 0 0 0 0 0 0 0 3 24 18 22 0 3 29 33 4 3 8 2 0 0 7 5 0 0 0 0 0 0 0 0 0 0 0
0 0 0 3 6 9 6 8 7 0 0 0 0 0 0 0 0 0 0 14 13 40 26 27 13 48 2 2 0 28 4 0 0 0 0 0 0 0 0 0 0 0 0 0 0 0 0
0 0 1 3 8 12 8 13 17 12 0 0 6 0 3 5 0 0 1 19 32 52 43 20 56 33 11 7 0 0 0 0 0 0 0 0 0 0 0 0 0 0 0 0 0 0 0
0 0 0 1 8 8 8 13 18 19 17 7 22 2 7 10 1 0 0 15 16 35 18 59 25 4 28 36 50 13 0 0 0 0 0 0 0 0 0 0 1 0 0 0 0 0 0
0 0 0 1 4 12 18 28 20 23 33 64 57 2 5 10 5 1 0 0 13 38 32 82 38 20 76 37 21 1 0 0 0 0 0 0 0 0 0 0 0 0 0 3 0 0 0
0 0 0 2 6 10 13 8 18 22 27 47 62 0 2 8 7 0 1 11 2 14 80 76 45 46 0 24 5 0 0 0 0 0 0 0 0 0 0 0 0 0 0 0 3 2 9
0 1 5 5 8 7 5 13 23 38 33 43 56 0 5 4 7 4 4 0 4 38 18 36 60 28 41 18 19 0 0 0 0 0 0 0 0 0 0 0 0 0 0 0 0 4 0
1 2 5 8 10 6 16 19 22 30 27 37 43 0 3 3 2 3 19 17 17 17 22 18 34 29 3 2 10 10 2 3 0 0 0 0 0 0 0 0 0 0 0 0 6 0 0
1 5 11 15 12 16 18 18 22 25 31 46 19 0 0 2 0 0 5 25 18 14 40 17 0 20 63 40 37 17 20 0 0 0 0 8 2 0 0 5 0 0 0 0 0 0 0
4 13 11 19 15 17 18 18 20 23 27 33 18 1 1 4 0 0 0 0 3 1 8 26 21 23 36 40 34 9 0 2 0 1 0 0 0 0 0 14 1 0 0 0 0 0 0

GFSGBSN_con_sbcape_036.txt.gz
CAPE
4 3 3 2 2 2 2 2 2 3 2 0 1 4 4 4 1 1 1 0 0 0 0 0 2 1 0 0 0 0 0 0 0 0 0 0 0 0 0 0 0 25 40 107 112 62 17
4 4 2 3 2 2 1 2 1 2 3 2 3 2 1 0 1 1 1 0 0 0 0 0 1 0 0 0 0 0 0 0 0 0 0 0 0 0 0 0 0 1 0 7 33 20 4
5 5 5 3 1 1 1 1 0 1 1 1 2 1 0 0 0 0 0 0 0 0 0 0 6 0 0 0 0 0 0 0 0 0 0 0 0 0 0 0 0 0 0 0 11 0 1
5 6 4 2 1 0 1 0 1 2 3 3 2 1 0 0 0 0 0 0 0 0 0 0 6 0 0 0 0 0 0 0 0 0 0 0 0 0 0 0 0 0 0 0 15 25 19
4 4 3 2 1 3 4 3 3 7 6 5 3 1 0 0 0 0 0 0 0 0 0 0 0 0 0 0 0 0 0 0 0 0 0 0 0 0 0 0 0 0 0 0 0 33 46
6 7 4 2 1 2 1 2 4 7 4 2 0 0 0 0 0 0 0 0 0 0 0 0 0 0 0 0 0 0 0 0 0 0 0 0 0 0 0 0 0 0 0 0 0 0 28
4 5 2 2 0 2 2 3 4 5 5 3 1 0 0 0 0 0 0 0 0 0 0 0 0 0 0 0 0 0 0 0 0 0 0 0 0 0 0 0 0 0 0 0 0 0 0
4 4 3 1 1 3 4 3 3 5 3 1 0 0 0 0 0 0 0 0 0 0 0 0 0 0 0 0 0 0 0 0 0 0 0 0 0 0 0 0 0 0 0 0 0 0 0
5 3 3 3 3 4 5 5 4 1 1 1 0 0 0 0 0 0 0 0 0 0 0 0 0 0 0 0 0 0 0 0 0 0 0 0 0 0 0 0 0 0 0 0 0 0 0
2 5 5 4 5 5 5 3 2 1 0 0 0 0 0 0 0 0 0 0 0 0 0 0 0 0 0 0 0 0 0 0 0 0 0 0 0 0 0 0 0 0 0 0 0 0 0
4 9 8 6 6 4 3 2 2 1 0 0 0 0 0 0 0 0 0 0 0 0 0 0 0 0 0 0 0 0 0 0 0 0 0 0 0 0 0 0 0 0 0 0 0 0 0
7 8 6 5 4 4 3 1 0 0 0 0 0 0 0 0 0 0 0 0 0 0 0 0 0 0 0 0 0 0 0 0 0 0 0 0 0 0 0 0 0 0 0 0 0 0 0
3 4 2 2 4 3 2 1 0 0 0 0 0 0 0 0 0 0 0 0 0 0 0 0 0 0 0 0 0 0 0 0 0 0 0 0 0 0 0 0 0 0 0 0 0 0 0
3 8 6 3 3 2 3 4 0 0 0 0 0 0 0 0 0 0 0 0 0 0 0 0 0 0 0 0 0 0 0 0 0 0 0 0 0 0 0 0 0 0 0 0 0 0 0
3 6 4 3 3 2 1 4 0 0 0 0 0 0 0 0 0 0 0 0 0 0 0 0 0 0 0 0 0 0 0 0 0 0 0 0 0 0 0 0 0 0 0 0 0 0 0
1 2 3 4 4 1 0 4 1 0 0 0 0 0 0 0 0 0 0 0 0 0 0 0 0 0 0 0 0 0 0 0 0 0 0 0 0 0 0 0 0 0 0 0 0 0 0
0 0 1 4 5 2 0 4 3 0 0 0 0 0 0 0 0 0 0 0 0 0 0 0 0 2 0 8 0 0 0 0 2 3 0 0 0 0 0 0 0 0 0 0 0 0 0
0 1 3 5 6 5 3 6 2 0 0 0 0 0 0 0 0 0 0 0 0 0 0 0 0 1 0 15 17 9 5 19 1 8 6 1 0 0 0 0 0 0 0 0 0 0 0
1 3 6 6 6 12 7 4 1 0 0 1 0 0 0 0 0 0 0 0 0 0 0 0 0 0 0 35 35 47 30 9 19 8 20 14 3 0 0 0 0 0 0 0 0 0 0
1 1 4 4 8 10 7 6 3 0 0 0 0 0 0 0 0 0 0 0 0 0 0 0 0 0 0 4 43 52 21 17 3 2 24 30 0 0 0 0 0 0 0 0 0 0 0
0 0 0 1 4 3 11 15 8 0 0 0 0 0 0 0 0 0 0 0 0 0 0 1 0 14 0 0 0 41 9 1 1 9 6 3 1 0 0 0 0 0 0 0 0 0 0
0 0 0 1 4 7 17 21 18 5 1 0 0 0 0 0 0 0 0 0 1 0 6 0 5 2 0 0 3 0 6 2 11 0 0 0 0 0 0 0 0 0 0 0 0 0 0
0 0 0 3 9 14 16 21 21 16 7 1 0 0 0 3 1 3 0 0 0 6 0 25 13 1 0 0 1 0 1 0 1 3 0 0 0 0 0 0 0 0 0 0 0 0 0
0 0 1 4 9 9 5 14 24 20 20 16 1 5 2 3 12 13 10 7 6 3 10 6 3 1 4 0 0 0 0 0 0 0 0 0 0 0 0 0 0 0 0 0 0 0 0
2 1 3 7 11 5 9 14 17 32 26 12 2 3 1 3 7 9 12 17 2 0 5 33 7 1 0 0 0 0 0 0 0 0 0 0 0 0 0 0 0 0 0 0 0 0 0
3 5 8 10 4 12 16 21 29 32 28 24 6 0 0 1 3 7 17 8 9 11 3 0 4 0 1 0 0 0 4 4 7 5 0 0 0 0 0 0 0 0 0 0 0 0 0
3 8 11 11 15 16 18 23 27 33 31 25 11 0 0 1 0 1 13 12 9 12 10 3 0 0 0 3 12 26 10 9 7 15 0 0 0 0 0 0 0 0 0 0 0 0 0
6 13 14 11 13 15 18 19 23 30 32 35 9 0 0 1 0 1 3 11 14 11 15 7 1 0 0 6 27 20 16 4 2 13 8 8 1 0 0 0 7 3 0 0 0 0 0
11 15 10 13 13 10 16 18 20 27 31 24 6 0 1 0 0 0 0 0 2 1 7 4 4 0 16 0 1 1 6 6 0 11 8 4 14 13 12 17 1 20 1 0 0 0 0

GFSGBSN_con_sbcape_039.txt.gz
CAPE
5 5 4 3 1 1 1 1 0 1 1 0 0 0 1 1 0 0 0 0 0 0 0 1 0 1 0 0 0 0 0 0 0 0 0 0 0 0 0 0 0 38 164 112 235 233 145
6 6 5 4 3 1 1 1 1 1 1 1 1 3 3 1 1 0 0 0 0 0 0 0 0 2 0 0 0 0 0 0 0 0 0 0 0 0 0 0 0 0 7 24 1 10 65
8 8 6 5 2 0 0 0 1 1 1 3 3 2 2 1 0 0 0 0 0 0 0 0 1 0 0 0 0 0 0 0 0 0 0 0 0 0 0 0 0 0 0 0 0 0 0
7 7 6 4 2 1 1 1 2 4 4 5 2 2 0 0 0 0 0 0 0 0 0 0 6 0 0 0 0 0 0 0 0 0 0 0 0 0 0 0 0 0 0 0 0 0 0
5 6 4 2 1 1 3 3 2 6 7 5 3 2 0 0 0 0 0 0 0 0 0 0 0 0 0 0 0 0 0 0 0 0 0 0 0 0 0 0 0 0 0 0 0 0 2
4 4 3 2 0 1 6 4 3 5 3 2 1 1 0 0 0 0 0 0 0 0 0 0 0 0 0 0 0 0 0 0 0 0 0 0 0 0 0 0 0 0 0 0 0 0 0
5 4 3 2 1 4 4 2 2 4 4 2 1 0 0 0 0 0 0 0 0 0 0 0 0 0 0 0 0 0 0 0 0 0 0 0 0 0 0 0 0 0 0 0 0 0 0
4 1 4 4 1 2 2 2 3 3 2 2 1 0 0 0 0 0 0 0 0 0 0 0 0 0 0 0 0 0 0 0 0 0 0 0 0 0 0 0 0 0 0 0 0 0 0
4 4 6 7 6 5 4 2 3 4 2 1 0 0 0 0 0 0 0 0 0 0 0 0 0 0 0 0 0 0 0 0 0 0 0 0 0 0 0 0 0 0 0 0 0 0 0
5 4 7 6 5 4 3 2 1 4 1 0 0 0 0 0 0 0 0 0 0 0 0 0 0 0 0 0 0 0 0 0 0 0 0 0 0 0 0 0 0 0 0 0 0 0 0
4 6 6 7 4 2 2 2 1 0 0 0 0 0 0 0 0 0 0 0 0 0 0 0 0 0 0 0 0 0 0 0 0 0 0 0 0 0 0 0 0 0 0 0 0 0 0
4 2 2 1 1 1 2 2 1 0 0 0 0 0 0 0 0 0 0 0 0 0 0 0 0 0 0 0 0 0 0 0 0 0 0 0 0 0 0 0 0 0 0 0 0 0 0
3 3 1 0 1 1 1 1 1 0 0 0 0 0 0 0 0 0 0 0 0 0 0 0 0 0 0 0 0 0 0 0 0 0 0 0 0 0 0 0 0 0 0 0 0 0 0
2 2 1 2 2 2 2 3 2 0 0 0 0 0 0 0 0 0 0 0 0 0 0 0 0 0 0 0 0 0 0 0 0 0 0 0 0 0 0 0 0 0 0 0 0 0 0
3 3 4 2 3 4 4 4 1 0 0 0 0 0 0 0 0 0 0 0 0 0 0 0 0 0 0 0 0 0 0 0 1 6 2 0 0 0 0 0 0 0 0 0 0 0 0
2 2 3 3 5 7 4 6 4 1 0 0 0 0 0 0 0 0 0 0 0 0 0 0 0 0 0 0 0 0 0 0 0 2 4 0 1 0 0 0 0 0 0 0 0 0 0
1 0 2 5 9 9 4 9 9 0 0 0 0 0 0 0 0 0 0 0 0 0 0 0 0 0 0 0 0 0 0 0 0 0 3 8 0 0 0 0 0 0 0 0 0 0 0
1 1 5 8 7 5 6 10 7 0 0 0 0 0 0 0 0 0 0 0 0 0 0 0 0 0 0 0 0 0 4 27 1 16 4 6 19 5 0 0 0 0 0 0 0 0 0
2 4 7 8 7 7 10 9 3 0 5 0 0 0 0 0 0 0 0 0 0 0 0 0 0 0 0 0 0 19 25 37 27 0 10 19 18 0 0 0 0 0 0 0 0 0 0
0 1 0 3 4 9 16 9 3 0 0 0 0 0 0 0 0 0 0 0 0 0 0 0 0 0 0 0 0 1 28 44 4 0 38 54 13 0 0 0 0 0 0 0 0 0 0
0 0 0 1 5 11 20 15 12 7 1 0 0 0 0 0 0 0 0 0 0 0 4 0 0 0 0 0 0 0 28 31 1 54 19 11 3 0 0 0 0 0 0 0 0 0 0
3 1 0 2 7 9 14 18 17 14 2 0 0 0 0 0 0 0 0 0 1 0 2 0 0 0 12 0 0 0 0 7 35 15 2 15 6 0 0 0 0 0 0 0 0 0 0
5 4 4 7 7 4 6 16 22 14 4 0 0 0 0 6 4 10 3 16 16 19 9 8 3 1 0 0 0 0 0 0 20 21 0 9 2 0 0 0 0 0 0 0 0 0 0
5 6 4 7 8 3 10 17 23 24 19 2 0 2 2 8 15 17 14 18 19 18 18 5 5 1 0 0 0 0 0 0 3 1 0 5 0 0 0 0 2 0 0 0 0 0 0
5 4 5 7 3 14 23 24 23 33 27 10 1 6 1 2 6 8 12 20 10 8 11 14 8 6 0 0 0 0 0 30 0 0 0 0 1 0 0 0 0 0 0 0 0 0 0
4 7 9 3 13 17 18 20 28 36 29 22 6 0 0 1 0 4 12 9 12 10 7 0 3 0 0 2 0 5 11 9 5 0 0 0 2 5 0 0 0 0 0 0 0 0 0
3 8 12 13 15 14 17 19 26 29 28 19 11 0 0 1 0 1 6 7 8 9 5 4 1 0 0 1 8 14 9 5 15 15 12 7 2 1 0 8 1 0 0 0 0 0 0
12 11 12 11 10 15 19 21 26 29 32 16 1 0 0 0 0 0 2 6 11 5 15 0 0 8 0 1 14 18 9 8 15 12 8 12 11 26 21 11 5 0 0 0 0 0 0
12 9 9 9 12 17 18 21 25 26 24 2 0 0 2 0 0 0 0 0 0 3 15 4 9 0 0 0 1 6 23 25 0 2 1 12 6 28 18 18 4 18 18 0 0 0 0

GFSGBSN_con_sbcape_042.txt.gz
CAPE
7 7 5 4 2 0 0 0 0 0 0 0 0 1 2 1 0 0 0 0 0 0 0 0 0 0 0 0 0 0 0 0 0 0 0 0 0 0 0 0 0 189 228 171 289 208 107
5 5 3 4 1 0 0 1 1 0 0 0 1 3 3 2 2 1 0 0 0 0 0 0 0 0 0 0 0 0 0 0 0 0 0 0 0 0 0 0 0 0 5 26 5 0 1
6 6 5 4 2 1 2 1 2 1 1 1 1 1 1 0 2 1 0 0 0 0 0 0 0 0 0 0 0 0 0 0 0 0 0 0 0 0 0 0 0 0 0 0 0 0 0
6 6 5 3 2 2 2 1 1 0 1 2 1 0 1 0 2 0 0 0 0 0 0 0 1 0 0 0 0 0 0 0 0 0 0 0 0 0 0 0 0 0 0 0 0 0 0
3 3 3 4 3 3 3 1 0 1 4 2 2 2 0 0 1 0 0 0 0 0 0 1 0 0 0 0 0 0 0 0 0 0 0 0 0 0 0 0 0 0 0 0 0 0 8
3 3 4 3 2 3 5 3 2 1 3 2 1 1 0 0 0 0 0 0 0 0 0 0 0 0 0 0 0 0 0 0 0 0 0 0 0 0 0 0 0 0 0 0 0 0 0
4 4 3 3 3 3 3 2 1 1 0 1 2 0 0 0 0 0 0 0 0 0 0 0 0 0 0 0 0 0 0 0 0 0 0 0 0 0 0 0 0 0 0 0 0 0 0
2 3 3 2 1 1 1 2 2 1 3 4 2 0 0 0 0 0 0 0 0 0 0 0 0 0 0 0 0 0 0 0 0 0 0 0 0 0 0 0 0 0 0 0 0 0 0
3 4 4 2 1 2 3 4 3 3 1 0 0 0 0 0 0 0 0 0 0 0 0 0 0 0 0 0 0 0 0 0 0 0 0 0 0 0 0 0 0 0 0 0 0 0 0
5 4 4 3 3 3 2 3 2 1 0 0 0 0 0 0 0 0 0 0 0 0 0 0 0 0 0 0 0 0 0 0 0 0 0 0 0 0 0 0 0 0 0 0 0 0 0
5 6 7 6 4 1 2 2 1 1 1 0 0 0 0 0 0 0 0 0 0 0 0 0 0 0 0 0 0 0 0 0 0 0 0 0 0 0 0 0 0 0 0 0 0 0 0
4 5 4 2 2 2 2 1 2 2 2 1 0 0 0 0 0 0 0 0 0 0 0 0 0 0 0 0 0 0 0 0 0 0 0 0 0 0 0 0 0 0 0 0 0 0 0
2 4 4 2 1 4 3 3 5 2 0 0 0 0 0 0 0 0 0 0 0 0 0 0 0 0 0 0 0 0 0 0 0 0 0 0 0 0 0 0 0 0 0 0 0 0 0
3 4 6 6 5 6 4 7 7 1 1 0 0 0 0 0 0 0 0 0 0 0 0 0 0 0 0 0 0 0 0 0 0 0 0 0 0 0 0 0 0 0 0 0 0 0 0
1 1 2 5 7 7 8 7 4 1 0 0 0 0 0 0 0 0 0 0 0 0 0 0 0 0 0 0 0 0 0 0 0 0 0 0 0 0 0 0 0 0 0 0 0 0 0
2 0 1 4 6 7 9 9 4 1 1 0 0 0 0 0 0 0 0 0 0 0 0 0 0 0 0 0 0 0 0 0 0 0 0 0 4 0 0 0 0 0 0 0 0 0 0
4 2 1 1 5 7 11 14 10 6 0 0 0 0 0 0 0 0 0 0 0 0 0 0 0 0 0 0 0 0 0 0 0 0 0 0 16 0 0 0 0 0 0 0 0 0 0
3 6 2 7 3 6 11 16 14 0 0 0 0 0 0 0 0 0 0 0 0 0 0 0 0 0 0 0 0 0 0 0 0 0 0 1 48 24 0 0 0 0 0 0 0 0 0
7 7 7 3 1 8 14 18 9 0 0 1 0 0 0 0 0 0 0 0 0 0 0 0 0 0 0 0 0 0 0 0 0 0 0 0 4 7 0 0 0 0 0 0 0 0 0
5 6 3 4 8 13 18 19 9 6 3 0 0 0 0 0 0 0 1 0 0 0 0 0 0 0 0 0 0 0 0 1 0 0 57 64 24 2 0 0 0 0 0 0 0 0 0
8 9 7 6 10 3 15 18 14 10 2 0 0 0 0 0 0 1 3 0 0 2 0 0 0 0 0 0 0 0 0 0 18 67 47 0 27 7 1 1 0 0 0 0 0 0 0
6 3 3 4 3 4 9 21 19 12 1 0 0 0 0 0 0 0 3 5 3 4 10 11 8 1 1 10 0 0 0 0 2 12 44 24 25 33 0 0 0 0 0 0 0 0 0
6 1 2 5 4 9 14 17 29 21 2 0 0 0 0 1 3 3 14 11 11 25 7 8 27 19 29 0 0 0 0 0 0 18 16 19 64 2 0 0 0 0 0 0 0 0 0
7 4 6 6 5 16 21 25 30 34 14 0 0 1 3 6 5 15 12 17 24 26 27 6 16 16 1 0 0 0 0 0 0 0 0 3 28 6 0 0 0 0 0 0 0 0 0
5 8 8 4 13 19 16 17 20 34 28 5 0 3 0 2 5 9 12 13 10 7 20 20 2 13 0 0 0 0 0 0 0 0 6 0 14 12 0 0 0 0 0 0 0 0 0
4 9 2 12 11 11 15 20 22 34 27 11 6 0 0 1 1 0 17 7 12 8 15 2 0 0 0 0 7 2 0 33 22 5 11 17 9 22 4 0 25 0 0 0 0 0 0
5 3 9 9 11 15 23 24 27 31 30 10 3 0 0 0 0 0 6 9 3 7 4 1 2 0 0 4 5 4 2 0 10 14 28 32 25 4 22 7 3 2 0 0 0 0 0
9 5 6 9 12 21 24 23 24 31 29 0 0 0 0 0 0 0 3 19 22 8 4 3 0 0 1 10 21 3 10 11 10 4 6 11 15 28 25 20 13 15 0 0 0 0 0
3 2 6 10 11 18 19 16 26 24 15 0 0 0 1 0 0 0 0 0 0 15 30 3 1 8 2 8 9 9 13 8 9 8 9 13 14 8 20 26 0 9 0 0 0 0 0

GFSGBSN_con_sbcape_045.txt.gz
CAPE
8 6 5 3 2 2 2 2 0 0 0 0 0 0 0 0 0 0 0 0 0 0 0 0 0 0 0 0 0 0 0 0 0 0 0 0 0 0 0 0 0 192 333 289 244 179 157
4 4 4 3 2 1 1 1 0 0 0 0 0 1 1 1 1 0 0 0 0 0 0 0 0 0 0 0 0 0 0 0 0 0 0 0 0 0 0 0 0 0 79 192 51 114 80
3 3 3 2 3 2 1 0 0 0 0 0 0 1 1 2 0 0 0 0 0 0 0 0 0 0 0 0 0 0 0 0 0 0 0 0 0 0 0 0 0 0 0 0 0 0 3
2 2 2 2 2 1 0 0 0 0 1 1 0 0 2 2 0 0 0 0 0 0 0 0 0 0 0 0 0 0 0 0 0 0 0 0 0 0 0 0 0 0 0 0 0 0 0
3 3 3 3 2 1 1 0 0 1 2 3 1 1 0 1 0 0 0 0 0 0 0 0 0 0 0 0 0 0 0 0 0 0 0 0 0 0 0 0 0 0 0 0 0 0 38
4 3 3 2 2 2 3 3 1 1 2 3 1 0 0 0 0 0 0 0 0 0 0 0 0 0 0 0 0 0 0 0 0 0 0 0 0 0 0 0 0 0 0 0 0 11 21
5 6 5 4 2 1 3 2 2 2 1 2 2 1 0 1 0 0 0 0 0 0 0 0 0 0 0 0 0 0 0 0 0 0 0 0 0 0 0 0 0 0 0 0 0 0 26
3 4 3 3 2 1 1 2 2 3 2 3 2 1 0 0 0 0 0 0 0 0 0 0 0 0 0 0 0 0 0 0 0 0 0 0 0 0 0 0 0 0 0 0 0 0 2
2 3 3 3 5 4 2 2 3 4 2 4 2 0 0 0 0 0 0 0 0 0 0 0 0 0 0 0 0 0 0 0 0 0 0 0 0 0 0 0 0 0 0 0 0 0 0
4 4 6 3 5 4 2 3 6 3 3 2 2 0 0 1 0 0 0 0 0 0 0 0 0 0 0 0 0 0 0 0 0 0 0 0 0 0 0 0 0 0 0 0 0 0 0
4 5 5 6 5 5 4 6 5 2 2 1 2 0 0 0 0 0 0 0 0 0 0 0 0 0 0 0 0 0 0 0 0 0 0 0 0 0 0 0 0 0 0 0 0 0 0
4 3 2 2 2 2 5 5 3 2 3 2 0 0 2 0 0 0 0 0 0 0 0 0 0 0 0 0 0 0 0 0 0 0 0 0 0 0 0 0 0 0 0 0 0 0 0
2 1 1 1 0 4 5 5 4 2 2 1 0 0 0 0 0 0 0 0 0 0 0 0 0 0 0 0 0 0 0 0 0 0 0 0 0 0 0 0 0 0 0 0 0 0 0
2 4 6 5 5 5 5 5 6 3 1 0 0 0 0 0 0 0 0 0 0 0 0 0 0 0 0 0 0 0 0 0 0 0 0 0 0 0 0 0 0 0 0 0 0 0 0
2 7 8 7 6 7 7 9 6 1 0 0 0 0 0 0 0 0 0 0 0 0 0 0 0 0 0 0 0 0 0 0 0 0 0 0 0 0 0 0 0 0 0 0 0 0 0
3 5 5 3 7 8 9 7 6 0 0 0 0 0 0 0 0 0 0 0 0 0 0 0 0 0 0 0 0 0 0 0 0 0 0 0 0 0 0 0 0 0 0 0 0 0 0
6 6 1 1 7 11 13 13 9 2 0 0 0 0 0 0 0 0 0 0 0 0 0 0 0 0 0 0 0 0 0 0 0 0 0 0 0 0 0 0 0 0 0 2 0 0 0
4 4 6 6 7 11 16 18 11 3 0 0 0 0 0 0 0 0 0 0 0 0 0 0 0 0 0 0 0 0 0 0 0 0 0 0 3 0 0 0 0 0 0 0 44 0 0
5 6 7 9 11 13 18 18 10 5 1 1 0 0 0 0 0 0 0 0 0 0 0 0 0 0 0 0 0 0 0 0 0 0 1 2 8 0 0 0 0 0 0 0 0 2 5
3 5 5 4 2 9 15 16 10 6 0 0 0 0 0 0 0 1 0 0 0 0 2 4 0 0 0 0 0 0 0 20 18 10 25 3 1 0 0 0 0 0 0 0 0 27 6
1 4 2 3 7 11 14 20 14 7 0 0 0 0 0 2 2 1 1 0 6 9 5 6 16 1 2 4 0 0 0 0 41 42 53 30 0 5 0 0 0 0 0 0 0 0 25
5 3 1 5 12 14 16 24 24 12 0 0 0 1 0 4 0 2 0 9 9 8 10 9 17 15 21 45 1 3 0 3 0 21 65 17 2 10 0 0 0 0 0 0 0 0 0
4 8 3 8 12 15 17 25 26 19 0 0 0 0 2 4 2 6 15 16 14 28 9 6 26 5 13 11 10 18 18 17 2 5 73 81 35 23 3 0 7 17 0 0 0 0 0
3 8 3 9 16 17 17 18 24 22 2 1 0 0 7 5 7 12 14 17 20 15 30 16 20 18 1 19 19 26 28 22 25 25 80 64 55 60 9 13 41 3 15 0 5 0 0
4 6 6 11 14 12 16 18 22 28 7 6 4 11 6 4 4 5 8 6 8 17 12 5 5 25 22 15 67 28 3 23 11 60 89 92 87 62 69 57 5 130 6 5 31 0 0
6 4 10 9 11 18 24 26 24 21 2 14 10 0 0 3 7 10 8 5 8 4 1 0 0 0 5 37 64 20 16 26 27 8 2 57 87 89 38 49 23 7 1 0 0 0 0
2 4 6 8 12 19 25 22 15 19 1 13 15 0 0 2 0 0 12 16 6 7 3 5 4 6 2 34 42 32 27 6 47 22 20 78 67 34 40 36 3 13 6 0 34 1 0
3 5 5 8 10 15 16 11 10 14 3 3 10 1 0 2 3 0 1 11 6 10 5 0 2 5 14 18 55 41 34 31 20 9 29 17 41 21 25 25 6 7 0 1 2 0 0
2 4 4 7 12 12 12 7 7 3 0 0 14 6 4 4 2 0 0 0 1 12 16 1 5 4 15 10 22 23 27 36 34 25 12 28 11 15 10 5 4 14 11 3 1 0 0

GFSGBSN_con_sbcape_048.txt.gz
CAPE
3 2 2 2 1 1 1 0 0 0 0 0 0 0 1 0 0 1 1 0 0 0 0 0 0 0 0 0 0 0 0 0 0 0 0 0 0 0 0 0 0 0 155 441 173 194 184
3 2 2 2 1 1 1 0 0 0 0 0 0 2 2 1 3 0 0 0 0 0 0 0 0 0 0 0 0 0 0 0 0 0 0 0 0 0 0 0 0 0 1 317 244 455 296
1 1 1 1 1 1 1 0 0 0 0 0 1 1 1 1 2 0 0 0 0 0 0 0 0 0 0 0 0 0 0 0 0 0 0 0 0 0 0 0 0 0 0 0 24 108 268
3 3 3 2 1 0 0 0 0 1 3 2 2 1 1 1 0 0 0 0 0 0 0 0 0 0 0 0 0 0 0 0 0 0 0 0 0 0 0 0 0 0 0 0 0 6 108
2 2 2 2 1 1 2 2 0 2 3 4 2 1 1 0 0 1 0 0 0 0 0 0 0 0 0 0 0 0 0 0 0 0 0 0 0 0 0 0 0 0 0 0 0 35 255
2 1 2 2 2 2 4 2 2 2 3 4 2 1 1 0 0 0 0 0 0 0 0 0 0 0 0 0 0 0 0 0 0 0 0 0 0 0 0 0 0 0 0 0 0 57 346
3 2 2 2 1 1 2 3 3 2 4 4 1 1 1 0 0 0 0 0 0 0 0 0 0 0 0 0 0 0 0 0 0 0 0 0 0 0 0 0 0 0 0 0 0 0 195
2 1 1 2 2 1 0 0 0 1 1 3 1 1 2 1 0 0 0 0 0 0 0 0 0 0 0 0 0 0 0 0 0 0 0 0 0 0 0 0 0 0 0 0 0 0 32
3 3 3 3 4 2 1 2 3 6 4 3 3 1 1 0 0 0 0 0 0 0 0 0 0 0 0 0 0 0 0 0 0 0 0 0 0 0 0 0 0 0 0 0 0 0 0
2 4 7 5 3 2 3 3 3 5 3 2 4 1 0 1 0 0 0 0 0 0 0 0 0 0 0 0 0 0 0 0 0 0 0 0 0 0 0 0 0 0 0 0 0 0 0
5 7 6 6 6 3 2 3 3 4 3 3 3 1 0 0 0 0 0 0 0 0 0 0 0 0 0 0 0 0 0 0 0 0 0 0 0 0 0 0 0 0 0 0 0 0 0
3 3 2 4 2 1 2 2 3 4 4 2 0 0 1 0 0 0 0 0 0 0 0 0 0 0 0 0 0 0 0 0 0 0 0 0 0 0 0 0 0 0 0 0 0 0 0
6 7 5 4 2 1 2 3 5 4 2 0 0 0 0 0 0 0 0 0 0 0 0 0 0 0 0 0 0 0 0 0 0 0 0 0 0 0 0 0 0 0 0 0 0 0 0
6 12 10 7 1 1 4 8 7 3 0 0 0 0 0 0 0 0 0 0 0 0 0 0 0 0 0 0 0 0 0 0 0 0 0 0 0 0 0 0 0 0 0 0 0 0 0
5 6 8 6 3 3 9 10 7 2 0 0 0 0 0 0 0 0 0 0 0 0 0 0 0 0 0 0 0 0 0 0 0 0 0 0 0 0 0 0 0 0 0 0 0 0 0
3 2 5 6 5 7 11 13 10 3 0 0 0 0 0 0 0 0 0 0 0 0 0 0 0 0 0 0 0 0 0 0 0 0 0 0 0 0 0 0 0 0 0 12 3 4 0
0 2 6 8 12 11 14 17 13 5 0 0 0 0 0 0 0 0 0 0 0 0 0 0 0 0 0 0 0 0 0 0 0 0 0 0 0 0 0 0 0 0 0 4 25 4 0
1 5 8 15 6 13 18 17 10 2 0 0 0 0 0 0 0 0 0 0 0 0 0 0 0 0 0 0 0 3 1 0 0 0 0 0 0 0 0 0 0 0 0 7 42 20 2
1 4 6 4 13 14 18 15 8 1 0 0 0 0 0 0 1 4 1 0 0 0 5 6 4 2 2 4 4 4 2 0 0 0 0 1 0 0 0 0 0 0 0 0 0 4 25
3 2 5 6 10 12 17 13 2 0 0 0 0 0 2 2 7 1 0 2 6 0 9 17 22 25 16 18 11 10 7 4 2 3 0 0 0 0 0 0 0 0 0 0 21 41 2
3 3 4 6 10 12 17 17 4 0 0 0 0 2 3 5 6 10 6 5 1 6 10 9 18 28 39 38 47 21 8 1 15 21 35 16 18 0 0 0 0 0 0 0 0 4 4
2 2 4 7 11 12 14 23 15 0 0 1 8 20 0 2 0 7 2 9 13 17 16 9 19 16 21 79 70 35 14 32 36 64 36 38 31 19 5 1 0 0 0 0 0 0 0
8 10 5 9 12 10 11 20 17 1 0 5 0 0 11 0 5 21 19 18 18 24 9 16 29 31 14 27 11 20 45 66 68 88 97 86 81 68 18 0 1 2 0 0 0 0 0
7 3 7 10 10 10 11 17 22 3 0 14 3 12 18 12 12 21 24 25 12 34 19 21 25 39 35 34 65 60 80 122 156 106 89 146 160 163 59 29 84 1 0 0 0 0 0
6 5 7 9 10 15 20 20 18 2 0 31 26 24 17 13 8 9 22 12 12 4 3 10 11 16 23 33 45 89 49 44 89 142 95 139 194 104 166 103 30 0 0 9 0 0 0
3 4 6 10 11 9 15 15 11 1 0 40 44 30 7 15 14 18 8 24 12 9 20 9 18 16 21 52 74 51 70 40 25 45 132 105 261 275 153 57 36 12 0 0 34 63 95
3 3 5 10 5 6 10 8 0 1 0 20 44 30 4 23 16 22 18 14 8 12 7 27 29 14 16 41 58 61 52 68 34 52 43 165 215 133 74 80 36 0 0 14 18 112 7
2 3 6 9 2 5 6 0 0 0 0 10 31 17 24 18 8 11 14 30 8 20 16 6 34 25 20 40 62 77 67 54 22 33 34 43 63 65 69 47 26 1 5 17 27 4 1
2 4 6 10 3 4 4 4 0 0 0 0 17 24 25 9 1 3 5 12 16 43 43 39 33 28 20 19 36 30 52 65 36 68 7 50 23 51 35 27 3 1 10 49 7 11 4

GFSGBSN_con_sbcape_051.txt.gz
CAPE
2 2 2 1 1 1 0 0 0 0 0 0 0 0 2 1 1 1 0 0 0 0 0 0 0 0 0 0 0 0 0 0 0 0 0 0 0 0 0 0 3 17 23 348 440 439 350
1 1 1 1 1 0 0 0 0 0 0 0 0 1 1 2 3 1 0 0 0 0 0 0 0 0 0 0 0 0 0 0 0 0 0 0 0 0 0 0 0 0 0 248 495 260 263
1 1 1 1 1 1 0 0 0 0 0 0 0 1 1 2 0 0 0 0 0 0 0 0 0 0 0 0 0 0 0 0 0 0 0 0 0 0 0 0 0 0 0 1 370 452 281
3 2 2 1 1 0 0 0 0 0 0 1 0 1 0 1 0 0 0 0 0 0 0 0 0 0 0 0 0 0 0 0 0 0 0 0 0 0 0 0 0 0 0 14 125 280 215
2 2 2 2 2 2 1 2 1 2 3 3 2 1 1 2 1 0 0 0 0 0 0 0 0 0 0 0 0 0 0 0 0 0 0 0 0 0 0 0 0 0 0 0 1 148 186
1 2 3 3 3 3 3 3 2 2 3 5 2 1 2 1 0 0 0 0 0 0 0 0 0 0 0 0 0 0 0 0 0 0 0 0 0 0 0 0 0 0 0 0 0 88 138
2 3 3 4 3 2 3 1 0 2 1 2 2 1 1 0 0 0 0 0 0 0 0 0 0 0 0 0 0 0 0 0 0 0 0 0 0 0 0 0 0 0 0 0 0 10 135
1 2 1 1 1 0 1 0 0 1 2 5 3 1 1 0 0 0 0 0 0 0 0 0 0 0 0 0 0 0 0 0 0 0 0 0 0 0 0 0 0 0 0 0 0 7 184
1 1 1 2 1 2 1 1 3 5 4 3 3 1 1 0 0 0 0 0 0 0 0 0 0 0 0 0 0 0 0 0 0 0 0 0 0 0 0 0 0 0 0 0 0 0 0
4 9 9 5 4 3 2 3 5 7 4 4 3 1 0 1 0 0 0 0 0 0 0 0 0 0 0 0 0 0 0 0 0 0 0 0 0 0 0 0 0 0 0 0 0 1 9
8 8 6 9 5 2 1 4 5 5 4 4 2 0 0 0 0 0 0 0 0 0 0 0 0 0 0 0 0 0 0 0 0 0 0 0 0 0 0 0 0 0 0 0 0 0 0
4 3 2 5 1 0 2 3 4 6 5 3 0 0 0 0 0 0 0 0 0 0 0 0 0 0 0 0 0 0 0 0 0 0 0 0 0 0 0 0 0 0 0 0 0 0 0
4 3 1 1 0 1 3 6 7 3 0 0 0 0 0 0 0 0 0 0 0 0 0 0 0 0 0 0 0 0 0 0 0 0 0 0 0 0 0 0 0 0 0 0 0 0 0
3 3 3 5 3 4 8 8 4 1 0 0 0 0 0 0 0 0 0 0 0 0 0 0 0 0 0 0 0 0 0 0 0 0 0 0 0 0 0 0 0 0 0 0 0 0 0
2 1 3 9 5 7 12 8 3 0 0 0 0 0 0 0 0 0 0 0 0 0 0 0 0 0 0 0 0 0 0 0 0 0 0 0 0 0 0 0 0 0 5 0 0 2 0
3 1 3 10 10 10 10 11 3 0 0 0 0 0 0 0 0 0 0 0 0 0 0 0 0 0 0 0 0 0 0 0 0 0 0 0 0 0 0 0 0 0 0 8 2 4 3
2 5 3 10 13 12 14 12 2 0 0 0 0 1 0 0 0 0 1 8 0 0 0 0 0 0 3 0 1 0 0 0 0 0 0 0 0 0 0 0 0 0 0 0 16 22 5
3 2 7 10 13 13 16 11 0 0 0 0 0 3 0 0 10 3 26 0 0 0 0 0 0 0 3 8 15 14 5 10 0 0 0 0 0 0 0 0 0 0 0 0 9 12 16
0 2 8 13 13 15 14 6 0 0 0 0 1 0 0 0 9 20 1 1 0 0 7 0 3 13 10 3 4 16 18 5 0 1 0 0 0 0 0 0 0 0 0 0 2 6 48
1 5 8 13 16 16 17 6 0 0 0 0 2 14 6 0 0 0 1 4 9 1 3 14 14 11 23 24 31 31 19 0 0 4 0 0 1 0 0 2 0 0 0 0 4 57 27
2 7 9 10 10 11 16 8 0 0 0 0 0 0 0 4 0 8 6 12 13 12 15 11 14 15 28 44 52 45 74 50 17 17 16 8 2 0 0 0 0 0 0 0 0 0 10
3 6 7 10 10 11 14 9 0 0 0 0 1 2 0 3 2 15 0 1 4 1 0 11 8 13 24 17 19 83 12 166 97 44 42 34 31 21 41 7 0 0 0 0 0 0 0
5 4 8 11 9 11 13 14 0 0 0 0 0 0 11 0 11 9 11 12 8 16 11 13 8 13 8 14 16 34 71 54 98 189 159 99 80 99 43 41 14 6 0 0 0 0 0
5 4 9 9 9 12 12 10 0 0 0 3 8 8 10 11 6 11 3 7 13 12 14 12 21 13 32 25 27 36 25 36 84 80 111 190 251 293 150 71 48 17 0 0 0 0 0
3 4 7 8 10 11 10 9 0 0 0 15 15 18 14 11 7 6 1 11 8 8 13 11 9 14 17 43 56 39 48 22 105 120 158 187 402 344 250 140 43 21 8 0 11 0 0
5 2 6 6 8 2 4 1 0 0 0 19 18 7 10 20 9 12 18 18 10 22 22 6 17 38 46 52 37 28 65 73 68 74 103 162 357 323 287 134 114 22 18 65 1 1 0
3 2 6 7 0 3 1 0 0 0 0 0 7 19 12 14 4 5 12 11 8 31 11 27 20 30 14 30 44 111 67 113 62 42 75 105 347 194 372 207 154 47 70 7 7 3 4
3 2 6 7 0 1 0 0 0 0 0 2 10 10 13 14 2 3 2 7 18 20 29 24 39 44 13 55 82 108 103 124 26 31 118 73 108 142 114 109 119 47 47 31 33 0 0
2 2 4 7 0 0 0 0 0 0 0 0 11 10 12 4 1 0 0 0 1 5 30 7 51 22 11 21 33 26 62 74 45 70 23 103 115 91 106 59 79 43 17 8 2 16 10

GFSGBSN_con_sbcape_054.txt.gz
CAPE
1 1 1 1 1 2 1 1 1 1 0 0 0 1 1 0 0 0 0 0 0 0 0 0 1 0 0 0 0 0 0 0 0 0 0 0 0 0 0 0 0 4 15 17 251 274 575
2 2 1 1 2 1 1 0 0 0 1 1 1 3 4 5 2 1 0 0 0 0 0 0 0 0 0 0 0 0 0 0 0 0 0 0 0 0 0 0 0 3 15 16 152 365 401
2 2 3 3 2 1 0 0 0 0 0 0 1 1 3 4 2 0 0 0 0 0 0 0 0 0 0 0 0 0 0 0 0 0 0 0 0 0 0 0 0 0 0 0 0 415 324
2 3 3 3 2 1 0 0 0 0 1 3 2 2 3 3 1 1 1 0 0 0 0 0 0 0 0 0 0 0 0 0 0 0 0 0 0 0 0 0 0 0 0 0 0 318 364
2 2 2 2 4 6 3 1 0 1 2 3 3 2 3 4 1 1 0 0 0 0 0 0 0 0 0 0 0 0 0 0 0 0 0 0 0 0 0 0 0 0 0 0 0 45 285
3 3 3 4 3 2 4 1 2 1 4 5 4 2 3 3 0 0 0 0 0 0 0 0 0 0 0 0 0 0 0 0 0 0 0 0 0 0 0 0 0 0 0 0 0 0 151
3 2 3 2 1 1 1 0 0 1 3 4 5 1 2 2 0 0 0 0 0 0 0 0 0 0 0 0 0 0 0 0 0 0 0 0 0 0 0 0 0 0 0 0 0 0 132
3 1 0 0 0 1 2 0 1 1 4 6 6 2 1 1 0 0 0 0 0 0 0 0 0 0 0 0 0 0 0 0 0 0 0 0 0 0 0 0 0 0 0 0 0 0 54
3 3 2 1 5 3 3 0 1 3 5 6 5 1 0 0 0 0 0 0 0 0 0 0 0 0 0 0 0 0 0 0 0 0 0 0 0 0 0 0 0 0 0 0 0 0 12
4 5 9 6 4 2 0 1 2 4 6 6 4 0 0 3 0 0 0 0 0 0 0 0 0 0 0 0 0 0 0 0 0 0 0 0 0 0 0 0 0 0 0 0 0 0 3
3 5 7 9 7 1 0 2 3 5 4 3 0 0 0 0 0 0 0 0 0 0 0 0 0 0 0 0 0 0 0 0 0 0 0 0 0 0 0 0 0 0 0 0 0 0 0
2 2 2 3 1 0 1 2 4 2 0 0 0 0 0 0 0 0 0 0 0 0 0 0 0 0 0 0 0 0 0 0 0 0 0 0 0 0 0 0 0 0 0 0 0 0 0
3 2 2 3 2 5 5 5 1 0 0 0 0 0 0 0 0 0 0 0 0 0 0 0 0 0 0 0 0 0 0 0 0 0 0 0 0 0 0 0 0 0 0 0 0 0 0
1 1 1 6 9 6 6 3 0 0 0 0 0 0 0 0 0 0 0 0 0 0 0 0 0 0 0 0 0 0 0 0 0 0 0 0 0 0 0 0 0 0 0 0 0 0 0
4 1 5 7 7 5 5 4 0 0 0 0 0 0 0 0 0 0 0 0 18 1 0 0 0 0 0 0 0 0 0 0 0 0 0 0 0 0 0 0 0 0 1 0 0 0 0
4 2 2 8 5 8 6 5 0 0 0 0 0 0 0 0 0 0 0 0 3 0 0 0 0 0 0 3 0 0 0 0 0 0 0 0 0 0 0 0 0 0 0 2 0 0 0
1 1 3 10 7 8 6 7 0 0 0 0 0 1 0 0 0 0 0 6 3 0 0 0 0 0 2 1 1 4 0 0 0 0 0 0 0 0 0 0 0 0 0 0 0 2 0
1 4 7 10 5 7 9 7 0 0 0 0 0 6 0 0 4 32 5 0 0 0 0 0 0 0 0 0 0 4 11 9 0 0 0 0 0 0 0 0 0 0 0 0 0 0 1
3 6 13 11 9 12 12 4 0 0 0 0 0 0 0 0 6 19 0 1 0 0 1 1 2 1 0 0 0 0 0 0 0 0 1 0 0 0 0 0 0 0 0 0 0 0 0
4 6 12 13 11 15 14 1 0 0 0 0 0 8 3 0 0 0 5 3 9 0 1 1 0 0 0 2 4 1 2 7 0 0 0 0 0 0 0 0 0 1 0 0 0 0 0
6 7 8 13 13 17 15 0 0 0 0 0 0 0 0 2 0 7 7 7 1 0 0 0 5 1 1 1 9 15 35 43 7 12 0 0 0 0 0 0 0 0 0 0 0 0 0
6 7 8 11 11 16 12 0 0 0 0 0 0 1 0 0 0 7 0 2 0 0 0 2 11 9 8 12 18 17 12 12 63 158 50 26 14 10 9 1 0 0 0 0 0 0 0
6 8 8 9 9 10 9 0 0 0 0 0 0 0 0 0 0 0 0 0 0 3 5 12 11 13 13 15 11 16 9 11 52 23 193 125 101 56 13 9 7 5 0 0 0 0 0
5 6 7 9 8 6 0 0 0 0 0 0 0 2 8 0 0 0 0 0 5 5 9 12 7 8 9 15 10 9 9 9 2 28 93 116 209 231 71 58 53 0 0 0 0 0 0
4 5 6 9 6 1 0 0 0 0 0 2 0 0 0 2 0 0 0 0 9 7 5 9 2 1 9 10 21 12 15 10 16 21 33 77 220 163 160 138 21 1 1 0 23 5 0
3 3 4 7 0 0 0 0 0 0 0 1 0 0 2 19 0 0 3 1 5 9 21 9 10 17 15 19 16 22 46 23 22 8 70 68 163 374 260 121 49 0 0 0 0 0 0
3 2 3 5 0 0 0 0 0 0 0 0 1 0 1 52 0 1 0 0 4 9 12 15 13 23 11 12 19 81 45 27 43 8 35 107 206 215 216 177 25 20 6 41 12 0 2
1 3 1 2 0 0 0 0 0 0 0 0 1 0 3 58 2 1 0 0 3 11 26 18 31 39 16 19 16 33 17 43 32 31 80 44 201 112 115 105 63 96 69 75 46 1 0
1 1 2 3 0 0 0 0 0 0 0 0 6 0 0 0 2 1 3 0 0 0 4 23 48 42 26 19 13 18 58 57 51 79 25 103 30 25 34 55 6 9 20 7 11 2 0

GFSGBSN_con_sbcape_057.txt.gz
CAPE
3 2 2 2 3 2 0 0 0 0 0 0 0 0 0 1 1 1 0 1 0 0 1 0 0 0 0 0 0 0 0 0 0 0 0 0 0 0 0 0 0 0 0 3 117 231 656
2 2 2 2 2 2 1 0 0 0 0 0 0 2 4 3 2 1 2 1 0 0 1 0 0 0 0 0 0 0 0 0 0 0 0 0 0 0 0 0 0 0 0 0 14 394 615
1 2 2 2 2 1 0 0 0 0 0 0 1 3 5 4 2 0 2 1 0 0 0 0 0 0 0 0 0 0 0 0 0 0 0 0 0 0 0 0 0 0 0 0 0 107 307
1 1 2 2 1 2 0 0 0 0 0 2 2 2 3 2 1 2 3 1 0 0 0 0 0 0 0 0 0 0 0 0 0 0 0 0 0 0 0 0 0 0 0 0 0 6 212
4 4 1 1 1 1 1 1 0 0 2 6 7 4 5 5 2 2 1 0 0 0 0 0 0 0 0 0 0 0 0 0 0 0 0 0 0 0 0 0 0 0 0 0 0 0 222
8 10 6 1 0 2 2 1 0 0 3 6 7 4 5 4 1 0 0 0 0 0 0 0 0 0 0 0 0 0 0 0 0 0 0 0 0 0 0 0 0 0 0 0 0 0 202
4 3 1 1 0 3 2 0 0 1 4 5 6 4 3 1 0 0 0 0 0 0 0 0 0 0 0 0 0 0 0 0 0 0 0 0 0 0 0 0 0 0 0 0 0 0 54
4 3 1 1 4 5 1 0 0 3 4 7 5 3 1 0 0 0 0 0 0 0 0 0 0 0 0 0 0 0 0 0 0 0 0 0 0 0 0 0 0 0 0 0 0 0 1
2 4 5 6 5 3 0 0 2 7 6 5 2 1 0 0 0 0 0 0 0 0 0 0 0 0 0 0 0 0 0 0 0 0 0 0 0 0 0 0 0 0 0 0 0 0 26
3 8 13 5 4 3 0 2 8 7 5 1 0 0 0 1 0 0 0 0 0 0 0 0 0 0 0 0 0 0 0 0 0 0 0 0 0 0 0 0 0 0 0 0 0 0 0
5 8 6 4 4 4 5 8 7 2 0 0 0 0 0 1 0 0 0 0 0 0 0 0 0 0 0 0 0 0 0 0 0 0 0 0 0 0 0 0 0 0 0 0 0 0 0
6 5 3 5 5 11 11 2 0 0 0 0 0 0 0 0 0 0 0 0 0 0 0 0 0 0 0 0 0 0 0 0 0 0 0 0 0 0 0 0 0 0 0 0 0 0 0
3 2 3 5 8 11 5 0 0 0 0 0 0 0 0 0 0 0 0 0 0 0 0 0 0 0 0 0 0 0 0 0 0 0 0 0 0 0 0 0 0 0 0 0 0 0 0
6 8 10 8 9 6 1 0 0 0 0 0 0 0 0 0 0 0 0 0 0 0 0 0 0 0 0 0 0 0 0 0 0 0 0 0 0 0 0 0 0 0 0 0 0 0 0
7 8 7 8 6 3 2 0 0 0 0 0 0 0 0 0 0 0 0 0 0 0 0 0 0 0 0 0 0 0 0 0 0 0 0 0 0 0 0 0 0 0 0 0 0 0 0
5 7 9 8 10 4 2 0 0 0 0 0 0 0 0 0 0 0 0 0 0 0 0 0 0 0 0 0 0 0 0 0 0 0 0 0 0 0 0 0 0 0 0 0 0 0 0
4 9 12 13 9 5 5 0 0 0 0 0 0 0 0 0 0 0 0 0 0 0 0 0 0 0 0 0 0 0 0 0 0 0 0 0 0 0 0 0 0 0 0 0 0 0 0
5 9 10 5 8 7 7 0 0 0 0 0 0 0 0 0 0 3 0 0 0 0 0 0 0 0 0 0 0 0 0 0 0 0 0 0 0 0 0 0 0 0 0 0 0 0 0
5 9 11 10 13 12 5 0 0 0 0 0 0 2 0 0 0 0 1 0 0 0 0 0 0 0 0 0 0 0 0 0 0 0 0 0 0 0 0 0 0 0 0 0 0 0 0
5 10 12 13 12 13 5 0 0 0 0 0 0 20 0 0 0 0 0 0 0 0 0 0 0 0 0 0 0 0 0 0 0 0 0 0 0 0 0 0 0 0 0 0 0 0 0
2 5 9 12 12 10 5 0 0 0 0 0 0 0 0 0 0 0 0 0 0 0 0 0 0 0 0 0 0 0 0 0 0 0 0 0 0 0 0 0 0 0 0 0 0 0 0
2 6 9 10 13 9 1 0 0 0 0 0 0 0 0 0 0 0 0 0 0 0 0 0 0 0 0 0 0 0 0 0 0 0 0 0 0 0 0 0 0 0 0 0 0 0 0
1 5 5 8 12 4 0 0 0 0 0 0 0 0 0 0 0 0 0 0 0 0 0 0 0 1 0 0 0 0 0 0 0 0 0 1 3 17 0 0 0 0 0 0 0 0 0
3 6 4 7 2 2 0 0 0 0 0 0 0 0 0 0 0 0 0 0 0 0 0 1 0 3 0 0 0 0 0 0 0 0 0 10 20 32 0 4 1 0 0 0 0 0 0
1 4 3 6 1 0 1 0 0 0 0 0 0 0 0 2 0 0 0 0 0 0 0 6 4 12 1 3 0 0 8 0 1 0 2 13 18 20 6 10 0 0 0 0 0 0 0
1 5 2 4 0 0 0 0 0 0 0 0 0 0 0 0 0 0 0 0 0 0 2 12 9 3 0 0 6 8 7 0 0 0 0 0 5 71 9 8 0 0 0 1 0 0 0
0 3 1 1 0 0 0 0 0 0 0 0 0 0 0 99 0 0 0 0 0 0 4 7 5 10 0 0 1 0 5 1 0 2 2 0 2 11 23 118 32 0 0 22 10 0 0
0 2 1 1 0 0 0 0 0 0 0 0 0 0 0 0 0 0 0 0 3 2 11 3 15 0 0 1 1 0 0 0 2 0 1 5 14 31 6 42 2 0 0 3 1 0 0
0 1 1 3 0 0 0 0 0 0 0 0 1 0 0 0 0 0 0 0 0 0 0 2 5 1 0 1 0 6 3 2 5 2 1 2 36 15 4 0 0 0 1 0 1 1 0

GFSGBSN_con_sbcape_060.txt.gz
CAPE
1 1 1 1 1 1 0 0 0 0 0 0 0 1 1 2 2 2 2 1 1 0 0 1 0 1 0 0 0 0 0 0 0 0 0 0 0 0 0 0 0 0 0 0 18 469 116
1 1 1 1 1 1 0 0 0 0 0 1 1 1 2 2 2 2 1 1 0 0 0 2 0 1 0 0 0 0 0 0 0 0 0 0 0 0 0 0 0 0 0 0 639 318 161
2 3 2 1 2 1 0 0 0 0 0 1 2 2 4 4 2 1 1 1 0 0 0 0 0 0 0 0 0 0 0 0 0 0 0 0 0 0 0 0 0 0 0 0 148 735 581
3 4 4 2 1 1 0 0 0 0 0 2 2 2 4 3 2 1 3 1 0 0 0 0 0 0 0 0 0 0 0 0 0 0 0 0 0 0 0 0 0 0 0 0 6 637 566
3 3 2 2 4 4 4 1 0 0 2 4 5 5 5 4 4 3 1 0 0 0 0 0 0 0 0 0 0 0 0 0 0 0 0 0 0 0 0 0 0 0 0 0 0 3 466
2 4 4 2 1 4 4 2 0 1 5 6 6 6 6 5 2 0 0 0 0 0 0 0 0 0 0 0 0 0 0 0 0 0 0 0 0 0 0 0 0 0 0 0 0 0 346
1 4 4 3 1 2 3 1 0 3 6 7 7 5 4 2 0 0 0 0 0 0 0 0 0 0 0 0 0 0 0 0 0 0 0 0 0 0 0 0 0 0 0 0 0 0 0
2 5 5 3 2 2 0 0 1 2 3 6 6 3 2 1 0 0 0 0 0 0 0 0 0 0 0 0 0 0 0 0 0 0 0 0 0 0 0 0 0 0 0 0 0 0 0
1 3 12 6 7 6 4 7 7 5 4 4 4 2 0 0 0 0 0 0 0 0 0 0 0 0 0 0 0 0 0 0 0 0 0 0 0 0 0 0 0 0 0 0 0 0 199
7 6 6 6 8 10 11 10 7 5 2 2 3 1 1 1 0 0 0 0 0 0 0 0 0 0 0 0 0 0 0 0 0 0 0 0 0 0 0 0 0 0 0 0 0 0 2
4 4 4 8 9 9 6 3 4 3 2 2 3 0 0 0 0 0 0 0 0 0 0 0 0 0 0 0 0 0 0 0 0 0 0 0 0 0 0 0 0 0 0 0 0 0 0
6 3 4 4 6 10 5 1 4 2 2 2 0 0 1 0 0 0 0 0 0 0 0 0 0 0 0 0 0 0 0 0 0 0 0 0 0 0 0 0 0 0 0 0 0 0 0
4 2 2 3 10 9 5 3 3 1 0 0 0 0 0 0 0 0 0 0 0 0 0 0 0 0 0 0 0 0 0 0 0 0 0 0 0 0 0 0 0 0 0 0 0 0 0
6 6 9 10 10 10 6 6 4 0 0 0 0 0 0 0 0 0 0 0 0 0 0 0 0 0 0 0 0 0 0 0 0 0 0 0 0 0 0 0 0 0 0 0 0 0 0
6 8 12 11 9 7 6 6 1 0 0 0 0 0 0 0 0 0 0 0 0 0 0 0 0 0 0 0 0 0 0 0 0 0 0 0 0 0 0 0 0 0 0 0 0 0 0
5 8 13 11 6 7 6 6 0 0 0 0 0 0 0 0 0 0 0 0 0 0 0 0 0 0 0 0 0 0 0 0 0 0 0 0 0 0 0 0 0 0 0 0 0 0 0
2 9 10 8 6 12 8 1 0 0 0 0 0 0 0 0 0 0 0 0 0 0 0 0 0 0 0 0 0 0 0 0 0 0 0 0 0 0 0 0 0 0 0 0 0 0 0
1 9 7 5 12 13 3 1 0 0 0 0 0 0 0 0 0 0 0 0 0 0 0 0 0 0 0 0 0 0 0 0 0 0 0 0 0 0 0 0 0 0 0 0 0 0 0
3 7 10 14 15 12 4 0 0 0 0 0 0 0 0 0 0 0 0 0 0 0 0 0 0 0 0 0 0 0 0 0 0 0 0 0 0 0 0 0 0 0 0 0 0 0 0
1 7 11 13 16 8 3 0 0 0 0 0 0 0 0 0 0 0 0 0 0 0 0 0 0 0 0 0 0 0 0 0 0 0 0 0 0 0 0 0 0 0 0 0 0 0 0
0 3 6 11 13 5 1 0 0 0 0 0 0 0 0 0 0 0 0 0 0 0 0 0 0 0 0 0 0 0 0 0 0 0 0 0 0 0 0 0 0 0 0 0 0 0 0
0 3 7 11 9 3 0 0 0 0 0 0 0 0 0 0 0 0 0 0 0 0 0 0 0 0 0 0 0 0 0 0 0 0 0 0 0 0 0 0 0 0 0 0 0 0 0
0 3 2 6 7 2 0 0 0 0 0 0 0 0 0 0 0 0 0 0 0 0 0 0 0 0 0 0 0 0 0 0 0 0 0 0 0 0 0 0 0 0 0 0 0 0 0
0 1 2 4 2 1 0 0 0 0 0 0 0 0 0 0 0 0 0 0 0 0 0 0 0 0 0 0 0 0 0 0 0 0 0 0 0 0 0 0 0 0 0 0 0 0 0
0 1 3 2 1 0 0 0 0 0 0 0 0 0 0 0 0 0 0 0 0 0 0 1 0 0 0 0 0 0 0 0 0 0 0 0 0 1 10 0 0 0 0 0 0 0 0
0 0 2 2 0 0 0 0 0 0 0 0 0 0 0 0 0 0 0 0 0 0 0 0 0 0 0 0 0 0 0 0 0 0 0 0 0 0 0 0 0 0 0 0 0 0 0
0 0 2 0 1 0 0 0 0 0 0 0 0 0 0 0 0 0 0 0 0 0 0 0 0 0 0 0 0 0 0 0 0 0 1 0 0 0 1 13 0 0 0 0 5 0 0
0 0 1 0 0 0 0 0 0 0 0 0 0 0 0 0 0 0 0 0 0 0 0 0 0 0 0 0 0 0 0 0 0 0 0 0 0 1 0 17 1 0 0 0 0 0 2
0 0 1 3 1 1 0 0 0 0 0 0 0 0 0 0 0 0 0 0 0 0 0 0 0 0 0 0 0 0 0 0 0 0 1 0 0 0 0 0 0 0 4 0 0 4 1

GFSGBSN_con_sbcape_063.txt.gz
CAPE
3 3 4 3 3 3 1 0 1 0 0 0 1 2 3 3 5 4 3 2 1 2 1 1 1 1 0 0 0 0 0 0 0 0 0 0 0 0 0 0 0 0 3 0 0 13 75
3 4 4 6 3 2 0 0 0 0 0 1 2 3 5 4 3 3 2 1 1 1 0 0 5 1 0 0 0 0 0 0 0 0 0 0 0 0 0 0 0 0 1 0 3 158 112
1 2 3 6 4 2 0 0 0 0 0 1 2 3 4 3 3 3 2 1 1 1 0 0 0 0 0 0 0 0 0 0 0 0 0 0 0 0 0 0 0 0 0 0 315 175 222
1 3 4 5 3 1 1 1 0 0 1 2 4 5 5 4 2 2 3 3 1 0 0 0 3 0 0 0 0 0 0 0 0 0 0 0 0 0 0 0 0 0 0 0 262 278 522
3 4 4 5 4 1 1 1 0 1 5 6 4 6 5 2 4 6 2 1 0 0 0 0 0 0 0 0 0 0 0 0 0 0 0 0 0 0 0 0 0 0 0 0 71 531 575
5 4 4 6 2 1 2 1 2 6 9 9 9 8 6 4 3 3 4 0 0 0 0 0 0 0 0 0 0 0 0 0 0 0 0 0 0 0 0 0 0 0 0 0 0 285 415
4 5 3 3 1 2 4 6 7 7 7 9 7 4 5 4 3 3 1 0 0 0 0 0 0 0 0 0 0 0 0 0 0 0 0 0 0 0 0 0 0 0 0 0 0 0 0
5 2 2 1 2 4 5 7 6 5 6 7 8 6 4 3 3 3 0 0 0 0 0 0 0 0 0 0 0 0 0 0 0 0 0 0 0 0 0 0 0 0 0 0 0 0 0
1 2 2 2 4 6 9 12 9 6 7 6 6 4 4 4 1 0 0 0 0 0 0 0 0 0 0 0 0 0 0 0 0 0 0 0 0 0 0 0 0 0 0 0 0 0 226
6 8 6 6 5 8 13 13 9 7 6 5 5 4 4 1 0 0 0 0 0 0 0 0 0 0 0 0 0 0 0 0 0 0 0 0 0 0 0 0 0 0 0 0 0 0 0
6 7 10 10 12 13 12 10 9 8 5 4 3 5 1 2 0 0 0 0 0 0 0 0 0 0 0 0 0 0 0 0 0 0 0 0 0 0 0 0 0 0 0 0 0 0 0
5 5 6 10 11 10 10 7 6 5 4 3 3 3 1 0 0 0 0 0 0 0 0 0 0 0 0 0 0 0 0 0 0 0 0 0 0 0 0 0 0 0 0 0 0 0 0
4 5 7 8 4 10 4 4 4 3 1 0 0 0 0 0 0 0 0 0 0 0 0 0 0 0 0 0 0 0 0 0 0 0 0 0 0 0 0 0 0 0 0 0 0 0 0
5 6 11 12 5 7 3 2 2 1 0 0 0 0 0 0 0 0 0 0 0 0 0 0 0 0 0 0 0 0 0 0 0 0 0 0 0 0 0 0 0 0 0 0 0 0 0
7 11 6 2 2 1 0 1 0 0 0 0 0 0 0 0 0 0 0 0 0 0 0 0 0 0 0 0 0 0 0 0 0 0 0 0 0 0 0 0 0 0 0 0 0 0 0
5 8 11 1 4 5 3 2 0 0 0 0 0 0 0 0 0 0 0 0 0 0 0 0 0 0 0 0 0 0 0 0 0 0 0 0 0 0 0 0 0 0 0 0 0 0 0
1 5 12 9 8 4 6 3 0 0 0 0 0 0 0 0 0 0 0 0 0 0 0 0 0 0 0 0 0 0 0 0 0 0 0 0 0 0 0 0 0 0 0 0 0 0 0
2 8 8 8 4 6 4 1 0 0 0 0 0 0 0 0 0 0 0 0 0 0 0 0 0 0 0 0 0 0 0 0 0 0 0 0 0 0 0 0 0 0 0 0 0 0 0
4 9 2 5 5 5 2 0 0 0 0 0 0 0 0 0 0 0 0 0 0 0 0 0 0 0 0 0 0 0 0 0 0 0 0 0 0 0 0 0 0 0 0 0 0 0 0
2 6 5 7 5 3 1 0 0 0 0 0 0 0 0 0 0 0 0 0 0 0 0 0 0 0 0 0 0 0 0 0 0 0 0 0 0 0 0 0 0 0 0 0 0 0 0
0 4 1 6 4 3 0 0 0 0 0 0 0 0 0 0 0 0 0 0 0 0 0 0 0 0 0 0 0 0 0 0 0 0 0 0 0 0 0 0 0 0 0 0 0 0 0
0 3 2 5 2 2 0 0 0 0 0 0 0 0 0 0 0 0 0 0 0 0 0 0 0 0 0 0 0 0 0 0 0 0 0 0 0 0 0 0 0 0 0 0 0 0 0
0 2 3 1 1 1 0 0 0 0 0 0 0 0 0 0 0 0 0 0 0 0 0 0 0 0 0 0 0 0 0 0 0 0 0 0 0 0 0 0 0 0 0 0 0 0 0
0 1 2 4 1 0 0 0 0 0 0 0 0 0 0 0 0 0 0 0 0 0 0 0 0 0 0 0 0 0 0 0 0 0 0 0 0 0 0 0 0 0 0 0 0 0 0
0 0 2 3 1 0 0 0 0 0 0 0 0 0 0 0 0 0 0 0 0 0 0 0 0 0 0 0 0 0 0 0 0 0 0 0 0 0 0 0 0 0 0 0 0 0 0
0 0 0 2 1 0 0 0 0 0 0 0 0 0 0 0 0 0 0 0 0 0 0 0 0 0 0 0 0 0 0 0 0 0 0 0 0 0 0 0 0 0 0 0 0 0 0
0 0 0 1 1 0 0 0 0 0 0 0 0 0 0 0 0 0 0 0 0 0 0 0 0 0 0 0 0 0 0 0 0 0 0 0 0 0 0 10 0 0 0 0 0 0 0
0 0 0 1 0 1 0 0 0 0 0 0 0 0 0 0 0 0 0 0 0 0 0 0 0 0 0 0 0 0 0 0 0 0 0 0 0 0 0 0 0 0 0 0 0 0 1
0 0 0 0 1 1 0 0 0 0 0 0 0 0 0 0 0 0 0 0 0 0 0 0 0 0 0 0 0 0 0 0 0 0 1 0 0 0 0 0 0 0 0 3 7 5 1

GFSGBSN_con_sbcape_066.txt.gz
CAPE
3 4 4 3 5 3 0 0 0 0 0 0 2 3 4 5 6 4 2 2 3 3 2 1 1 2 0 0 0 0 0 0 0 0 0 0 0 0 0 0 0 0 0 0 0 0 12
6 4 6 3 3 3 1 0 1 0 0 2 5 5 4 4 4 4 2 2 2 2 1 1 0 1 0 0 0 0 0 0 0 0 0 0 0 0 0 0 0 0 0 0 0 0 26
36 5 6 3 2 2 1 1 0 0 1 5 5 5 4 4 4 3 1 2 2 2 2 0 4 1 0 0 0 0 0 0 0 0 0 0 0 0 0 0 0 0 0 0 0 148 107
21 3 8 3 3 2 1 1 1 3 5 5 5 4 5 4 4 3 4 5 3 2 1 0 4 0 0 0 0 0 0 0 0 0 0 0 0 0 0 0 0 0 0 0 105 223 320
10 8 4 3 3 2 3 3 4 5 5 5 7 7 5 3 6 9 6 3 0 0 0 1 0 0 0 0 0 0 0 0 0 0 0 0 0 0 0 0 0 0 0 0 0 278 382
7 3 4 1 2 4 5 5 3 4 11 10 10 8 6 8 10 2 1 0 0 0 0 0 0 0 0 0 0 0 0 0 0 0 0 0 0 0 0 0 0 0 0 0 0 331 365
2 3 5 4 4 6 3 2 9 7 7 8 8 7 7 8 7 0 0 0 0 0 0 0 0 0 0 0 0 0 0 0 0 0 0 0 0 0 0 0 0 0 0 0 0 0 0
3 5 4 7 5 2 7 9 8 6 6 6 6 5 7 7 5 3 0 0 0 0 0 0 0 0 0 0 0 0 0 0 0 0 0 0 0 0 0 0 0 0 0 0 0 0 0
3 5 6 7 1 3 13 12 9 11 8 7 5 6 3 5 2 0 0 0 0 0 0 0 0 0 0 0 0 0 0 0 0 0 0 0 0 0 0 0 0 0 0 0 0 0 14
8 10 10 2 2 3 8 8 8 9 7 4 6 9 1 0 0 0 0 0 0 0 0 0 0 0 0 0 0 0 0 0 0 0 0 0 0 0 0 0 0 0 0 0 0 0 0
8 10 1 1 7 11 9 6 6 7 5 4 9 4 1 1 0 0 0 0 0 0 0 0 0 0 0 0 0 0 0 0 0 0 0 0 0 0 0 0 0 0 0 0 0 0 0
8 4 1 2 6 4 9 0 3 4 3 6 6 3 0 0 0 0 0 0 0 0 0 0 0 0 0 0 0 0 0 0 0 0 0 0 0 0 0 0 0 0 0 0 0 0 0
8 9 4 4 11 8 4 0 2 2 2 3 0 0 0 0 0 0 0 0 0 0 0 0 0 0 0 0 0 0 0 0 0 0 0 0 0 0 0 0 0 0 0 0 0 0 0
7 14 3 8 6 5 3 4 1 0 3 1 0 0 0 0 0 0 0 0 0 0 0 0 0 0 0 0 0 0 0 0 0 0 0 0 0 0 0 0 0 0 0 0 0 0 0
9 12 1 4 8 4 4 1 0 0 1 0 0 0 0 0 0 0 0 0 0 0 0 0 0 0 0 0 0 0 0 0 0 0 0 0 0 0 0 0 0 0 0 0 0 0 0
5 11 3 4 8 4 2 0 0 1 1 0 0 0 0 0 0 0 0 0 0 0 0 0 0 0 0 0 0 0 0 0 0 0 0 0 0 0 0 0 0 0 0 0 0 0 0
1 6 8 6 7 3 2 1 0 1 0 0 0 0 0 0 0 0 0 0 0 0 0 0 0 0 0 0 0 0 0 0 0 0 0 0 0 0 0 0 0 0 0 0 0 0 0
1 6 7 4 6 2 0 0 0 0 0 0 0 0 0 0 0 0 0 0 0 0 0 0 0 0 0 0 0 0 0 0 0 0 0 0 0 0 0 0 0 0 0 0 0 0 0
1 5 6 5 6 3 0 0 0 0 0 0 0 0 0 0 0 0 0 0 0 0 0 0 0 0 0 0 0 0 0 0 0 0 0 0 0 0 0 0 0 0 0 0 0 0 0
0 3 2 2 6 2 0 0 0 0 0 0 0 0 0 0 0 0 0 0 0 0 0 0 0 0 0 0 0 0 0 0 0 0 0 0 0 0 0 0 0 0 0 0 0 0 0
0 3 1 4 4 1 0 0 0 0 0 0 0 0 0 0 0 0 0 0 0 0 0 0 0 0 0 0 0 0 0 0 0 0 0 0 0 0 0 0 0 0 0 0 0 0 0
0 2 1 1 5 0 0 0 0 0 0 0 0 0 0 0 0 0 0 0 0 0 0 0 0 0 0 0 0 0 0 0 0 0 0 0 0 0 0 0 0 0 0 0 0 0 0
0 1 1 1 5 0 0 0 0 0 0 0 0 0 0 0 0 0 0 0 0 0 0 0 0 0 0 0 0 0 0 0 0 0 0 0 0 0 0 0 0 0 0 0 0 0 0
0 0 3 1 5 0 0 0 0 0 0 0 0 0 0 0 0 0 0 0 0 0 0 0 0 0 0 0 0 0 0 0 0 0 0 0 0 0 0 0 0 0 0 0 0 0 0
0 0 1 4 5 0 0 0 0 0 0 0 0 0 0 0 0 0 0 0 0 0 0 0 0 0 0 0 0 0 0 0 0 0 0 0 0 0 0 0 0 0 0 0 0 0 0
0 0 0 3 6 1 0 0 0 0 0 0 0 0 0 0 0 0 0 0 0 0 0 0 0 0 0 0 0 0 0 0 0 0 0 0 0 0 0 0 0 0 0 0 0 0 0
0 0 0 0 3 4 0 0 0 0 0 0 0 0 0 0 0 0 0 0 0 0 0 0 0 0 0 0 0 0 0 0 0 0 0 0 0 0 0 0 0 0 0 0 0 0 0
0 0 0 0 1 5 0 0 0 0 0 0 0 0 0 0 0 0 0 0 0 0 0 0 0 0 0 0 0 0 0 0 0 0 0 0 0 0 1 0 0 0 0 0 0 0 0
0 0 0 0 1 4 0 0 0 0 0 0 0 0 0 0 0 0 0 0 0 0 0 0 0 0 0 0 0 0 0 0 0 0 0 0 0 0 0 0 0 0 0 0 0 0 0

GFSGBSN_con_sbcape_069.txt.gz
CAPE
39 15 10 7 5 5 3 1 2 1 1 2 4 5 5 5 2 3 3 4 4 3 2 3 1 1 0 0 0 0 0 0 0 0 0 0 0 0 0 0 0 26 6 0 0 0 0
36 12 14 10 6 5 3 1 2 3 6 4 2 3 3 4 5 3 3 4 4 3 2 2 1 0 0 0 0 0 0 0 0 0 0 0 0 0 0 0 0 0 0 0 0 0 2
18 19 15 4 2 4 2 3 4 5 2 2 4 6 6 5 4 5 4 1 4 3 2 1 0 0 0 0 0 0 0 0 0 0 0 0 0 0 0 0 0 0 0 0 17 45 110
13 1 2 3 3 5 5 5 3 1 1 3 3 4 5 5 5 1 1 1 2 1 2 0 2 0 0 0 0 0 0 0 0 0 0 0 0 0 0 0 0 0 0 0 130 255 249
1 3 3 5 4 5 5 2 1 1 2 4 3 6 5 4 1 1 1 0 1 0 0 1 0 0 0 0 0 0 0 0 0 0 0 0 0 0 0 0 0 0 0 0 0 505 485
4 4 5 4 4 2 1 1 1 1 2 4 8 8 8 3 2 0 0 0 0 1 2 0 0 0 0 0 0 0 0 0 0 0 0 0 0 0 0 0 0 0 0 0 0 212 493
4 2 3 1 2 1 1 4 3 2 1 3 6 9 11 1 1 1 0 0 0 0 0 0 0 0 0 0 0 0 0 0 0 0 0 0 0 0 0 0 0 0 0 0 0 0 0
3 1 2 1 2 3 2 12 12 7 6 4 6 11 0 1 0 1 0 0 0 0 0 0 0 0 0 0 0 0 0 0 0 0 0 0 0 0 0 0 0 0 0 0 0 0 0
1 2 2 3 9 12 8 13 11 9 6 4 11 4 2 0 0 0 0 0 0 0 0 0 0 0 0 0 0 0 0 0 0 0 0 0 0 0 0 0 0 0 0 0 0 0 1
2 1 4 8 14 5 8 6 5 4 3 7 4 4 1 0 0 0 0 0 0 0 0 0 0 0 0 0 0 0 0 0 0 0 0 0 0 0 0 0 0 0 0 0 0 0 0
3 3 10 13 11 13 6 0 2 3 5 5 6 1 1 0 0 0 0 0 0 0 0 0 0 0 0 0 0 0 0 0 0 0 0 0 0 0 0 0 0 0 0 0 0 0 0
8 3 6 11 9 6 3 4 3 4 5 4 3 1 0 0 0 0 0 0 0 0 0 0 0 0 0 0 0 0 0 0 0 0 0 0 0 0 0 0 0 0 0 0 0 0 0
5 6 6 4 10 3 2 3 3 3 1 1 1 0 0 0 0 0 0 0 0 0 0 0 0 0 0 0 0 0 0 0 0 0 0 0 0 0 0 0 0 0 0 0 0 0 0
6 9 4 12 0 3 2 4 2 2 0 0 0 0 0 0 0 0 0 0 0 0 0 0 0 0 0 0 0 0 0 0 0 0 0 0 0 0 0 0 0 0 0 0 0 0 0
7 8 5 4 2 3 2 2 1 1 0 0 0 0 0 0 0 0 0 0 0 0 0 0 0 0 0 0 0 0 0 0 0 0 0 0 0 0 0 0 0 0 0 0 0 0 0
4 5 5 2 2 2 2 2 1 1 1 0 0 0 0 0 0 0 0 0 0 0 0 0 0 0 0 0 0 0 0 0 0 0 0 0 0 0 0 0 0 0 0 0 0 0 0
1 3 5 2 1 1 1 1 0 0 0 0 0 0 0 0 0 0 0 0 0 0 0 0 0 0 0 0 0 0 0 0 0 0 0 0 0 0 0 0 0 0 0 0 0 0 0
0 3 5 2 1 1 1 0 0 0 0 0 0 0 0 0 0 0 0 0 0 0 0 0 0 0 0 0 0 0 0 0 0 0 0 0 0 0 0 0 0 0 0 0 0 0 0
0 4 4 4 2 1 0 0 0 0 0 0 0 0 0 0 0 0 0 0 0 0 0 0 0 0 0 0 0 0 0 0 0 0 0 0 0 0 0 0 0 0 0 0 0 0 0
0 2 3 4 2 1 0 0 0 0 0 0 0 0 0 0 0 0 0 0 0 0 0 0 0 0 0 0 0 0 0 0 0 0 0 0 0 0 0 0 0 0 0 0 0 0 0
0 1 2 2 2 1 0 0 0 0 0 0 0 0 0 0 0 0 0 0 0 0 0 0 0 0 0 0 0 0 0 0 0 0 0 0 0 0 0 0 0 0 0 0 0 0 0
0 0 3 2 1 1 1 0 0 0 0 0 0 0 0 0 0 0 0 0 0 0 0 0 0 0 0 0 0 0 0 0 0 0 0 0 0 0 0 0 0 0 0 0 0 0 0
0 0 3 1 1 1 1 0 0 0 0 0 0 0 0 0 0 0 0 0 0 0 0 0 0 0 0 0 0 0 0 0 0 0 0 0 0 0 0 0 0 0 0 0 0 0 0
0 0 1 3 2 0 1 0 0 0 0 0 0 0 0 0 0 0 0 0 0 0 0 0 0 0 0 0 0 0 0 0 0 0 0 0 0 0 0 0 0 0 0 0 0 0 0
0 0 0 1 2 1 0 0 0 0 0 0 0 0 0 0 0 0 0 0 0 0 0 0 0 0 0 0 0 0 0 0 0 0 0 0 0 0 0 0 0 0 0 0 0 0 1
0 0 0 1 3 2 1 0 0 0 0 0 0 0 0 0 0 0 0 0 0 0 0 0 0 0 0 0 0 0 0 0 0 0 0 0 0 0 0 0 0 0 0 0 0 0 1
0 0 0 0 1 2 3 1 0 0 0 0 0 0 0 0 0 0 0 0 0 0 0 0 0 0 0 0 0 0 2 0 0 0 0 0 0 0 1 0 0 0 0 0 0 0 0
0 0 0 0 0 1 2 3 0 0 0 0 0 0 0 0 0 0 0 0 0 0 0 0 0 0 0 0 0 3 3 3 0 0 0 0 0 6 2 1 0 0 0 0 0 0 0
0 0 0 0 0 0 1 4 0 0 0 0 0 0 0 0 0 0 0 0 0 0 0 0 0 0 0 0 0 2 5 3 1 0 0 1 0 0 0 0 0 0 0 0 0 0 0

GFSGBSN_con_sbcape_072.txt.gz
CAPE
29 20 19 9 6 3 1 1 1 2 4 3 3 3 3 3 1 4 4 3 2 2 2 1 0 0 0 0 0 0 0 0 0 0 0 0 0 0 0 0 100 223 256 85 1 0 0
17 16 5 4 2 5 4 5 6 4 1 1 1 2 5 3 3 4 4 2 1 3 2 1 0 0 0 0 0 0 0 0 0 0 0 0 0 0 0 0 0 21 45 10 0 0 0
5 1 3 4 5 5 5 2 2 2 1 4 2 1 1 3 3 3 2 1 3 1 4 2 0 0 0 0 0 0 0 0 0 0 0 0 0 0 0 0 0 0 0 0 0 0 33
4 7 4 4 3 2 2 3 4 2 3 4 3 3 3 2 1 1 1 2 0 2 0 1 2 0 0 0 0 0 0 0 0 0 0 0 0 0 0 0 0 0 0 40 59 33 140
4 4 2 2 2 1 4 6 3 5 6 3 2 5 4 1 1 3 2 0 1 1 1 1 0 0 0 0 0 0 0 0 0 0 0 0 0 0 0 0 0 0 25 51 109 179 335
5 2 1 3 3 5 8 8 7 6 8 3 4 10 10 1 1 2 0 0 0 0 0 0 0 0 0 0 0 0 0 0 0 0 0 0 0 0 0 0 0 0 4 71 11 347 371
1 1 2 2 2 7 13 11 11 9 7 6 9 12 6 5 0 1 0 0 0 0 0 0 0 0 0 0 0 0 0 0 0 0 0 0 0 0 0 0 0 0 1 21 0 174 126
4 2 6 3 8 9 9 6 0 4 1 7 14 9 8 4 2 0 0 0 0 0 0 0 0 0 0 0 0 0 0 0 0 0 0 0 0 0 0 0 0 0 0 10 0 0 0
4 2 5 10 11 13 8 0 1 1 7 10 9 8 2 2 1 0 0 0 0 0 0 0 0 0 0 0 0 0 0 0 0 0 0 0 0 0 0 0 0 0 0 17 8 0 0
3 2 4 8 14 6 3 2 3 6 8 8 7 6 2 0 0 0 0 0 0 0 0 0 0 0 0 0 0 0 0 0 0 0 0 0 0 0 0 0 0 0 0 0 0 0 0
5 3 3 11 8 7 2 2 4 5 5 6 6 2 1 1 0 0 0 0 0 0 0 0 0 0 0 0 0 0 0 0 0 0 0 0 0 0 0 0 0 19 0 0 0 0 0
6 3 6 9 3 4 2 2 2 1 3 4 2 1 0 0 0 0 0 0 0 0 0 0 0 0 0 0 0 0 0 0 0 0 0 0 0 0 0 2 0 10 0 0 0 0 0
5 4 3 6 1 1 1 1 2 0 1 0 0 0 0 0 0 0 0 0 0 3 0 0 0 0 0 0 0 0 0 0 0 0 0 0 0 0 1 7 0 4 0 0 0 0 0
4 6 4 4 0 1 1 2 2 0 0 0 0 0 0 0 0 0 0 0 18 0 0 0 0 0 0 0 0 0 0 0 0 0 16 0 0 0 0 2 1 0 3 0 0 0 0
4 5 6 6 0 1 1 1 1 1 0 0 0 0 0 0 0 0 1 41 6 0 0 0 0 0 0 0 0 0 0 0 0 0 0 10 1 0 0 0 0 0 6 3 0 0 5
3 2 5 4 0 1 0 0 0 1 0 0 68 11 0 0 0 0 5 0 6 0 0 1 10 0 8 1 4 10 0 0 0 0 0 0 0 0 0 0 0 0 0 0 0 0 0
0 1 3 3 2 1 0 0 0 0 0 0 8 51 0 0 0 1 21 2 0 0 0 5 14 10 0 7 6 11 0 0 0 0 0 0 0 0 0 0 0 0 0 0 0 0 1
0 1 3 4 1 0 0 0 0 0 0 0 0 41 0 0 0 0 0 0 0 0 0 0 0 3 2 15 23 16 4 0 0 0 0 0 0 0 0 0 0 0 0 0 1 5 0
0 0 2 4 1 1 0 0 0 0 0 0 0 0 0 0 6 0 0 0 0 0 0 0 0 0 0 1 12 4 0 0 0 0 0 0 0 0 0 0 0 0 0 0 0 0 19
0 0 1 2 2 1 0 0 0 0 0 0 0 0 0 0 0 0 0 0 0 0 0 0 0 0 0 0 2 0 0 0 0 0 0 0 0 0 0 0 0 0 0 0 0 1 28
0 0 1 1 3 2 0 0 0 0 0 0 0 0 0 0 0 0 0 0 0 0 0 0 0 0 0 1 2 0 0 0 0 0 0 2 11 0 0 0 0 0 0 0 0 0 1
0 0 0 1 2 2 0 0 0 0 0 0 0 0 0 0 0 0 0 0 0 0 0 0 0 0 0 0 0 0 0 0 0 0 0 0 2 0 0 0 0 0 0 0 0 0 0
0 0 0 1 2 2 0 0 0 0 0 0 0 0 0 0 0 0 0 0 0 0 0 0 0 0 0 0 0 0 0 0 0 0 0 0 0 0 0 0 0 0 0 0 0 0 0
0 0 0 1 2 2 0 0 0 0 0 0 0 0 0 0 0 0 0 0 0 0 0 0 0 0 0 0 0 0 0 0 0 0 0 0 0 0 0 0 0 0 0 0 0 0 0
0 0 0 0 1 2 1 0 0 0 0 0 0 0 0 0 0 0 0 0 0 0 0 0 0 0 0 0 0 1 1 0 0 0 0 0 0 0 0 0 0 0 0 0 0 0 0
0 0 0 0 1 2 2 0 0 0 0 0 0 0 0 0 0 0 0 0 0 0 0 0 0 0 0 5 3 14 16 16 3 0 0 0 0 0 0 1 0 0 0 0 0 0 0
0 0 0 0 0 1 0 1 0 0 0 0 0 0 0 0 0 0 0 0 0 0 0 0 0 0 0 1 18 19 15 1 4 3 1 6 9 10 5 7 1 0 0 0 0 0 0
0 0 0 0 0 1 1 1 0 0 0 0 0 0 0 0 0 0 0 0 0 0 0 0 0 0 0 0 1 7 10 8 1 0 0 4 12 20 15 21 12 0 0 0 0 0 0
0 0 0 0 0 0 1 1 0 0 0 0 0 0 0 0 0 0 0 0 0 0 0 0 0 0 0 0 0 0 8 1 5 10 0 6 1 26 7 18 0 0 0 0 0 0 0

GFSGBSN_con_sbcape_075.txt.gz
CAPE
2 3 2 2 3 4 3 4 2 1 1 1 1 2 3 4 4 4 2 2 3 2 3 2 1 0 0 0 0 0 0 0 0 0 0 0 0 0 1 33 582 758 426 287 46 2 19
0 1 4 4 4 3 1 2 2 3 4 5 2 1 2 3 4 4 4 2 1 3 2 2 0 0 0 0 0 0 0 0 0 0 0 0 0 0 0 0 245 612 533 223 69 4 0
4 4 4 2 2 1 3 4 4 5 3 6 6 4 2 2 2 2 1 2 3 3 1 2 0 0 0 0 0 0 0 0 0 0 0 0 0 0 0 0 0 171 449 171 18 0 4
5 3 1 2 3 6 8 9 8 7 6 5 6 2 2 3 3 3 4 3 0 1 3 2 0 0 0 0 0 0 0 0 0 0 0 0 0 0 0 0 0 45 212 338 118 9 135
2 2 2 3 6 7 8 9 9 6 6 8 7 6 3 2 6 1 1 0 0 0 0 0 0 0 0 0 0 0 0 0 0 0 0 0 0 0 0 0 0 0 132 158 143 35 155
3 2 4 2 7 12 13 9 5 2 3 6 9 8 2 3 7 3 0 0 0 0 0 0 0 0 0 0 0 0 0 0 0 0 0 0 0 0 0 0 0 0 21 118 177 112 211
3 4 2 3 7 14 12 4 1 2 7 11 10 10 7 7 1 1 0 0 0 0 0 0 0 0 0 0 0 0 0 0 0 0 0 0 0 0 0 0 0 1 2 49 109 145 187
4 4 1 4 13 6 2 5 2 6 7 10 10 8 8 3 1 0 0 0 0 0 0 0 0 0 0 0 0 0 0 0 0 0 0 0 0 0 0 0 0 0 4 85 51 157 177
1 4 5 9 5 3 4 2 2 6 7 9 9 5 1 2 0 0 0 0 0 0 0 0 0 0 0 0 0 0 0 0 0 0 0 0 0 0 0 0 0 0 17 132 55 0 58
4 8 6 7 4 2 1 1 3 4 4 5 2 3 1 0 0 0 0 0 0 0 0 0 0 0 0 0 0 0 0 0 0 0 0 0 0 0 0 0 0 3 0 63 44 10 10
5 6 6 6 4 2 0 1 3 2 3 2 1 3 0 0 0 0 0 0 0 0 8 0 0 0 0 0 0 0 0 0 0 0 0 0 0 0 0 0 0 9 0 6 73 4 51
4 5 5 6 3 1 0 1 4 1 1 1 2 1 0 0 0 0 0 0 0 0 28 0 0 0 0 0 0 0 0 0 0 0 0 0 0 0 0 0 1 25 31 4 9 16 8
3 2 3 2 2 0 0 1 2 0 1 1 0 0 0 0 0 0 0 0 20 81 0 0 0 0 0 0 1 0 0 0 0 0 0 0 1 0 0 1 26 73 58 16 18 9 14
1 2 5 4 0 0 0 1 1 1 0 0 0 0 4 0 0 0 0 27 140 7 25 0 0 6 10 9 7 5 1 0 0 1 62 0 0 0 0 9 60 69 53 23 5 4 9
0 0 2 1 0 0 0 0 0 0 0 0 0 9 73 2 0 0 76 167 114 22 0 0 0 55 48 25 31 37 26 32 11 1 0 61 26 4 0 34 102 58 44 16 87 57 53
0 0 1 3 0 0 0 0 0 0 0 0 26 94 18 0 0 25 245 9 26 0 0 17 71 68 69 56 51 36 79 1 1 0 0 0 8 0 0 0 1 1 25 76 77 65 79
0 0 0 2 0 0 0 0 0 0 0 0 8 163 10 0 5 204 112 92 18 0 5 84 61 90 34 68 53 65 54 0 0 0 0 0 14 1 0 0 0 0 0 27 95 41 118
0 0 0 2 0 0 0 0 0 0 0 0 5 159 5 0 168 39 87 0 0 27 9 7 4 0 1 2 59 42 70 1 0 0 0 0 0 11 0 0 0 0 7 1 43 32 13
0 0 0 2 0 0 0 0 0 0 0 0 0 0 0 2 218 13 0 0 0 0 12 9 15 20 20 0 37 4 1 0 0 1 0 0 0 30 1 0 0 0 0 0 14 43 106
0 0 0 2 0 0 0 0 0 0 0 0 0 3 0 0 4 0 0 0 0 0 0 2 21 41 63 25 12 29 0 0 0 3 0 1 1 9 1 8 0 0 0 0 1 13 35
0 0 0 2 2 0 0 0 0 0 0 0 0 0 0 0 0 0 0 0 0 0 0 0 0 22 125 148 54 35 39 8 0 2 17 21 0 0 0 0 1 7 0 0 0 0 76
0 0 0 0 1 0 0 0 0 0 0 0 0 0 0 0 0 0 0 0 0 0 0 0 0 0 0 149 108 109 70 78 71 28 46 35 7 0 0 0 0 0 0 0 0 0 2
0 0 0 0 0 1 0 0 0 0 0 0 0 0 0 0 0 0 0 0 0 0 0 0 0 0 0 0 0 0 8 8 29 47 39 50 66 57 28 0 0 0 0 0 0 0 7
0 0 0 0 0 1 0 0 0 0 0 0 0 0 0 0 0 0 0 0 0 0 0 0 0 2 0 0 0 0 0 0 0 0 0 20 51 97 67 57 7 0 0 0 0 0 1
0 0 0 0 0 1 1 0 0 0 0 0 0 0 0 0 0 0 0 0 0 0 0 0 0 0 0 0 9 1 0 0 0 0 0 0 9 45 37 109 34 0 0 0 0 0 0
0 0 0 0 0 0 1 0 0 0 0 0 0 15 0 0 0 0 0 0 0 0 0 0 0 0 0 11 8 107 81 55 25 0 0 0 1 10 7 32 61 34 0 0 0 0 0
0 0 0 0 0 0 1 1 0 0 0 0 0 2 34 3 0 0 4 1 0 0 1 0 0 0 0 4 30 61 56 3 18 18 12 2 4 7 32 34 66 0 0 0 0 0 0
0 0 0 0 0 0 1 0 0 0 0 0 0 0 20 1 0 0 0 0 0 0 4 0 0 0 0 0 6 70 20 8 0 12 7 43 79 62 40 72 192 0 0 0 0 0 0
0 0 0 0 0 0 0 0 0 0 0 0 3 0 0 0 17 0 0 0 0 0 1 0 2 0 0 1 0 8 6 7 4 38 0 10 25 203 54 123 23 0 0 1 0 0 0

GFSGBSN_con_sbcape_078.txt.gz
CAPE
2 3 6 4 6 2 1 1 1 1 1 1 2 1 1 1 3 5 4 3 2 3 2 1 1 0 0 0 0 0 0 0 0 0 0 0 0 0 0 115 605 456 562 378 147 961 679
3 4 5 1 1 2 2 1 1 2 2 1 2 3 1 1 1 1 1 2 2 2 2 1 0 0 0 0 0 0 0 0 0 0 0 0 0 0 0 48 584 583 280 242 106 47 140
5 4 1 2 1 1 1 4 1 4 1 2 1 4 2 1 2 2 1 2 1 2 0 2 1 0 0 0 0 0 0 0 0 0 0 0 0 0 0 0 66 221 699 317 106 24 104
2 2 2 2 5 9 7 8 10 9 2 2 3 6 7 1 1 4 3 3 0 1 3 5 0 0 0 0 0 0 0 0 0 0 0 0 0 0 0 0 0 42 202 330 133 19 87
5 4 2 2 6 6 11 5 1 1 4 6 5 6 4 1 2 5 0 0 0 6 0 1 0 0 0 0 0 0 0 0 0 0 0 0 0 0 0 0 0 1 120 109 51 14 200
5 4 5 3 9 10 8 4 4 6 7 8 6 2 4 2 1 1 0 0 0 0 0 0 0 0 0 0 0 0 0 0 0 0 0 0 0 0 0 0 0 0 18 124 153 65 162
2 3 6 4 9 4 6 4 4 4 4 8 7 9 6 4 1 1 0 0 0 0 0 0 0 0 0 0 0 0 0 0 0 0 0 0 0 0 0 0 0 0 0 12 255 120 105
1 5 4 6 3 1 1 1 4 4 5 10 7 7 6 4 1 0 0 0 0 0 0 0 0 0 0 0 0 0 0 0 0 0 0 0 0 0 0 0 0 0 1 1 11 90 584
0 2 5 7 4 2 2 2 3 4 5 3 4 5 3 0 0 0 0 0 0 0 0 0 0 0 0 0 0 0 0 0 0 0 0 0 0 0 0 0 0 0 0 24 135 6 174
2 4 6 5 4 0 1 1 3 3 1 1 2 1 1 0 0 0 0 0 0 0 0 0 0 0 0 0 0 0 0 0 0 0 0 0 0 0 0 0 0 0 0 23 59 51 77
4 5 4 4 2 1 0 0 2 1 1 0 3 1 1 0 0 0 0 0 0 0 13 0 0 0 0 0 0 0 0 0 0 0 0 0 0 0 0 0 0 0 0 0 36 47 0
2 3 2 3 3 0 0 0 1 1 1 1 0 0 0 0 0 0 0 0 0 0 24 0 0 0 0 0 0 2 0 0 0 0 0 0 0 0 0 0 2 0 6 0 6 17 0
3 2 2 3 1 0 0 0 0 0 0 0 0 0 0 0 0 0 0 0 63 40 29 0 0 0 0 0 2 14 0 0 0 0 0 0 0 0 0 0 0 0 28 3 0 14 13
3 0 0 1 1 0 0 0 0 0 0 0 0 0 0 0 0 0 0 113 127 103 3 0 3 0 1 14 12 14 2 0 0 0 15 17 0 0 0 0 0 9 41 53 3 0 0
3 0 0 0 0 0 0 0 0 0 0 0 0 0 0 102 21 0 101 276 26 5 0 6 0 25 17 25 20 11 24 22 0 0 20 18 19 1 0 0 0 36 76 67 58 12 27
3 0 0 0 0 0 0 0 0 0 0 0 0 25 137 0 0 90 142 84 67 0 0 41 111 40 50 8 32 27 36 41 18 10 0 0 4 11 0 0 0 1 16 65 33 7 68
0 0 0 0 0 0 0 0 0 0 0 0 0 52 50 0 0 64 213 69 33 0 0 46 143 68 24 41 65 88 18 1 0 0 0 0 2 3 8 0 0 5 20 2 14 59 111
0 0 0 0 0 0 0 0 0 0 0 0 7 106 4 0 157 122 66 0 0 26 0 0 1 20 78 93 54 38 1 0 0 0 0 0 0 21 5 0 0 2 3 0 74 71 30
0 0 0 0 0 0 0 0 0 0 0 0 30 0 0 3 118 208 0 0 0 17 9 4 17 0 0 15 94 45 0 0 0 1 12 0 0 28 6 5 0 0 0 0 7 45 287
1 0 0 0 1 1 0 0 0 0 0 0 8 10 0 0 0 9 0 0 0 0 0 6 23 3 0 0 0 50 2 0 0 0 0 0 0 29 0 0 0 0 0 0 0 6 12
0 0 0 0 0 1 0 0 0 0 0 0 2 0 0 0 0 0 0 0 0 1 0 0 0 5 15 115 0 0 12 0 0 0 0 0 0 0 2 0 0 0 0 0 0 0 129
0 0 0 0 0 0 0 0 0 0 0 0 0 0 0 0 0 0 0 0 0 0 0 0 0 0 0 161 19 112 108 19 0 0 0 0 7 7 0 0 0 0 0 6 0 0 39
0 0 0 0 0 1 0 0 0 0 0 0 0 0 4 0 0 0 0 0 0 0 0 0 0 0 0 2 0 13 7 72 23 68 31 9 11 17 10 0 0 0 0 0 0 0 377
1 0 0 0 0 0 1 0 0 0 0 0 0 42 124 0 0 0 0 0 0 0 0 0 0 0 0 0 0 0 0 0 0 2 12 29 218 48 47 1 0 0 0 0 0 20 221
1 0 0 0 0 0 0 0 0 0 0 0 0 39 69 2 0 0 0 0 0 0 0 0 0 0 0 0 1 0 0 0 0 0 0 0 3 56 84 1 7 1 0 0 0 30 68
1 0 0 0 0 0 0 0 0 0 0 0 0 3 158 22 2 0 0 0 21 1 0 0 0 0 0 4 20 85 227 204 43 2 0 0 0 55 68 55 47 37 0 0 0 38 1
2 1 0 0 0 0 0 0 0 0 0 0 0 8 250 99 0 0 19 17 0 0 12 0 0 0 0 90 61 418 384 17 167 56 18 0 0 8 61 94 179 1 0 0 0 6 0
1 1 0 0 0 0 0 0 0 0 0 0 1 0 55 219 4 0 0 0 0 1 58 0 0 0 0 0 19 493 29 68 1 34 139 38 178 212 36 157 318 0 0 0 2 0 0
1 2 0 0 0 0 0 0 0 0 0 0 2 0 0 2 43 0 0 0 0 0 5 0 0 0 2 4 0 49 1 5 4 101 0 60 35 501 160 377 178 1 1 0 0 0 0

GFSGBSN_con_sbcape_081.txt.gz
CAPE
5 3 2 1 2 4 2 1 1 1 4 3 1 0 1 1 1 3 1 3 3 2 2 3 2 0 0 0 0 0 0 0 0 0 0 0 0 0 0 1 403 203 69 376 565 434 595
4 2 1 2 2 2 3 1 2 1 1 2 1 2 2 1 3 2 1 1 2 3 4 2 3 0 0 0 0 0 0 0 0 0 0 0 0 0 0 0 370 106 34 26 404 348 335
4 4 2 1 1 2 4 6 4 5 2 2 4 6 3 1 1 1 1 3 3 3 0 1 4 0 0 0 0 0 0 0 0 0 0 0 0 0 0 0 30 427 17 52 248 593 465
8 5 2 1 9 5 7 2 1 2 4 6 7 7 1 2 1 1 3 1 0 2 1 2 2 0 0 0 0 0 0 0 0 0 0 0 0 0 0 0 0 167 85 106 140 90 737
7 5 3 1 3 6 4 3 3 8 8 2 0 2 2 1 1 1 1 0 0 0 4 1 0 0 0 0 0 0 0 0 0 0 0 0 0 0 0 0 0 0 3 109 137 136 561
4 4 5 5 6 6 2 2 4 5 1 1 5 4 5 1 1 1 0 0 0 0 0 0 0 0 0 0 0 0 0 0 0 0 0 0 0 0 0 0 0 0 0 0 16 7 593
4 3 4 5 4 4 2 3 4 6 1 2 4 3 2 5 3 0 0 0 0 0 0 0 0 0 0 0 0 0 0 0 0 0 0 0 0 0 0 0 0 0 0 0 128 146 50
3 1 4 5 5 3 2 3 3 3 2 1 0 0 0 4 0 0 0 0 0 0 0 0 0 0 0 0 0 0 0 0 0 0 0 0 0 0 0 0 0 0 0 0 175 476 246
3 3 5 5 4 2 2 2 3 0 0 0 0 0 0 1 0 0 0 0 0 0 0 0 0 0 0 0 0 0 0 0 0 0 0 0 0 0 0 0 0 0 0 0 96 71 277
3 0 3 4 4 1 0 0 1 2 0 1 3 0 0 0 0 0 0 0 0 0 0 0 0 0 0 0 0 0 0 0 0 0 0 0 0 0 0 0 0 0 0 0 97 68 80
2 1 0 2 3 2 1 1 0 1 1 0 2 2 1 0 0 0 0 0 0 0 0 0 0 0 0 0 0 0 0 0 0 0 0 0 0 0 0 0 0 0 0 1 62 28 45
0 1 0 1 2 1 0 0 0 0 1 1 2 0 0 0 0 0 0 0 0 0 11 13 0 0 0 0 0 0 0 0 0 0 0 0 0 0 0 0 0 0 0 0 2 3 4
0 1 0 0 0 0 0 0 0 0 0 0 0 0 0 0 0 0 0 0 4 24 28 29 0 0 0 0 0 0 0 0 0 0 0 0 0 0 0 0 0 0 0 0 0 25 5
2 0 0 0 0 0 0 0 0 0 0 0 0 0 0 0 0 0 0 112 155 11 0 47 29 0 0 0 0 8 0 0 0 0 0 0 0 0 0 0 0 0 0 0 0 0 0
3 0 0 0 0 0 0 0 0 0 0 0 0 0 0 0 0 0 10 17 90 0 0 1 6 9 0 0 3 3 0 0 0 0 0 1 0 0 0 0 0 0 0 0 1 0 0
4 1 0 0 0 0 0 0 0 0 0 0 0 0 0 3 0 4 4 140 36 0 0 2 48 4 4 9 10 8 32 2 15 0 0 0 0 0 0 0 0 0 1 0 0 24 28
4 1 0 0 0 0 0 0 0 0 0 0 0 0 8 0 0 7 73 97 41 0 0 2 0 17 14 0 25 65 27 0 0 0 0 0 0 1 1 0 0 1 0 6 0 0 0
2 1 0 0 0 0 0 0 0 0 0 0 0 25 80 0 3 65 1 0 0 0 0 0 0 12 3 5 21 22 21 1 0 0 0 0 0 0 0 0 0 0 20 22 0 0 1
2 0 0 0 0 0 0 0 0 0 0 0 0 8 0 0 119 69 0 0 0 0 0 4 0 0 0 1 59 34 7 0 0 0 0 0 0 0 0 7 0 0 0 0 0 0 10
2 1 0 0 0 0 0 0 0 0 0 0 0 8 2 0 0 0 0 0 0 0 0 0 2 2 0 0 0 1 0 0 0 0 0 0 0 0 0 0 0 0 0 0 0 0 120
4 2 0 0 0 0 0 0 0 0 0 0 0 0 0 0 0 0 0 0 0 0 0 0 0 15 35 1 78 0 12 0 0 0 0 0 0 0 0 0 0 0 0 0 0 0 178
3 2 0 0 0 0 0 0 0 0 0 24 0 0 0 0 0 17 0 0 0 0 0 0 0 0 98 0 5 82 11 2 0 0 0 0 15 0 0 0 0 0 0 0 0 217 295
3 1 0 0 0 0 0 0 0 0 0 28 0 2 92 33 0 0 0 0 0 0 0 0 0 0 15 3 3 24 0 0 13 12 3 13 18 0 0 0 0 0 0 0 129 277 196
2 2 0 0 0 0 0 0 0 0 0 0 4 0 161 122 0 0 0 0 0 0 0 0 0 0 0 0 0 0 0 0 0 0 0 0 13 0 0 0 0 0 0 0 0 128 47
1 2 0 0 0 0 0 0 0 0 0 0 0 2 317 181 0 0 0 0 0 0 0 0 0 0 0 0 0 0 0 0 0 0 0 0 0 0 0 0 0 0 0 0 0 22 198
2 3 1 0 0 0 0 0 1 0 0 0 0 60 92 288 0 0 0 0 0 0 0 0 0 0 0 0 26 54 34 17 79 1 0 0 0 0 5 19 0 0 0 0 0 0 166
1 3 2 0 0 0 0 0 0 0 0 0 0 103 94 293 0 0 0 8 0 0 5 0 0 0 0 6 89 150 137 47 12 68 65 0 0 0 0 29 32 0 0 0 0 16 7
0 1 2 0 0 0 0 0 0 0 0 0 0 3 0 72 64 0 0 0 0 9 16 0 0 4 0 0 134 331 81 160 0 0 0 0 1 20 0 3 14 0 0 0 0 0 0
0 2 1 0 0 0 0 0 0 0 0 0 0 72 12 0 29 0 0 0 0 0 0 0 0 0 0 0 0 74 9 0 0 7 0 0 18 0 57 32 0 0 0 3 0 0 0

GFSGBSN_con_sbcape_084.txt.gz
CAPE
3 4 1 1 1 1 1 1 1 1 2 3 2 2 3 3 4 3 0 1 0 1 3 5 4 1 0 0 0 0 46 0 0 0 0 0 0 0 0 0 260 207 160 500 272 247 321
1 1 2 2 2 1 2 7 7 5 4 5 7 8 1 0 1 1 1 1 0 1 5 0 0 0 0 0 0 0 0 0 0 0 0 0 0 0 0 0 281 252 51 604 395 454 773
2 1 0 1 6 5 3 4 4 5 6 5 4 1 2 1 1 1 0 0 1 5 4 0 0 0 0 0 0 0 0 0 0 0 0 0 0 0 0 0 0 49 43 180 316 473 526
1 5 2 4 10 6 4 3 4 5 3 1 2 1 4 2 1 1 0 1 2 3 0 0 0 0 0 0 0 0 0 0 0 0 0 0 0 0 0 0 9 184 11 1 228 487 402
3 5 6 3 7 4 3 2 3 5 2 2 1 5 5 4 1 0 1 0 0 0 0 2 0 0 0 0 0 0 0 0 0 0 0 0 0 0 0 0 0 36 84 58 274 622 565
2 3 5 2 3 4 2 3 5 7 0 1 0 3 1 1 0 1 0 0 0 0 0 0 0 0 0 0 0 0 0 0 0 0 0 0 0 0 0 0 0 0 0 14 235 620 614
3 2 3 3 3 2 3 3 5 4 1 0 1 1 0 0 2 0 0 0 0 0 0 0 0 0 0 0 0 0 0 0 0 0 0 0 0 0 0 0 0 0 0 0 158 365 123
6 2 1 1 1 2 2 3 4 5 1 1 1 1 1 0 3 0 0 0 0 0 0 0 0 0 0 0 0 0 0 0 0 0 0 0 0 0 0 0 0 0 0 0 457 237 77
0 5 1 0 1 2 2 1 3 4 4 0 2 3 1 0 0 0 0 0 0 0 0 0 0 0 0 0 0 0 0 0 0 0 0 0 0 0 0 0 0 0 0 0 136 280 101
0 3 1 0 0 0 0 0 1 2 2 1 4 2 1 1 0 0 0 0 0 0 0 0 0 0 0 0 0 0 0 0 0 0 0 0 0 0 0 0 0 0 0 0 165 57 44
3 0 1 0 0 1 0 0 0 1 3 1 2 2 0 0 0 0 0 0 0 0 0 0 0 0 0 0 0 0 0 0 0 0 0 0 0 0 0 0 0 0 0 0 26 41 173
2 0 1 0 0 0 0 0 0 0 1 3 2 0 0 0 0 0 0 0 0 0 0 1 0 0 0 0 0 0 0 0 0 0 0 0 0 0 0 0 0 0 0 30 16 13 16
3 1 0 0 0 0 0 0 0 0 0 0 0 0 0 0 0 0 0 0 24 47 49 82 8 0 0 0 0 0 0 0 0 0 0 0 0 0 0 0 0 0 0 0 0 4 7
3 1 0 0 0 0 0 0 0 0 0 0 0 0 0 0 0 0 0 0 0 6 2 15 1 0 0 0 0 0 0 0 0 0 0 0 0 0 0 0 0 0 0 0 0 0 0
2 1 1 0 0 0 0 0 0 0 0 0 0 0 0 0 0 0 0 0 0 0 0 0 0 0 0 0 0 0 0 0 0 0 0 0 0 0 0 0 0 0 0 0 0 0 0
2 1 2 0 0 0 0 0 0 0 0 0 0 0 0 0 0 0 0 9 4 0 2 0 0 0 2 3 5 1 0 0 0 0 0 0 0 0 0 0 0 0 0 0 0 0 0
3 1 1 0 0 0 0 0 0 0 0 0 0 0 0 0 0 0 0 0 4 0 0 0 0 0 0 3 0 5 0 0 0 0 0 0 0 0 0 0 0 0 0 0 0 0 0
3 2 0 0 0 0 0 0 0 0 0 0 0 0 0 0 0 0 0 0 0 0 0 0 0 0 1 1 0 0 0 0 0 0 0 0 0 0 0 0 0 0 0 0 3 1 15
0 2 1 0 0 0 0 0 0 0 0 0 0 0 0 0 0 0 0 0 0 0 0 0 0 0 0 0 1 0 0 0 0 0 0 0 0 0 0 0 0 0 0 0 0 0 12
2 4 3 0 0 0 0 0 0 0 0 0 0 0 0 0 0 0 0 0 0 0 0 0 0 0 0 0 0 0 0 0 0 0 0 0 0 0 0 0 0 0 0 0 0 0 6
2 5 3 0 0 0 0 0 0 0 0 0 0 0 0 0 0 0 0 0 0 0 0 0 0 0 0 0 0 0 0 0 0 0 0 0 0 0 0 0 0 0 0 0 0 0 7
1 2 2 0 0 0 0 0 0 0 0 0 0 0 0 0 0 0 0 0 0 0 0 0 0 0 0 0 0 0 0 0 0 0 0 0 0 0 0 0 0 0 0 0 26 197 14
2 1 2 0 0 0 0 0 0 0 0 0 0 0 0 0 0 0 0 0 0 0 0 0 0 0 0 0 0 0 0 0 0 0 0 0 0 0 0 0 0 0 0 0 20 230 8
2 3 5 0 0 0 0 0 0 0 0 0 0 0 0 23 0 0 0 0 0 0 0 0 0 0 0 0 0 0 0 0 0 0 0 0 0 0 0 0 0 0 0 0 28 15 0
1 4 5 1 0 0 0 0 0 0 0 0 0 0 0 17 0 0 0 0 0 0 0 0 0 0 0 0 0 0 0 0 0 0 0 0 0 0 0 0 0 0 0 0 0 0 0
2 0 1 3 0 0 0 0 0 0 0 0 0 0 0 19 0 0 0 0 0 0 0 0 0 0 0 0 0 0 0 0 0 0 0 0 0 0 0 0 0 0 0 0 0 0 0
2 0 0 4 0 0 0 0 0 0 0 0 0 0 0 0 0 0 0 0 0 0 0 0 0 0 0 0 0 0 0 0 0 0 0 0 0 0 0 0 0 0 0 0 0 0 0
0 0 0 3 0 0 0 0 0 0 0 0 0 0 0 0 0 0 0 0 0 0 0 0 0 0 0 0 2 0 0 0 0 0 0 0 0 0 0 0 0 0 0 0 0 0 0
0 1 1 2 0 0 0 0 0 0 0 0 0 0 0 0 0 0 0 0 0 0 0 0 0 0 0 0 0 0 0 0 0 0 0 0 0 0 0 0 0 0 0 0 0 0 0

GFSGBSN_con_sbcape_087.txt.gz
CAPE
1 0 1 1 2 1 4 3 7 6 5 5 1 3 1 1 2 6 2 1 0 0 0 0 2 2 0 0 0 0 98 0 0 0 0 0 0 0 0 0 158 81 308 554 52 63 246
0 4 1 3 3 4 5 6 2 1 1 1 1 2 2 0 1 1 1 3 2 0 1 0 0 2 0 0 0 0 0 0 0 0 0 0 0 0 0 0 186 104 438 335 297 79 550
2 3 3 4 5 5 4 5 1 0 1 1 2 2 1 1 1 0 1 1 1 0 0 0 1 0 0 0 0 0 0 0 0 0 0 0 0 0 0 0 0 235 253 144 392 525 451
6 6 5 4 2 4 2 4 2 1 3 2 3 3 6 3 1 1 1 1 2 3 0 0 0 0 0 0 0 0 0 0 0 0 0 0 0 0 0 0 0 98 176 118 207 477 461
7 5 5 3 1 2 1 2 3 0 3 4 4 2 1 2 1 1 1 0 1 1 0 0 0 0 0 0 0 0 0 0 0 0 0 0 0 0 0 0 0 0 21 21 450 467 419
2 3 3 4 3 3 1 2 3 0 1 2 3 2 1 3 1 1 0 0 0 0 0 0 0 0 0 0 0 0 0 0 0 0 0 0 0 0 0 0 0 0 0 52 315 538 310
0 5 2 2 3 2 1 2 2 2 1 1 3 1 1 2 1 1 0 0 0 0 0 0 0 0 0 0 0 0 0 0 0 0 0 0 0 0 0 0 0 0 0 0 168 548 384
0 3 4 0 1 1 1 1 1 2 1 3 2 1 2 0 0 0 0 0 0 0 0 0 0 0 0 0 0 0 0 0 0 0 0 0 0 0 0 0 0 0 0 1 292 166 204
5 0 4 1 0 1 3 2 1 1 2 2 1 0 0 0 0 0 0 0 0 0 0 0 0 0 0 0 0 0 0 0 0 0 0 0 0 0 0 0 0 0 0 0 175 100 35
5 1 2 1 0 0 2 1 1 0 2 1 0 1 2 1 0 0 0 0 0 0 0 0 0 0 0 0 0 0 0 0 0 0 0 0 0 0 0 0 0 0 0 0 302 82 124
3 2 1 2 0 0 1 1 0 0 1 1 3 2 0 0 0 0 0 0 0 0 0 0 0 0 0 0 0 0 0 0 0 0 0 0 0 0 0 0 0 0 0 0 201 8 55
3 4 0 4 0 0 0 0 0 0 0 0 1 1 0 0 0 0 0 0 0 0 8 0 0 0 0 0 0 0 0 0 0 0 0 0 0 0 0 0 0 0 0 0 0 0 44
3 2 1 3 0 0 0 0 0 0 0 0 0 0 0 0 0 0 0 0 0 0 0 16 0 1 0 0 0 0 0 0 0 0 0 0 0 0 0 0 0 0 0 0 35 23 24
2 3 2 2 0 0 0 0 0 0 0 0 0 0 0 0 0 0 0 0 0 0 0 0 0 0 0 0 0 0 0 0 0 0 0 0 0 0 0 0 0 0 0 0 2 0 0
3 2 2 1 0 0 0 0 0 0 0 0 0 0 0 0 0 0 0 0 0 0 0 0 0 0 0 0 0 0 0 0 0 0 0 0 0 0 0 0 0 0 0 0 0 0 0
4 4 3 0 0 0 0 0 0 0 0 0 0 0 0 0 0 0 0 0 0 0 0 0 0 0 1 0 0 0 0 0 0 0 0 0 0 0 0 0 0 0 0 0 0 0 0
2 1 2 1 0 0 0 0 0 0 0 0 0 0 0 0 0 0 0 0 0 0 0 0 0 1 0 0 1 0 0 0 0 0 0 0 0 0 0 0 0 0 0 0 0 0 0
3 0 1 1 0 0 0 0 0 0 0 0 0 0 0 0 0 0 0 0 0 0 0 0 0 0 0 0 5 0 0 0 0 0 0 0 0 0 0 0 0 0 0 0 0 0 0
2 1 3 1 0 0 0 0 0 0 0 0 0 0 0 0 0 0 0 0 0 0 0 0 0 0 0 0 2 0 0 0 0 0 0 0 0 0 0 0 0 0 0 0 0 0 0
2 0 4 2 0 0 0 0 0 0 0 0 0 0 0 0 0 0 0 0 0 0 0 0 0 0 0 0 0 0 0 0 0 0 0 0 0 0 0 0 0 0 0 0 0 0 0
4 2 4 2 0 0 0 0 0 0 0 0 0 0 0 0 0 0 0 0 0 0 0 0 0 0 0 0 0 0 0 0 0 0 0 0 0 0 0 0 0 0 0 0 0 0 0
2 2 3 2 0 0 0 0 0 0 0 0 0 0 0 0 0 0 0 0 0 0 0 0 0 0 0 0 0 0 0 0 0 0 0 0 0 0 0 0 0 0 0 0 0 0 0
2 2 4 4 0 0 0 0 0 0 0 0 0 0 0 0 0 0 0 0 0 0 0 0 0 0 0 0 0 0 0 0 0 0 0 0 0 0 0 0 4 0 0 0 0 0 0
4 2 3 7 1 0 0 0 0 0 0 0 0 0 0 0 0 0 0 0 0 0 0 0 0 0 0 0 0 0 0 0 0 0 0 0 0 0 0 0 0 0 0 0 0 0 0
4 3 1 0 4 0 0 0 0 0 0 0 0 0 0 0 0 0 0 0 0 0 0 0 0 0 0 0 0 0 0 0 0 0 0 0 0 0 0 0 0 0 0 0 0 0 0
7 3 1 0 7 0 0 0 0 0 0 0 0 0 0 0 0 0 0 0 0 0 0 0 0 0 0 0 0 0 0 0 0 0 0 0 0 0 0 0 0 0 0 0 0 0 0
6 3 0 0 6 0 0 0 0 0 0 0 0 0 0 0 0 0 0 0 0 0 0 0 0 0 0 0 0 0 0 0 0 0 0 0 0 0 0 0 0 0 0 0 0 0 0
3 5 1 0 4 0 0 0 0 0 0 0 0 0 0 0 0 0 0 0 0 0 0 0 0 0 0 0 0 0 0 0 0 0 0 0 0 0 0 0 0 0 0 0 0 0 0
4 5 2 0 3 0 0 0 0 0 0 0 0 0 0 0 0 0 0 0 0 0 0 0 0 0 0 0 0 0 0 0 0 0 0 0 0 0 0 0 0 0 0 0 0 0 0

GFSGBSN_con_sbcape_090.txt.gz
CAPE
3 3 4 3 3 2 4 0 2 1 2 1 1 2 1 1 2 4 4 0 0 0 0 1 1 2 0 0 0 0 168 0 0 0 0 0 0 0 0 0 37 1 291 111 151 98 156
3 1 2 2 3 3 4 4 1 0 1 1 1 1 1 1 1 1 1 0 0 0 0 1 2 1 0 0 0 0 0 0 0 0 0 0 0 0 0 0 52 124 268 157 167 279 343
5 4 4 5 2 0 3 4 2 0 1 4 4 1 4 1 2 1 1 0 0 0 0 0 2 0 0 0 0 0 0 0 0 0 0 0 0 0 0 0 0 62 216 363 145 249 382
2 3 5 3 2 4 4 4 0 1 1 2 2 2 2 0 3 3 0 1 4 1 0 0 1 0 0 0 0 0 0 0 0 0 0 0 0 0 0 0 0 137 85 150 395 418 343
0 5 5 4 3 4 4 3 0 1 0 1 3 2 1 1 1 0 1 2 2 1 0 1 0 0 0 0 0 0 0 0 0 0 0 0 0 0 0 0 0 0 1 27 329 424 415
0 0 4 3 2 3 4 4 1 0 1 2 1 0 1 1 0 0 2 0 0 0 0 0 0 0 0 0 0 0 0 0 0 0 0 0 0 0 0 0 0 0 0 0 188 139 456
6 0 1 5 1 2 3 3 2 2 0 1 2 0 1 1 0 0 0 0 0 0 0 0 0 0 0 0 0 0 0 0 0 0 0 0 0 0 0 0 0 0 0 0 139 281 468
10 6 0 5 4 2 2 2 1 2 2 1 0 0 0 0 0 0 0 0 0 0 0 0 0 0 0 0 0 0 0 0 0 0 0 0 0 0 0 0 0 0 0 118 266 575 152
8 7 0 5 4 0 1 2 1 2 2 1 1 0 0 0 0 0 0 0 0 0 0 0 0 0 0 0 0 0 0 0 0 0 0 0 0 0 0 0 0 0 0 0 139 125 130
3 3 2 1 4 0 0 1 1 1 1 2 3 0 1 1 0 0 0 0 0 0 0 0 0 0 0 0 0 0 0 0 0 0 0 0 0 0 0 0 0 0 0 0 269 143 64
2 3 3 0 5 0 0 0 1 1 1 2 2 4 0 0 0 0 0 0 0 0 0 0 0 0 0 0 0 0 0 0 0 0 0 0 0 0 0 0 0 0 0 0 180 30 73
0 4 4 0 6 0 0 0 0 0 1 2 2 2 0 0 0 0 0 0 0 0 0 0 0 0 0 0 0 0 0 0 0 0 0 0 0 0 0 0 0 0 0 0 0 0 32
3 4 5 0 2 0 0 0 0 0 0 0 0 0 0 0 0 0 0 0 0 0 0 0 0 0 0 0 0 0 0 0 0 0 0 0 0 0 0 0 0 0 0 0 0 3 0
2 2 3 1 0 0 0 0 0 0 0 0 0 0 0 0 0 0 0 0 0 0 0 0 0 0 0 0 0 0 0 0 0 0 0 0 0 0 0 0 0 0 0 0 0 0 3
2 3 4 1 0 0 0 0 0 0 0 0 0 0 0 0 0 0 0 0 0 0 0 0 0 0 0 0 0 0 0 0 0 0 0 0 0 0 0 0 0 0 0 0 0 0 0
3 3 4 2 1 0 0 0 0 0 0 0 0 0 0 0 0 0 0 0 0 0 0 0 0 0 0 0 0 0 0 0 0 0 0 0 0 0 0 0 0 0 0 0 0 0 0
0 1 1 2 1 0 0 0 0 0 0 0 0 0 0 0 0 0 0 0 0 0 0 0 0 0 0 10 0 0 0 0 0 0 0 0 0 0 0 0 0 0 0 0 0 0 0
0 1 1 2 0 0 0 0 0 0 0 0 0 0 0 0 0 0 0 0 0 0 0 0 0 0 0 0 0 0 0 0 0 0 0 0 0 0 0 0 0 0 0 0 0 0 0
0 0 1 1 0 0 0 0 0 0 0 0 0 0 0 0 0 0 0 0 0 0 0 0 0 0 0 0 0 0 0 0 0 0 0 0 0 0 0 0 0 0 0 0 0 0 0
2 1 4 4 2 0 0 0 0 0 0 0 0 0 0 0 0 0 0 0 0 0 0 0 0 0 0 0 0 0 0 0 0 0 0 0 0 0 0 0 0 0 0 0 0 0 0
2 2 2 5 3 0 0 0 0 0 0 0 0 0 0 0 0 0 0 0 0 0 0 0 0 0 0 0 0 0 0 0 0 0 0 0 0 0 0 0 0 0 0 0 0 0 0
3 2 2 3 4 0 0 0 0 0 0 0 0 0 0 0 0 0 0 0 0 0 0 0 0 0 0 0 0 0 0 0 0 0 0 0 0 0 0 0 0 0 0 0 7 0 0
4 2 1 3 5 1 0 0 0 0 0 0 0 0 0 0 0 0 0 0 0 0 0 0 0 0 0 0 0 0 0 0 0 0 0 0 0 0 0 0 2 0 0 0 0 0 0
7 3 2 3 4 4 0 0 0 0 0 0 0 0 0 0 0 0 0 0 0 0 0 0 0 0 0 0 0 0 0 0 0 0 0 0 0 0 0 0 0 0 0 0 0 0 0
7 5 2 2 2 6 0 0 0 0 0 0 0 0 0 0 0 0 0 0 0 0 0 0 0 0 0 0 0 0 0 0 0 0 0 0 0 0 0 0 0 0 0 0 0 0 0
5 6 1 3 1 8 0 0 0 0 0 0 0 0 0 0 0 0 0 0 0 0 0 0 0 0 0 0 0 0 0 0 0 0 0 0 0 0 0 0 0 0 0 0 0 0 0
3 4 3 2 2 9 0 0 0 0 0 0 0 0 0 0 0 0 0 0 0 0 0 0 0 0 0 0 0 0 0 0 0 0 0 0 0 0 0 0 0 0 0 0 0 0 0
2 1 2 1 0 8 0 0 0 0 0 0 0 0 0 0 0 0 0 0 0 0 0 0 0 0 0 0 0 0 0 0 0 0 0 0 0 0 0 0 0 0 0 0 0 0 0
4 2 2 0 0 7 0 0 0 0 0 0 0 0 0 0 0 0 0 0 0 0 0 0 0 0 0 0 0 0 0 0 0 0 0 0 0 0 0 0 0 0 0 0 0 0 0

GFSGBSN_con_sbcape_093.txt.gz
CAPE
2 3 3 2 2 3 1 1 1 0 1 0 1 2 0 1 2 1 1 0 1 1 0 0 2 0 0 0 0 0 0 0 0 0 0 0 0 0 0 0 11 50 305 106 137 261 135
1 3 3 1 3 5 3 1 1 1 0 1 1 0 1 1 0 1 2 1 1 0 0 2 1 0 0 0 0 0 0 0 0 0 0 0 0 0 0 0 33 194 363 205 227 260 146
0 3 5 4 3 3 0 1 0 0 1 2 1 1 0 1 4 1 0 2 1 2 0 0 0 0 0 0 0 0 0 0 0 0 0 0 0 0 0 0 0 398 359 348 309 319 217
0 1 1 6 2 2 0 0 0 0 5 0 0 1 1 2 0 1 2 1 0 0 0 1 0 0 0 0 0 0 0 0 0 0 0 0 0 0 0 0 14 291 413 384 315 273 210
7 0 0 5 2 2 2 1 1 1 1 3 3 0 0 0 1 2 1 2 1 0 1 1 0 0 0 0 0 0 0 0 0 0 0 0 0 0 0 0 93 11 318 251 322 318 257
12 6 0 2 3 1 2 3 3 1 3 1 0 1 2 1 0 0 0 0 0 1 0 0 0 0 0 0 0 0 0 0 0 0 0 0 0 0 0 0 0 98 95 197 343 379 321
11 9 2 2 4 1 1 1 2 3 1 3 2 0 0 0 0 0 0 0 0 0 0 0 0 0 0 0 0 0 0 0 0 0 0 0 0 0 0 0 0 52 33 0 68 330 303
8 8 5 0 5 2 0 0 1 2 3 2 2 0 0 2 0 0 0 0 0 0 0 0 0 0 0 0 0 0 0 0 0 0 0 0 0 0 0 0 0 0 0 1 411 369 252
1 4 5 0 0 2 0 0 1 2 2 2 3 0 0 0 0 0 0 0 0 0 0 0 0 0 0 0 0 0 0 0 0 0 0 0 0 0 0 0 0 0 0 343 250 181 23
2 0 4 3 0 3 0 0 0 1 1 1 2 0 0 0 0 0 0 0 0 0 0 0 0 0 0 0 0 0 0 0 0 0 0 0 0 0 0 0 0 0 0 1 466 251 173
1 2 4 2 0 1 0 0 0 0 1 1 2 1 0 1 0 0 0 0 0 0 0 0 0 0 0 0 0 0 0 0 0 0 0 0 0 0 0 0 0 0 0 0 383 181 242
2 4 5 3 1 1 0 0 0 0 0 1 3 0 0 0 0 0 0 0 0 0 0 0 0 0 0 0 0 0 0 0 0 0 0 0 0 0 0 0 0 0 0 0 90 127 17
4 4 4 1 1 0 0 0 0 0 0 0 0 0 0 0 0 0 0 0 0 0 0 0 0 0 0 0 0 0 0 0 0 0 0 0 0 0 0 0 0 0 0 0 1 15 0
4 3 1 1 1 0 0 0 0 0 0 0 0 0 0 0 0 0 0 0 0 0 0 0 0 0 0 0 0 0 0 0 0 0 0 0 0 0 0 0 0 0 0 0 0 5 0
3 2 3 2 1 0 0 0 0 0 0 0 0 0 0 0 0 0 0 0 0 0 0 0 0 1 0 0 0 0 0 0 0 0 0 0 0 0 0 0 0 0 0 0 0 0 0
3 4 2 1 1 0 0 0 0 0 1 0 0 0 0 0 0 0 0 0 0 0 0 0 8 0 33 1 15 7 0 0 0 0 0 0 0 0 0 0 0 0 0 0 0 6 6
1 3 1 2 1 0 0 0 0 0 1 0 0 0 0 0 0 0 0 0 0 0 0 0 0 28 10 88 32 40 0 0 0 0 0 0 0 0 0 0 0 0 0 0 0 0 3
0 2 1 3 1 1 0 0 0 0 0 0 0 0 0 0 0 0 0 0 0 0 0 0 0 2 10 6 85 0 0 0 0 0 0 0 0 0 0 0 0 0 0 0 0 0 22
0 2 2 4 2 2 0 0 0 0 0 0 0 0 0 0 0 0 0 0 0 0 0 0 0 0 0 0 163 14 0 0 0 0 0 0 0 0 0 0 0 0 0 0 0 8 57
3 4 3 4 2 2 0 0 0 0 0 0 0 0 0 0 0 0 0 0 0 0 0 0 0 0 0 4 0 16 1 0 0 0 0 0 0 13 10 0 0 0 0 0 0 0 32
4 3 3 5 4 4 0 0 0 0 0 0 0 0 0 0 0 0 0 0 0 0 0 0 6 0 0 40 0 1 0 0 0 0 0 1 0 0 0 0 0 0 21 38 0 0 0
6 5 4 5 6 5 0 0 0 0 0 0 0 0 0 0 0 0 0 0 0 0 0 3 0 0 0 40 0 0 0 0 0 0 0 0 6 0 0 0 0 0 3 156 78 32 23
5 6 5 3 6 7 2 0 0 0 0 0 0 0 0 0 0 0 0 0 0 0 0 0 0 0 0 0 0 0 0 0 0 0 0 0 0 1 6 0 21 21 0 0 0 27 40
1 5 5 3 2 6 2 0 0 0 0 0 0 0 0 0 0 0 0 0 0 0 0 0 0 0 0 0 0 0 0 0 0 0 0 0 0 0 0 28 23 0 0 0 0 3 3
0 3 6 3 3 4 6 0 0 0 0 0 0 0 0 0 0 0 0 0 0 0 0 0 0 0 0 0 0 0 0 0 0 0 0 0 0 0 5 1 0 0 0 0 0 0 5
3 6 4 5 1 5 8 0 0 0 0 0 0 0 0 0 0 0 0 0 0 0 0 0 0 0 0 0 0 0 1 0 0 0 0 0 0 0 0 0 0 0 0 0 0 0 11
5 6 1 5 4 3 7 0 0 0 0 0 0 0 0 0 0 0 0 0 0 0 0 0 0 0 0 0 1 82 83 0 32 0 0 0 0 0 0 0 0 0 0 0 0 0 0
6 6 0 0 0 2 7 0 0 0 0 0 0 0 0 0 0 0 0 0 0 0 0 0 0 0 0 3 1 3 99 0 0 0 1 0 0 0 0 0 0 0 0 0 0 0 0
6 6 2 3 0 1 6 0 0 0 0 0 0 0 0 0 0 0 0 0 0 0 0 0 0 0 0 0 0 0 0 0 0 0 0 18 0 190 0 0 0 0 0 0 0 0 0

GFSGBSN_con_sbcape_099.txt.gz
CAPE
2 2 2 3 1 1 0 2 2 1 3 1 2 1 2 2 1 1 1 2 1 2 1 1 0 0 0 0 0 0 0 0 0 0 0 0 0 0 399 651 393 388 463 431 383 390 537
1 2 1 2 0 0 0 0 2 2 1 4 2 3 2 1 1 2 2 2 1 0 0 0 0 0 0 0 0 0 0 0 0 0 0 0 0 0 107 610 479 516 528 385 459 630 650
7 1 2 1 3 0 0 0 0 0 2 3 1 1 2 1 2 2 1 0 0 0 1 1 0 0 0 0 0 0 0 0 0 0 0 0 0 0 289 343 119 555 442 401 451 544 187
10 7 1 1 3 1 0 0 0 0 0 0 2 2 2 1 2 1 2 0 0 0 1 0 0 0 0 0 0 0 0 0 0 0 0 0 0 0 213 0 379 1004 409 367 435 441 296
8 8 3 2 1 2 0 0 0 0 0 0 0 0 1 2 2 2 1 0 0 1 0 0 0 0 0 0 0 0 0 0 0 0 0 0 0 8 63 45 412 821 327 414 456 403 255
4 8 9 1 1 0 0 0 0 0 0 0 1 2 1 1 2 0 0 0 0 0 0 0 0 0 0 0 0 0 0 0 0 0 0 0 0 34 52 90 398 325 88 557 695 456 267
8 4 4 5 2 0 0 0 0 0 0 0 0 1 2 2 2 0 0 0 0 0 0 0 0 0 0 0 0 0 0 0 0 0 0 0 0 3 51 50 30 33 4 3 574 97 29
7 3 1 4 3 0 0 0 0 0 0 0 0 3 2 1 2 0 0 0 0 0 0 0 0 0 0 0 0 0 0 0 0 0 0 0 0 0 84 50 16 107 113 52 109 167 14
8 2 2 5 2 0 0 0 0 0 0 0 0 2 1 2 0 0 0 0 0 0 0 0 0 0 0 0 0 0 0 0 0 0 0 0 0 0 36 43 0 31 219 12 11 210 10
3 1 2 4 3 1 0 0 0 0 0 0 1 2 1 0 0 0 0 0 0 0 6 0 1 0 0 0 0 0 0 0 0 0 0 0 0 0 83 32 0 22 124 27 32 402 546
4 6 5 3 2 2 0 0 0 0 0 0 1 1 0 1 0 0 0 0 0 0 18 0 3 0 0 0 0 0 0 0 0 0 0 0 0 0 0 0 17 2 1 370 242 247 282
5 5 4 6 4 1 0 0 0 0 0 0 1 1 0 0 0 0 0 0 0 1 8 20 2 7 0 0 0 0 0 0 0 0 0 0 0 0 0 0 20 39 0 22 338 385 141
7 4 3 3 2 1 0 0 0 0 0 0 0 0 0 0 0 0 0 0 36 50 0 21 26 5 12 16 23 0 0 0 0 0 0 0 0 0 0 0 5 53 5 64 100 149 165
5 1 1 0 0 1 0 0 0 0 0 1 0 0 0 0 0 0 0 40 86 0 24 0 2 6 2 28 27 4 1 0 0 0 6 0 0 0 0 1 0 12 42 99 119 86 101
3 3 0 0 0 1 0 0 0 0 0 0 0 0 0 0 0 0 3 142 63 9 0 0 33 30 30 2 0 37 42 15 5 4 3 5 0 0 0 0 1 0 77 79 20 60 23
4 4 0 0 1 1 0 0 0 0 0 0 0 0 0 0 0 0 53 0 8 0 0 0 57 86 76 26 0 46 56 37 38 10 1 46 39 5 0 0 0 0 20 113 85 101 68
6 4 0 0 1 1 1 0 0 0 0 0 0 0 0 0 0 3 86 37 0 0 0 0 27 67 123 22 54 46 26 53 33 45 22 40 38 24 0 0 0 0 0 34 93 88 89
3 3 3 0 0 2 3 0 0 0 0 0 0 11 0 0 4 25 77 0 0 0 0 0 0 50 133 66 111 71 26 13 0 8 19 14 43 19 5 0 0 0 0 0 26 105 69
8 2 3 3 0 1 2 0 0 0 0 0 0 48 0 0 56 57 7 0 0 0 0 0 55 61 172 161 218 148 6 1 0 4 78 62 31 66 42 20 0 0 0 0 4 19 78
11 10 6 3 4 4 2 0 0 0 0 0 0 5 0 0 11 0 1 5 3 0 0 0 37 116 213 304 280 235 154 24 8 0 120 14 55 40 125 49 15 0 0 0 4 30 7
10 8 5 5 5 3 5 1 0 0 0 0 0 33 13 7 1 0 0 0 0 0 0 0 84 121 246 390 385 341 213 120 28 84 123 47 104 114 55 59 54 9 0 2 4 33 81
4 10 4 4 5 4 4 2 0 0 0 0 59 23 0 3 0 0 0 4 0 0 0 12 10 100 135 372 504 184 220 221 172 41 153 210 223 156 128 15 39 47 42 20 2 0 14
1 6 5 0 5 6 4 3 0 0 0 0 0 36 86 2 0 1 33 0 0 0 0 3 28 63 148 188 113 203 82 89 199 23 48 124 155 251 101 92 63 103 116 72 55 68 65
3 3 6 3 0 3 4 2 2 0 0 0 0 61 80 66 0 3 0 0 0 0 0 0 0 6 76 4 20 64 23 3 8 0 18 89 44 21 278 176 125 108 61 90 167 163 141
7 6 5 7 0 1 3 2 6 0 0 0 0 36 179 101 0 0 0 0 0 0 0 0 0 47 3 0 146 163 212 225 85 36 36 37 59 381 135 5 80 119 83 100 120 189 163
9 8 6 8 3 0 2 0 9 0 0 0 0 0 117 151 14 0 0 0 2 9 0 0 0 0 0 120 88 308 96 308 206 91 49 26 96 318 286 33 326 5 1 1 6 318 131
10 9 9 7 8 0 0 0 3 0 0 0 0 9 81 119 18 0 0 0 0 0 36 0 0 0 0 121 199 241 448 389 373 227 170 171 207 197 256 88 28 51 0 1 53 190 164
9 11 6 6 9 1 0 0 2 0 0 0 0 6 126 71 36 0 0 0 0 0 31 0 0 0 7 127 135 305 284 310 254 304 421 373 358 295 280 131 187 3 0 46 235 99 152
8 9 7 6 8 1 0 2 6 0 0 0 0 0 7 124 133 4 0 0 0 1 2 0 33 4 68 51 10 301 125 256 70 206 229 342 228 466 296 570 237 111 304 157 111 103 73

GFSGBSN_con_sbcape_102.txt.gz
CAPE
1 2 2 4 2 0 1 1 1 1 3 3 4 3 2 2 3 2 1 1 1 0 1 0 1 0 0 0 0 0 20 0 0 0 0 0 0 0 89 249 382 217 301 405 174 322 248
9 1 3 1 3 1 0 0 1 1 1 2 2 2 1 2 2 1 1 0 0 0 1 0 0 0 0 0 0 0 0 0 0 0 0 0 0 0 16 113 337 496 414 388 395 181 416
11 9 2 2 2 2 0 0 1 0 0 0 0 0 1 2 1 1 1 1 1 1 0 1 1 0 0 0 0 0 0 0 0 0 0 0 0 0 0 43 479 273 520 449 622 661 438
12 11 2 2 1 2 0 0 0 0 0 0 1 0 1 1 1 0 0 0 0 1 0 1 0 0 0 0 0 0 0 0 0 0 0 0 0 0 0 23 123 558 534 515 394 491 111
10 10 9 1 2 0 1 0 0 0 0 0 1 1 3 1 1 0 0 0 0 0 0 0 0 0 0 0 0 0 0 0 0 0 0 0 0 0 0 27 307 771 653 525 456 396 391
14 10 7 4 2 0 0 0 0 0 0 0 0 0 0 0 0 0 0 0 0 0 0 0 0 0 0 0 0 0 0 0 0 0 0 0 0 0 0 70 262 314 434 463 431 248 145
15 9 4 8 1 0 1 0 0 0 0 0 0 0 1 0 0 0 0 0 0 0 0 0 0 0 0 0 0 0 0 0 0 0 0 0 0 0 13 92 150 0 249 344 0 20 66
18 8 3 7 2 1 0 0 0 0 0 0 0 0 1 0 0 0 0 0 0 0 0 0 0 0 0 0 0 0 0 0 0 0 0 0 0 0 2 130 385 74 54 95 0 0 56
8 7 6 5 2 2 0 0 0 0 0 0 0 0 0 0 0 0 0 0 0 0 0 0 0 0 0 0 0 0 0 0 0 0 0 0 0 0 0 10 36 148 130 3 1 0 9
6 5 5 5 4 1 0 0 0 0 0 0 0 2 0 0 0 0 0 0 0 0 0 0 0 0 0 0 0 0 0 0 0 0 0 0 0 0 0 4 82 268 54 2 3 0 49
5 5 3 5 4 1 0 0 0 0 0 0 0 2 0 0 0 0 0 0 0 0 28 0 0 0 0 0 0 0 0 0 0 0 0 0 0 0 0 10 145 5 152 102 30 0 25
8 6 4 4 4 3 1 0 0 0 0 0 0 0 1 0 0 0 0 0 0 0 32 13 0 0 0 0 1 1 0 0 0 0 0 0 0 0 0 3 8 3 131 105 17 3 98
4 5 1 4 3 1 0 0 0 0 0 0 0 0 0 0 0 0 0 0 7 55 2 8 18 7 6 0 15 0 0 0 0 0 0 0 0 0 0 0 1 89 81 128 176 101 132
5 4 0 1 2 1 0 0 0 0 0 0 0 0 0 0 0 0 0 0 50 25 15 2 0 4 0 32 28 3 0 0 0 0 0 0 0 0 0 0 1 88 152 14 71 107 205
6 5 1 0 0 2 1 0 0 0 0 0 0 0 0 0 0 0 0 69 114 8 0 0 9 38 21 13 5 18 0 0 0 0 0 19 0 0 0 0 0 58 10 27 17 13 121
8 6 4 0 0 1 1 1 0 0 0 0 0 0 0 0 0 0 0 21 50 0 0 0 3 29 9 25 16 10 15 35 12 3 0 5 1 0 0 0 0 5 23 7 114 54 79
8 9 2 2 0 0 0 0 0 0 0 0 0 0 0 0 0 0 14 26 0 0 0 0 0 5 20 1 55 34 44 7 18 19 4 0 11 12 10 0 0 0 0 0 20 198 27
5 9 6 3 1 0 3 0 0 0 0 0 0 0 1 0 0 3 34 0 0 0 0 0 0 0 26 53 45 25 124 30 0 2 11 8 32 21 12 1 0 0 1 2 23 33 31
6 10 9 2 3 1 4 2 0 0 0 0 0 3 0 0 0 63 9 0 0 0 0 0 0 54 11 97 46 46 92 20 4 0 0 0 0 0 17 9 0 0 0 0 0 0 53
2 7 14 5 3 4 1 1 0 0 0 0 0 51 8 0 0 32 38 0 2 0 0 0 0 6 16 101 117 0 19 9 1 0 314 0 0 0 34 68 38 1 0 0 0 1 0
0 2 8 4 4 7 0 1 0 0 0 0 0 48 7 0 0 5 0 4 0 0 0 0 0 26 80 125 59 49 32 67 2 1 1 0 20 53 22 0 17 6 0 0 1 0 29
3 3 3 9 2 8 2 3 1 0 0 0 1 72 90 11 0 0 0 0 0 0 0 1 0 16 39 102 168 41 23 5 256 117 54 52 122 145 53 14 21 15 12 0 0 1 22
1 1 4 7 9 4 6 2 2 0 0 0 7 11 53 11 4 0 10 4 0 0 0 0 0 13 109 217 68 131 18 99 257 158 124 179 254 192 300 231 125 49 122 94 11 0 14
4 7 7 4 8 4 8 5 3 0 0 0 0 6 102 55 19 15 12 0 0 0 0 0 0 2 97 56 0 0 0 0 9 32 26 129 252 48 177 57 112 67 39 38 173 61 868
4 7 8 9 7 9 1 4 2 2 0 0 0 4 74 221 112 9 0 0 0 0 0 0 0 3 28 0 14 190 96 176 103 6 28 66 207 151 86 4 1 137 52 30 224 284 245
5 15 12 12 10 11 4 0 1 5 0 0 0 0 12 183 128 4 0 0 0 4 0 0 0 0 0 1 59 276 191 121 338 103 3 193 345 321 140 146 91 51 0 0 23 43 106
9 14 11 11 10 11 9 0 0 3 0 0 0 0 0 171 135 3 0 10 0 5 39 0 0 0 0 68 106 410 166 41 1 166 143 99 156 19 0 24 12 8 6 18 6 90 59
12 13 12 8 8 9 11 0 0 2 0 0 0 1 0 198 168 34 0 0 0 0 54 2 0 1 3 50 92 266 279 217 201 402 479 394 280 308 485 186 160 23 18 48 468 117 292
11 10 10 7 6 7 9 0 0 4 0 0 0 4 10 24 214 129 0 0 0 0 1 20 69 250 24 74 89 118 122 123 194 121 162 240 407 502 421 547 446 296 655 456 301 214 164

GFSGBSN_con_sbcape_105.txt.gz
CAPE
7 2 4 3 3 5 1 1 4 3 3 3 3 3 3 3 2 1 1 2 1 0 1 1 1 0 0 0 0 0 1 0 0 0 0 0 0 0 23 356 181 363 356 48 61 10 61
13 5 4 3 3 3 1 0 1 1 1 0 0 2 2 2 3 2 2 2 0 1 1 1 1 0 0 0 0 0 0 0 0 0 0 0 0 0 1 83 95 376 209 434 51 393 234
12 12 1 5 3 1 3 0 0 0 1 1 1 2 3 2 2 2 1 1 0 1 1 1 1 0 0 0 0 0 0 0 0 0 0 0 0 0 0 0 233 325 308 507 264 379 465
11 12 6 1 5 0 0 0 0 0 0 0 0 1 2 3 2 2 0 0 0 0 0 1 1 0 0 0 0 0 0 0 0 0 0 0 0 0 0 8 45 261 393 221 486 268 266
14 11 9 1 1 2 0 0 0 0 0 0 0 0 1 2 1 0 0 0 0 0 0 0 0 0 0 0 0 0 0 0 0 0 0 0 0 0 0 0 0 455 206 172 382 414 252
26 14 6 5 0 2 0 0 0 0 0 0 0 0 2 3 0 0 0 0 0 0 0 0 0 0 0 0 0 0 0 0 0 0 0 0 0 0 0 0 0 111 104 281 163 19 10
20 8 5 8 1 4 0 0 0 0 0 0 0 0 0 0 0 0 0 0 0 0 0 0 0 0 0 0 0 0 0 0 0 0 0 0 0 0 0 0 0 157 225 4 19 5 2
9 7 2 6 1 0 1 0 0 0 0 0 0 0 1 0 0 0 0 0 0 0 0 0 0 0 0 0 0 0 0 0 0 0 0 0 0 0 0 77 184 48 5 27 13 0 0
9 3 1 2 0 0 0 0 0 0 0 0 0 0 1 0 0 0 0 0 0 0 0 0 0 0 0 0 0 0 0 0 0 0 0 0 0 0 0 191 140 153 143 41 27 6 0
7 5 4 1 1 0 3 0 0 0 0 0 0 0 0 1 0 0 0 0 0 0 0 0 0 0 0 0 0 0 0 0 0 0 0 0 0 0 0 77 150 188 157 25 14 0 0
6 7 4 4 4 1 0 1 0 0 0 0 0 0 0 0 0 0 0 0 0 0 0 0 0 0 0 0 0 0 0 0 0 0 0 0 0 0 0 0 249 282 137 47 2 0 0
9 10 6 4 5 5 1 0 0 0 0 0 0 0 0 0 0 0 0 0 0 0 7 0 0 0 0 0 0 0 0 0 0 0 0 0 0 0 0 24 246 208 105 45 30 12 0
6 12 8 1 3 2 1 0 0 0 0 0 0 0 0 0 0 0 0 0 0 10 47 0 0 1 0 0 0 0 0 0 0 0 0 0 0 0 0 77 311 215 140 58 27 0 0
4 6 12 0 0 1 1 1 0 0 0 0 0 0 0 0 0 0 0 0 4 78 33 0 0 0 0 15 13 0 0 0 0 0 0 0 0 0 0 0 156 258 105 20 29 52 35
0 2 8 2 0 0 1 0 0 0 0 0 0 0 0 0 0 0 0 0 19 11 0 0 0 8 25 33 18 20 2 0 0 0 0 0 2 4 0 0 0 10 51 52 34 0 2
5 2 1 3 1 0 1 0 0 0 0 0 0 0 0 0 0 0 0 0 1 0 0 0 0 0 9 1 25 24 22 2 0 0 0 0 0 0 3 0 0 0 10 0 53 9 2
2 7 1 2 5 0 2 3 0 0 0 0 0 0 0 0 0 0 0 0 44 0 0 0 0 0 7 33 12 14 34 23 0 0 3 8 0 0 11 4 0 0 0 2 38 0 34
4 3 9 0 7 4 2 2 0 0 0 0 0 0 0 0 0 0 0 0 3 0 0 0 0 0 0 82 15 69 41 15 0 0 0 0 0 0 0 13 0 0 0 0 0 0 4
0 2 4 7 10 6 5 2 0 0 0 0 0 0 0 0 0 0 6 3 0 0 0 0 0 0 0 93 90 114 42 7 0 0 0 0 0 0 0 2 4 0 0 0 0 0 0
2 1 0 7 6 6 5 2 0 0 0 0 0 2 0 0 0 0 5 24 26 0 0 0 0 0 0 77 94 112 8 0 1 0 64 0 0 0 0 0 0 9 0 0 0 0 0
2 1 0 2 6 9 3 3 0 0 0 0 0 0 4 17 0 0 0 0 0 0 0 0 0 0 17 62 68 23 0 0 1 9 0 0 0 0 13 42 0 0 1 11 0 0 0
4 1 1 4 6 10 3 2 3 0 0 0 0 0 0 17 30 0 0 0 0 0 0 0 0 0 10 178 184 18 28 30 23 27 86 12 20 241 115 85 103 57 76 89 33 0 786
4 2 4 9 8 10 9 0 5 1 0 0 0 0 17 56 58 0 0 4 0 0 0 0 0 0 32 115 43 31 16 31 205 137 76 115 150 112 178 12 97 193 3 78 165 104 279
3 2 4 9 10 11 11 4 5 4 0 0 0 0 21 74 89 157 43 1 0 0 0 0 0 0 16 1 0 0 0 7 4 3 0 119 170 80 94 144 237 33 0 3 96 107 26
1 3 5 10 12 12 12 9 4 5 3 0 0 0 11 77 208 265 73 0 0 0 0 0 0 0 0 0 0 136 96 76 71 100 10 104 170 188 61 32 64 102 27 0 4 0 31
0 5 13 15 14 13 11 12 5 2 5 0 0 0 0 59 189 225 124 0 0 0 0 0 0 0 0 0 6 316 63 0 20 96 142 393 421 237 3 28 24 27 19 0 0 56 1
1 5 15 12 10 11 14 13 9 1 5 0 0 0 2 22 63 128 100 7 0 0 22 0 0 0 0 0 20 244 49 0 0 12 220 146 56 153 126 100 23 29 2 0 102 111 3
9 14 16 13 8 7 13 13 9 0 9 0 0 0 3 76 63 186 20 7 0 0 14 0 0 0 0 6 0 229 10 0 0 47 512 280 9 105 0 0 6 35 4 0 76 88 101
8 14 14 12 9 7 9 14 3 1 7 0 0 0 7 84 14 0 0 0 0 0 0 33 179 196 68 18 129 284 104 0 0 251 22 319 261 307 36 0 0 26 198 274 135 3 3

GFSGBSN_con_sbcape_108.txt.gz
CAPE
12 2 5 5 6 5 2 0 1 2 2 2 2 1 2 2 3 3 2 3 2 2 2 2 2 1 0 0 0 0 0 0 0 0 0 0 0 0 0 104 446 241 20 86 74 60 82
11 8 1 5 5 1 0 0 0 0 0 0 1 1 2 3 2 3 4 5 1 1 1 1 1 0 0 0 0 0 0 0 0 0 0 0 0 0 0 96 324 523 405 156 75 34 138
10 10 4 0 2 1 0 0 0 0 0 0 0 0 1 2 2 3 2 1 0 0 1 2 0 0 0 0 0 0 0 0 0 0 0 0 0 0 0 0 187 590 323 121 27 209 140
9 10 9 2 1 1 0 0 0 0 0 0 0 0 0 1 2 1 1 0 0 0 0 1 0 0 0 0 0 0 0 0 0 0 0 0 0 0 0 0 0 517 242 183 64 51 6
11 5 2 6 0 1 0 0 0 0 0 0 0 0 0 1 2 1 0 0 0 0 0 0 0 0 0 0 0 0 0 0 0 0 0 0 0 0 0 0 0 392 80 82 218 61 183
9 2 2 1 1 2 0 0 0 0 0 0 0 0 0 2 1 0 0 0 0 0 0 0 0 0 0 0 0 0 0 0 0 0 0 0 0 0 0 0 0 23 124 15 5 14 34
7 7 8 4 1 0 3 0 0 0 0 0 0 0 0 2 1 0 0 0 0 0 0 0 0 0 0 0 0 0 0 0 0 0 0 0 0 0 0 0 0 177 77 2 11 0 5
8 3 3 6 3 2 3 2 1 0 0 0 0 0 0 0 0 1 0 0 0 0 0 0 0 0 0 0 0 0 0 0 0 0 0 0 0 0 0 0 3 93 50 28 3 0 2
8 5 3 1 1 1 0 2 0 0 0 0 0 0 0 0 0 0 0 0 0 0 0 0 0 0 0 0 0 0 0 0 0 0 0 0 0 0 0 0 173 72 154 31 17 6 16
6 6 3 2 1 2 0 0 1 0 0 0 0 0 0 0 0 0 0 0 0 0 0 0 0 0 0 0 0 0 0 0 0 0 0 0 0 0 0 3 248 225 191 85 7 0 0
10 11 8 4 2 0 1 0 0 0 0 0 0 0 0 1 0 0 0 0 0 0 0 0 0 0 0 0 0 0 0 0 0 0 0 0 0 0 0 0 342 253 161 51 18 0 2
6 3 13 9 3 3 1 0 0 0 0 0 0 0 0 0 0 0 0 0 0 0 0 0 0 0 0 0 0 0 0 0 0 0 0 0 0 0 0 149 416 194 119 52 11 0 5
0 1 3 5 2 1 0 0 0 0 0 0 0 0 0 0 0 0 0 0 0 0 0 0 0 0 0 0 0 0 0 0 0 0 0 0 0 0 644 422 319 184 96 51 51 3 2
4 5 2 3 1 0 1 1 0 0 0 0 0 0 0 0 0 0 0 0 0 0 1 0 0 0 0 0 0 0 0 0 0 0 0 0 0 0 257 447 423 197 54 40 34 17 64
1 4 3 0 4 1 0 1 1 0 0 0 0 0 0 0 0 0 0 0 0 0 0 0 0 0 0 0 1 0 0 0 0 0 0 0 0 0 0 338 343 232 89 10 7 2 21
5 5 7 0 2 2 2 3 0 0 0 0 0 0 0 0 0 0 0 0 0 0 0 0 0 0 0 0 0 0 14 9 1 0 0 0 0 0 0 2 198 245 79 45 0 35 31
2 3 6 4 1 1 6 4 0 0 0 0 0 0 0 0 0 0 0 0 0 0 0 0 0 0 0 0 5 11 11 19 4 0 0 0 0 0 0 0 0 0 0 0 0 0 53
1 1 0 3 5 7 6 4 0 0 0 0 0 0 0 0 0 0 0 0 0 0 0 0 0 0 0 0 0 7 26 30 0 0 0 0 0 0 0 0 0 0 0 0 0 0 4
0 2 0 1 2 7 7 7 0 0 0 0 0 0 0 0 0 0 0 0 0 0 0 0 0 0 0 3 9 8 30 10 0 0 0 0 0 0 0 0 0 0 0 0 0 0 0
2 0 2 0 6 2 7 2 2 0 0 0 0 0 0 0 0 0 0 0 0 0 0 0 0 0 0 0 0 48 13 17 0 0 602 0 0 0 0 0 0 0 0 0 0 0 0
2 1 1 2 2 1 4 2 4 1 0 0 0 0 0 0 0 3 0 0 0 0 0 0 0 0 0 0 4 48 9 0 4 58 0 0 0 0 0 26 77 59 15 14 3 0 0
2 2 1 3 4 1 2 6 3 0 0 0 0 0 0 0 0 0 0 0 0 0 0 0 0 0 0 2 17 1 11 3 0 0 17 0 1 28 89 18 38 44 0 71 65 10 665
2 2 1 3 7 2 8 7 3 2 0 0 0 0 0 0 1 8 2 0 0 0 0 0 0 0 0 20 5 1 1 5 6 15 0 89 15 1 76 0 25 26 0 29 66 27 24
3 3 2 4 8 5 4 8 6 2 2 0 0 0 0 0 35 106 88 3 0 0 0 0 0 0 0 0 0 0 0 0 1 0 0 33 0 0 1 0 99 2 0 0 27 1 92
4 4 3 6 8 16 14 14 10 3 1 0 0 0 0 0 37 82 95 0 0 0 0 0 0 0 0 0 0 6 20 0 0 0 3 1 0 0 0 2 6 25 3 0 0 0 40
3 1 2 5 13 12 12 15 14 7 1 1 0 0 0 0 2 41 75 1 0 0 0 0 0 0 0 0 0 9 1 0 0 0 0 0 0 0 0 1 14 0 0 0 0 0 1
1 3 10 12 13 9 8 19 17 17 0 1 0 0 0 0 0 48 114 30 0 0 0 0 0 0 0 0 13 4 0 0 0 0 0 0 0 0 0 0 0 0 0 0 14 0 59
2 3 8 12 12 10 7 16 20 18 4 1 0 0 0 0 1 10 4 0 0 0 0 0 0 0 0 0 1 0 0 0 0 0 52 65 0 3 0 0 0 0 4 0 0 42 74
2 3 9 11 11 9 8 15 21 8 6 1 0 0 0 0 1 0 0 0 0 0 0 0 0 0 0 0 0 0 0 0 0 0 0 78 17 0 45 17 0 0 34 6 2 644 235

GFSGBSN_con_sbcape_111.txt.gz
CAPE
12 3 0 1 3 0 0 0 0 0 0 1 1 1 3 3 2 1 1 1 2 3 2 2 2 1 0 0 0 0 109 2 0 0 0 0 0 0 0 0 367 215 119 64 66 98 116
12 8 3 0 1 1 0 0 0 0 0 0 0 1 1 3 2 2 2 3 1 0 1 2 1 0 0 0 0 0 0 0 0 0 0 0 0 0 0 0 180 334 99 162 187 79 83
13 12 9 1 2 2 0 0 0 0 0 0 0 0 0 2 1 1 1 1 1 1 1 2 1 0 0 0 0 0 0 0 0 0 0 0 0 0 0 0 0 521 334 137 103 107 167
7 5 8 7 1 4 2 0 0 0 0 0 0 0 0 1 2 1 1 0 0 1 1 2 0 0 0 0 0 0 0 0 0 0 0 0 0 0 0 0 0 556 284 109 100 189 80
9 4 4 7 4 0 3 1 0 0 0 0 0 0 0 1 1 1 1 1 0 0 0 0 0 0 0 0 0 0 0 0 0 0 0 0 0 0 0 0 0 142 54 89 117 84 63
6 4 2 2 1 0 2 3 3 1 0 0 0 0 0 0 2 1 1 0 0 0 0 0 0 0 0 0 0 0 0 0 0 0 0 0 0 0 0 0 0 22 88 15 10 76 84
8 7 6 1 5 2 0 5 5 3 1 0 0 0 0 0 0 0 0 0 0 0 0 0 0 0 0 0 0 0 0 0 0 0 0 0 0 0 0 0 0 170 128 77 15 18 27
10 8 5 6 5 4 2 0 0 4 2 1 0 0 0 0 0 1 0 0 0 0 0 0 0 0 0 0 0 0 0 0 0 0 0 0 0 0 0 0 4 225 120 38 18 10 13
3 9 8 5 4 4 2 2 1 1 0 0 0 0 0 0 0 0 0 0 0 0 0 0 0 0 0 0 0 0 0 0 0 0 0 0 0 0 0 0 283 157 113 51 32 10 6
3 1 7 7 6 4 3 1 1 0 0 0 0 0 0 1 0 0 0 0 0 0 0 0 0 0 0 0 0 0 0 0 0 0 0 0 0 0 0 0 238 149 275 184 48 10 2
3 4 3 9 10 5 3 2 0 0 0 0 0 0 0 1 0 0 0 0 0 0 0 0 0 0 0 0 0 0 0 0 0 0 0 0 0 0 0 0 319 283 270 166 35 0 0
3 4 1 1 5 5 2 1 1 0 0 0 0 0 0 0 0 0 0 0 0 0 0 0 0 0 0 0 0 0 0 0 0 0 0 0 0 0 0 154 189 218 126 91 12 0 0
2 0 6 0 3 2 2 1 1 0 0 0 0 0 0 0 0 0 0 0 0 0 0 0 0 0 0 0 0 0 0 0 0 0 0 0 0 811 643 528 361 163 20 1 13 0 5
5 7 3 1 4 3 2 2 1 0 0 0 0 0 0 0 0 0 0 0 0 0 0 0 0 0 0 0 0 0 0 0 0 0 0 0 0 859 853 621 491 236 2 0 0 5 17
6 5 6 3 2 2 2 2 1 0 0 0 0 0 0 0 0 0 0 0 0 0 0 0 0 0 0 0 0 0 0 0 0 0 0 0 0 0 750 741 550 429 125 0 15 0 2
3 2 1 2 4 4 3 3 2 0 0 0 0 0 0 0 0 0 0 0 0 0 0 0 0 0 0 0 0 0 0 0 0 0 0 0 0 0 0 519 441 263 101 123 16 57 32
1 1 2 1 1 5 5 7 2 0 0 0 0 0 0 0 0 0 0 0 0 0 0 0 0 0 0 0 0 0 3 0 0 0 0 0 0 0 0 1 167 24 20 0 2 0 40
0 0 0 3 2 1 2 4 2 0 0 0 0 0 0 0 0 0 0 0 0 0 0 0 0 0 0 0 0 0 20 36 0 0 0 0 0 0 0 0 0 0 0 0 1 0 0
0 0 0 2 0 1 2 3 1 0 0 0 0 0 0 0 0 0 0 0 0 0 0 0 0 0 0 0 0 0 0 10 3 0 0 0 0 0 10 9 9 0 0 0 0 0 0
1 1 0 1 0 0 6 2 1 0 0 0 0 0 0 0 0 0 0 0 0 0 0 0 0 0 0 0 0 0 1 3 0 0 669 2 0 0 0 0 0 28 13 0 0 0 0
2 2 2 1 1 3 5 3 2 0 0 0 0 0 0 0 0 0 0 0 0 0 0 0 0 0 0 0 0 0 0 0 1 5 0 0 0 0 0 38 38 55 93 52 1 0 0
2 3 2 0 3 3 3 4 3 1 0 0 0 0 0 0 0 0 0 0 0 0 0 0 0 0 0 0 0 0 0 0 2 0 0 0 17 10 45 27 29 2 11 49 10 20 3
3 4 3 3 3 5 7 5 3 2 0 0 0 0 0 0 0 0 0 0 0 0 0 0 0 0 0 0 0 0 0 0 1 16 0 32 4 1 89 0 0 0 0 2 6 77 48
4 4 4 4 7 7 13 7 3 4 3 0 0 0 0 0 0 10 13 11 0 0 0 0 0 0 0 0 0 0 0 0 0 3 0 4 0 0 0 0 0 0 0 0 0 0 174
4 5 2 1 7 8 16 12 8 4 1 0 0 0 0 0 0 0 17 0 0 0 0 0 0 0 0 0 0 0 0 0 0 0 0 0 0 0 0 0 0 23 0 0 0 0 66
1 2 4 5 11 11 12 13 16 8 1 8 1 0 0 0 0 3 5 3 0 0 0 0 0 0 0 0 0 0 0 0 0 0 0 0 0 0 0 0 3 0 0 0 0 0 66
3 3 7 10 11 10 9 9 16 21 4 5 1 0 0 0 0 0 21 0 0 0 0 0 0 0 0 0 0 0 0 0 0 0 1 0 0 0 0 0 0 0 0 0 15 0 81
2 4 4 6 12 10 9 5 22 26 11 10 0 0 0 0 0 0 0 0 0 0 0 0 0 0 0 0 0 0 0 0 0 0 7 3 0 0 0 0 0 0 0 0 0 145 82
3 1 1 9 10 11 10 8 24 25 6 12 0 0 0 0 0 0 0 0 0 0 0 0 0 0 0 0 0 0 0 0 0 0 0 62 0 0 0 0 0 0 0 0 24 204 148

GFSGBSN_con_sbcape_114.txt.gz
CAPE
11 8 2 1 3 3 2 1 0 0 0 0 0 1 2 2 3 3 3 2 1 1 2 2 2 1 0 0 0 0 0 0 0 0 0 0 0 0 0 0 308 316 229 203 169 130 140
9 7 10 1 2 4 2 1 0 0 0 0 0 0 1 1 1 2 2 2 2 2 1 1 1 0 0 0 0 0 0 0 0 0 0 0 0 0 0 0 32 254 260 281 260 121 121
5 1 7 4 0 4 4 1 0 0 0 0 0 0 0 1 1 1 1 1 2 1 1 1 0 0 0 0 0 0 0 0 0 0 0 0 0 0 0 0 0 295 355 122 279 167 230
2 1 7 2 3 0 4 4 4 1 0 0 0 0 0 0 1 1 1 3 2 1 1 1 0 0 0 0 0 0 0 0 0 0 0 0 0 0 0 0 0 540 222 88 107 351 200
6 9 7 1 5 1 1 4 3 5 4 2 0 0 0 0 1 1 3 2 1 1 0 0 0 0 0 0 0 0 0 0 0 0 0 0 0 0 0 0 0 0 22 133 93 50 173
13 9 7 7 1 2 0 0 0 0 3 2 0 0 0 1 1 1 0 0 0 0 0 0 0 0 0 0 0 0 0 0 0 0 0 0 0 0 0 0 0 21 40 32 47 45 20
10 14 12 8 8 4 3 0 0 0 4 2 1 0 0 0 0 1 0 0 0 0 0 0 0 0 0 0 0 0 0 0 0 0 0 0 0 0 0 0 0 60 110 37 37 51 25
11 8 9 12 6 6 1 1 0 0 1 1 1 0 0 0 0 0 0 0 0 0 0 0 0 0 0 0 0 0 0 0 0 0 0 0 0 0 0 0 0 155 118 67 22 15 0
7 3 4 9 11 7 6 3 2 1 0 0 1 1 0 0 0 0 0 0 0 0 0 0 0 0 0 0 0 0 0 0 0 0 0 0 0 0 0 10 114 182 73 45 47 23 1
3 1 4 6 2 8 7 4 3 2 3 2 2 2 0 1 0 0 0 0 0 0 0 0 0 0 0 0 0 0 0 0 0 0 0 0 0 0 0 0 7 151 144 104 71 13 1
0 1 4 0 1 5 5 5 3 2 0 3 1 2 0 0 0 0 0 0 0 0 0 0 0 0 0 0 0 0 0 0 0 0 0 0 0 0 0 0 13 11 292 121 63 0 5
5 7 5 0 1 1 6 4 2 1 0 1 0 1 0 0 0 0 0 0 0 0 0 0 0 0 0 0 0 0 0 0 0 0 0 0 0 0 0 77 76 351 187 56 10 0 0
5 6 6 5 1 1 2 4 3 0 0 0 0 0 1 0 0 0 0 0 0 0 0 0 0 0 0 0 0 0 0 0 0 0 0 0 0 384 481 465 377 255 38 16 44 0 2
1 1 5 3 4 4 1 1 2 0 0 0 0 0 0 0 0 0 0 0 0 0 0 0 0 0 0 0 0 0 0 0 0 0 0 0 0 573 598 521 490 202 16 13 23 0 1
1 1 2 4 2 5 1 2 0 1 0 0 0 0 0 0 0 0 0 0 0 0 0 0 0 0 0 0 0 0 0 0 0 0 0 0 0 0 556 646 502 415 243 4 44 0 6
0 1 2 2 3 1 1 3 1 2 0 0 0 0 0 0 0 0 0 0 0 0 0 0 0 0 0 0 0 0 0 0 0 0 0 0 0 0 1 644 601 448 228 167 25 51 47
0 0 0 0 0 1 3 1 0 1 0 0 0 0 0 0 0 0 0 0 0 0 0 0 0 0 0 0 0 0 0 0 0 0 0 0 0 0 0 93 547 9 228 0 1 0 15
2 0 0 0 0 1 1 1 1 0 0 0 0 0 0 0 0 0 0 0 0 0 0 0 0 0 0 0 0 0 0 0 0 0 0 0 0 0 0 0 0 1 108 3 0 0 0
2 1 0 1 2 1 2 0 1 0 0 0 0 0 0 0 0 0 0 0 0 0 0 0 0 0 0 0 0 0 0 0 0 0 0 0 0 0 6 0 6 0 11 0 0 0 0
4 4 3 2 4 3 5 5 1 0 0 0 0 0 0 0 0 0 0 0 0 0 0 0 0 0 0 0 0 0 0 0 0 0 370 0 0 0 0 0 0 98 113 51 0 0 0
6 5 3 1 1 3 8 5 2 0 0 0 0 0 0 0 0 0 0 0 0 0 0 0 0 0 0 0 0 0 0 0 0 0 0 0 0 0 0 27 52 13 32 113 1 0 0
4 3 3 3 3 3 7 7 4 1 0 0 0 0 0 0 0 0 0 0 0 0 0 0 0 0 0 0 0 0 0 0 0 0 0 0 14 49 63 11 54 0 0 67 83 246 25
3 1 5 4 4 6 11 8 4 1 0 0 0 0 0 0 0 0 0 0 2 0 0 0 0 0 0 0 0 0 0 0 0 0 0 52 80 4 0 0 5 0 0 4 18 123 82
2 4 5 6 2 8 11 11 5 3 4 0 0 0 0 0 0 0 0 0 0 0 0 0 0 0 0 0 0 0 0 0 0 0 0 28 8 2 0 0 6 0 0 0 1 2 150
3 5 4 3 5 11 11 14 16 5 4 7 0 0 0 0 0 0 0 0 0 0 0 0 0 0 0 0 0 0 0 0 0 0 0 0 0 0 0 0 0 102 55 0 0 7 57
2 1 5 8 13 13 9 8 18 13 7 3 5 0 0 0 0 0 0 0 0 0 0 0 0 0 0 0 0 0 0 0 0 0 0 0 0 0 0 0 0 0 0 0 0 7 53
0 2 2 9 9 10 9 10 7 19 14 1 3 0 0 0 0 0 0 0 0 0 0 0 0 0 0 0 0 0 0 0 0 0 0 0 0 0 0 0 0 0 0 1 3 0 160
0 1 5 4 8 11 18 11 2 15 26 4 1 0 0 0 0 0 0 0 0 0 0 0 0 0 0 0 0 0 0 0 0 0 0 0 0 0 0 0 0 0 0 29 2 100 196
1 2 4 1 2 13 17 11 6 24 25 16 6 0 0 0 0 0 0 0 0 0 0 0 0 0 0 0 0 0 0 0 0 0 0 2 0 0 0 0 0 0 0 0 1 177 79

GFSGBSN_con_sbcape_117.txt.gz
CAPE
8 7 7 1 2 6 4 2 0 0 0 0 0 0 1 1 1 2 2 2 2 2 2 2 1 0 0 0 0 0 0 0 0 0 0 0 0 0 0 0 26 165 331 112 67 0 0
1 8 8 6 0 0 5 5 3 1 0 0 0 0 0 0 1 1 1 1 2 2 2 1 1 0 0 0 0 0 0 0 0 0 0 0 0 0 0 0 0 491 572 467 312 166 75
5 6 5 5 3 0 1 1 0 3 3 2 0 0 0 0 0 1 0 2 0 2 2 1 0 0 0 0 0 0 0 0 0 0 0 0 0 0 0 0 0 518 558 451 337 221 75
10 7 6 7 3 3 0 0 0 0 0 4 3 0 0 0 0 0 2 0 0 1 0 1 0 0 0 0 0 0 0 0 0 0 0 0 0 0 0 0 314 519 369 274 251 258 249
12 11 8 7 9 6 4 1 0 1 0 4 4 2 0 0 0 1 1 0 0 0 0 0 0 0 0 0 0 0 0 0 0 0 0 0 0 0 0 0 0 153 36 296 194 118 208
4 3 6 12 8 7 2 1 1 0 0 1 2 3 3 1 0 1 0 0 0 0 0 0 0 0 0 0 0 0 0 0 0 0 0 0 0 0 0 0 0 33 131 241 256 107 20
8 8 15 7 8 6 5 4 2 1 0 3 3 3 2 2 0 1 0 0 0 0 0 0 0 0 0 0 0 0 0 0 0 0 0 0 0 0 0 0 0 0 71 139 148 113 61
1 2 5 5 3 10 10 7 4 2 0 4 3 0 2 3 1 0 0 0 0 0 0 0 0 0 0 0 0 0 0 0 0 0 0 0 0 0 0 0 0 0 43 226 98 86 46
1 2 1 3 6 6 7 7 5 3 0 1 1 1 1 1 0 0 0 0 0 0 0 0 0 0 0 0 0 0 0 0 0 0 0 0 0 0 0 0 0 23 0 168 151 97 33
1 4 6 2 1 1 6 6 4 2 1 0 1 3 0 2 0 0 0 0 0 0 0 0 0 0 0 0 0 0 0 0 0 0 0 0 0 0 0 0 0 0 94 161 226 151 101
5 6 7 2 2 1 4 5 2 0 1 0 2 2 0 0 0 0 0 0 0 0 0 0 0 0 0 0 0 0 0 0 0 0 0 0 0 0 0 0 0 0 309 332 277 149 116
5 4 2 8 5 5 3 0 2 0 1 0 2 0 0 0 0 0 0 0 0 0 0 0 0 0 0 0 0 0 0 0 0 0 0 0 0 0 0 19 0 357 343 254 198 211 200
2 2 3 1 5 5 3 0 3 1 2 0 0 0 3 0 0 0 0 0 0 0 0 0 0 0 0 0 0 0 0 0 0 0 0 0 0 9 159 235 350 468 441 186 190 285 106
2 0 0 1 2 2 1 3 3 0 1 0 0 0 0 0 0 0 0 0 0 0 0 0 0 0 0 0 0 0 0 0 0 0 0 0 0 131 282 203 339 459 104 0 4 137 191
0 0 0 0 0 1 3 1 0 0 1 0 0 0 0 0 0 0 0 0 0 0 0 0 0 0 0 0 0 0 0 0 0 0 0 0 0 0 458 553 575 607 455 129 354 274 305
0 0 0 0 0 0 0 2 0 1 0 0 0 0 0 0 0 0 0 0 0 0 0 0 0 0 0 0 0 0 0 0 0 0 0 0 0 0 5 613 524 712 423 440 492 141 100
3 1 1 0 1 1 0 3 1 0 0 0 0 0 0 0 0 0 0 0 0 0 0 0 0 0 0 0 0 0 0 0 0 0 0 0 0 1 0 154 267 497 530 396 418 447 194
5 3 0 0 0 1 1 3 1 0 0 0 0 0 0 0 0 0 0 0 0 0 0 0 0 0 0 0 0 0 0 0 0 0 0 0 0 7 7 0 0 291 446 435 423 171 410
8 4 2 0 0 3 3 5 1 0 0 2 0 0 0 0 0 0 0 0 0 0 0 0 0 0 0 0 0 0 0 0 0 0 0 0 0 0 39 36 47 116 355 89 0 8 319
2 8 4 2 2 1 3 4 1 0 0 0 0 0 0 0 0 0 0 0 0 0 0 0 0 0 0 0 0 0 0 0 0 0 69 0 0 0 23 92 100 426 396 507 26 25 134
6 7 5 3 2 1 5 4 3 1 0 0 0 0 0 0 0 0 0 0 0 0 0 0 0 0 0 0 0 0 0 0 0 0 0 0 4 0 20 181 228 201 286 572 318 392 0
6 5 2 6 4 2 5 8 2 1 0 0 0 0 0 0 0 0 0 0 0 0 0 0 0 0 0 0 0 0 0 0 0 0 12 30 99 159 271 263 131 258 74 495 714 756 735
3 2 2 6 5 3 5 8 2 1 0 0 0 0 0 0 0 0 0 0 0 0 0 0 0 0 0 0 0 0 0 0 0 12 60 212 379 337 218 202 125 85 72 52 530 673 713
2 3 4 4 4 2 5 11 8 5 4 2 0 0 0 0 0 0 0 0 0 0 0 0 0 0 0 0 0 0 0 0 0 6 0 192 355 449 352 277 65 57 116 194 280 350 687
1 1 1 1 5 7 11 14 13 12 4 14 0 0 0 0 0 0 0 0 0 0 0 0 0 0 0 0 0 0 0 0 0 0 0 2 266 319 336 273 66 217 164 110 101 189 462
2 0 1 4 9 8 12 9 14 13 10 18 7 1 0 0 0 0 0 0 0 0 0 0 0 0 0 0 0 0 0 0 0 13 0 0 2 276 114 126 38 156 98 47 23 217 328
0 0 3 4 7 7 12 12 11 16 14 14 8 0 0 0 0 0 6 0 0 0 0 0 0 0 0 0 0 0 15 0 4 7 53 60 86 187 198 210 33 3 12 52 195 222 601
0 1 1 5 2 2 11 21 10 8 22 19 7 0 0 0 0 0 0 0 0 0 0 0 0 0 0 5 5 15 6 22 0 0 20 155 286 362 5 165 16 0 2 242 103 384 808
2 1 3 2 1 3 13 19 15 20 26 16 14 0 2 10 0 0 0 0 0 0 0 0 0 0 0 1 0 1 0 0 0 18 0 310 73 441 174 134 0 0 11 15 38 752 716

GFSGBSN_con_sbcape_120.txt.gz
CAPE
6 10 7 5 0 0 1 3 2 2 2 0 0 0 0 0 0 1 1 1 1 1 0 1 0 0 0 0 0 0 0 0 0 0 0 0 0 26 54 0 0 333 250 116 113 43 35
8 8 7 7 4 0 0 0 0 0 0 2 3 1 0 0 0 0 0 1 2 1 1 1 0 0 0 0 0 0 0 0 0 0 0 0 0 0 0 0 12 512 676 784 457 401 93
8 5 5 6 5 4 1 1 0 1 1 0 0 3 2 0 0 0 0 1 0 0 2 0 0 0 0 0 0 0 0 0 0 0 0 0 0 0 0 0 161 773 832 789 647 370 201
12 12 7 5 6 7 5 3 0 1 2 1 3 2 2 1 1 0 1 1 1 1 0 0 0 0 0 0 0 0 0 0 0 0 0 0 0 0 0 0 246 642 403 380 627 521 447
7 9 8 12 9 6 4 5 3 2 2 1 5 2 3 3 3 3 1 0 0 0 0 0 0 0 0 0 0 0 0 0 0 0 0 0 0 0 0 0 6 32 65 209 597 587 374
5 6 9 7 8 9 6 5 5 4 4 2 0 0 0 1 3 2 0 0 0 0 0 0 0 0 0 0 0 0 0 0 0 0 0 0 0 0 0 0 0 21 30 61 203 644 492
2 1 3 4 4 6 8 8 6 6 4 4 2 1 0 0 2 0 0 0 0 0 0 0 0 0 0 0 0 0 0 0 0 0 0 0 0 0 0 0 0 0 0 5 488 452 480
0 4 3 2 2 4 5 4 6 5 4 4 2 1 0 0 1 0 0 0 0 0 0 0 0 0 0 0 0 0 0 0 0 0 0 0 0 0 0 0 0 0 0 21 392 348 291
5 3 3 4 5 5 1 2 7 3 1 2 2 1 1 1 0 0 0 0 0 0 0 0 0 0 0 0 0 0 0 0 0 0 0 0 0 0 0 0 0 0 0 10 74 329 228
3 3 2 3 3 3 2 4 3 4 2 1 2 2 0 1 0 0 0 0 0 0 0 0 0 0 0 0 0 0 0 0 0 0 0 0 0 0 0 0 0 0 0 0 280 165 155
1 2 3 4 4 5 6 6 2 3 0 0 4 1 0 0 0 0 0 0 0 0 0 0 0 0 0 0 0 0 0 0 0 0 0 0 0 0 0 0 0 0 0 0 242 201 162
1 0 0 1 2 4 2 4 5 4 0 3 1 0 0 0 0 0 0 0 0 0 0 0 0 0 0 0 0 0 0 0 0 0 0 0 0 0 0 0 0 0 0 179 345 190 105
3 0 0 0 0 0 0 2 3 2 2 0 0 0 2 0 0 0 0 0 0 0 0 0 0 0 0 0 0 0 0 0 0 0 0 0 0 0 0 0 0 0 10 76 90 124 44
0 0 0 0 0 0 0 0 2 2 1 0 0 0 0 0 0 0 0 0 0 0 0 0 0 0 0 0 0 0 0 0 0 0 0 0 0 0 0 0 5 8 17 40 68 68 125
0 0 0 0 0 0 0 0 2 2 1 0 0 0 0 0 0 0 0 0 0 0 0 0 0 0 0 0 0 0 0 0 0 0 0 0 0 0 1 27 56 65 135 30 73 93 129
0 0 2 2 0 0 0 0 1 1 0 0 0 0 0 0 0 0 0 0 0 0 0 0 0 0 0 0 0 0 1 0 0 0 0 0 0 0 6 187 216 350 320 170 80 142 200
3 9 7 3 0 0 0 0 1 1 0 0 0 0 0 0 0 0 0 0 0 0 0 0 0 0 0 0 0 0 6 0 0 0 0 0 0 14 2 102 83 264 396 347 260 376 222
1 5 4 1 0 0 1 0 0 0 0 0 0 0 0 0 0 0 0 0 0 0 0 0 0 0 0 0 0 0 0 3 0 0 0 0 1 36 56 30 0 7 173 220 329 241 441
3 3 1 0 1 0 0 0 0 0 0 2 0 0 0 0 0 0 0 0 0 0 0 0 0 0 0 0 0 0 0 0 0 0 0 0 0 16 46 74 56 72 161 274 210 269 61
5 2 5 3 2 1 1 0 0 0 0 2 0 0 0 0 0 0 0 0 0 0 0 0 0 0 0 0 0 0 0 0 0 0 0 0 0 0 13 35 13 184 285 453 396 294 173
4 5 5 2 6 1 4 0 0 0 0 1 0 0 0 0 0 0 0 0 0 0 0 0 0 0 0 0 0 0 0 0 0 0 0 0 0 0 0 0 92 110 231 384 487 363 317
5 3 1 3 6 4 3 6 0 0 0 0 0 0 0 0 0 0 0 0 0 2 0 0 0 0 0 0 0 0 0 0 0 0 14 32 45 28 34 54 142 210 191 194 521 665 756
2 1 1 3 4 2 2 5 1 0 0 0 0 0 0 0 0 0 0 0 0 0 0 0 0 0 0 0 0 0 0 0 0 0 19 53 155 214 177 143 238 286 231 293 341 523 602
1 0 1 1 1 3 4 11 4 1 0 7 4 0 0 0 0 37 23 0 0 6 33 0 0 0 0 0 0 0 0 0 0 0 0 40 102 140 237 222 254 307 424 291 231 312 468
0 1 0 0 2 11 8 13 9 3 0 16 8 4 0 0 0 0 33 89 69 56 41 6 0 0 4 4 0 0 0 0 0 0 0 0 86 146 292 279 189 267 393 425 384 224 89
0 1 1 1 4 8 8 11 11 7 5 21 7 8 3 0 3 0 12 34 97 25 0 0 0 0 4 0 1 0 1 1 0 1 3 4 199 272 176 255 206 583 578 366 280 369 335
0 0 1 2 2 1 5 11 14 11 8 21 18 11 7 0 0 1 15 10 16 0 0 0 0 0 2 1 15 7 0 48 1 21 152 136 198 161 154 321 175 278 338 330 413 625 1057
1 1 0 2 3 1 2 12 15 11 12 28 16 21 10 3 0 0 0 4 28 2 0 0 0 0 0 9 12 10 0 69 41 26 55 121 239 257 286 295 238 149 236 455 588 1001 1280
14 4 0 1 3 0 2 5 19 24 22 30 30 4 11 13 0 0 0 0 0 0 1 0 16 0 0 10 29 28 12 145 52 109 45 268 186 348 252 395 584 408 336 376 412 1236 1473

GFSGBSN_con_sbcape_123.txt.gz
CAPE
9 7 6 6 2 1 0 1 1 0 0 1 1 2 1 0 0 0 0 0 0 1 1 1 0 0 0 0 0 0 77 0 0 0 0 0 0 41 126 77 225 514 436 133 518 156 0
8 9 8 8 8 2 2 1 1 1 1 1 1 0 2 2 1 0 0 0 1 0 1 0 0 0 0 0 0 0 0 0 0 0 0 0 1 59 70 10 107 412 530 740 493 172 208
11 12 9 7 7 9 7 1 3 2 2 1 1 2 0 3 2 1 1 1 1 0 0 0 0 0 0 0 0 0 0 0 0 0 0 0 0 0 32 2 199 476 552 947 718 738 556
7 5 9 12 9 9 8 7 4 6 1 1 1 1 1 2 3 2 3 1 0 1 0 0 0 0 0 0 0 0 0 0 0 0 0 0 0 0 1 0 181 207 443 498 802 632 428
4 4 5 5 3 10 9 8 9 7 6 5 1 0 1 0 0 1 2 0 0 0 0 0 0 0 0 0 0 0 0 0 0 0 0 0 0 0 0 0 25 56 56 154 718 832 673
2 2 2 2 4 8 6 8 9 6 4 4 1 2 1 0 0 1 0 0 0 0 0 0 0 0 0 0 0 0 0 0 0 0 0 0 0 0 0 2 6 32 16 23 248 990 873
2 3 3 2 5 1 5 5 7 6 1 4 4 1 0 1 1 0 0 0 0 0 0 0 0 0 0 0 0 0 0 0 0 0 0 0 0 0 0 0 5 0 36 24 285 718 735
5 6 6 1 2 5 5 2 4 4 1 0 1 2 1 2 0 0 0 0 0 0 0 0 0 0 0 0 0 0 0 0 0 0 0 0 0 0 0 1 0 0 1 24 256 541 551
4 4 5 6 6 6 6 6 6 4 4 0 4 3 1 0 0 0 0 0 0 0 0 0 0 0 0 0 0 0 0 0 0 0 0 0 0 0 0 0 0 0 6 27 53 445 419
2 1 0 1 2 2 5 4 5 5 5 4 4 2 0 1 0 0 0 0 0 0 0 0 0 0 0 0 0 0 0 0 0 0 0 0 0 0 0 0 0 0 0 0 4 92 78
2 0 0 0 0 1 2 2 2 1 1 4 5 0 0 0 0 0 0 0 0 0 0 0 0 0 0 0 0 0 0 0 0 0 0 0 0 0 0 0 0 0 0 0 1 44 90
0 1 1 0 0 0 0 0 0 1 2 2 0 0 0 0 0 0 0 0 0 0 0 0 0 0 0 0 0 0 0 0 0 0 0 0 0 0 0 0 0 0 0 0 18 84 92
0 0 0 0 0 0 0 0 0 0 0 0 0 0 0 0 0 0 0 0 0 0 0 0 0 0 0 0 0 0 0 0 0 0 0 0 0 0 0 0 0 0 0 17 60 65 29
0 0 0 0 0 0 0 0 0 0 0 0 0 0 0 0 0 0 0 0 0 0 0 0 0 0 0 0 0 0 0 0 0 0 0 0 0 0 0 0 1 0 0 31 49 80 234
0 0 0 1 0 0 0 0 0 0 0 0 0 0 0 0 0 0 0 0 0 0 0 0 0 0 0 0 0 0 0 3 1 0 0 4 0 0 0 0 0 12 7 4 45 43 53
1 0 2 3 0 0 0 0 0 0 0 0 0 0 0 0 0 0 0 0 0 0 0 0 0 0 3 1 0 0 5 0 0 0 0 4 0 0 0 0 0 3 96 41 31 49 89
0 0 0 0 0 0 0 0 0 0 0 0 0 0 0 0 0 0 0 0 0 0 0 0 0 0 0 0 0 2 0 2 0 1 0 2 2 14 2 3 22 48 23 20 63 130 83
0 0 0 0 0 0 0 0 0 0 0 0 0 0 0 0 0 0 0 0 0 0 0 0 0 0 0 0 0 0 1 16 0 0 0 7 0 26 30 5 22 80 55 96 114 191 21
1 0 0 1 1 0 1 0 0 0 0 0 0 0 0 0 0 0 0 0 0 0 0 0 0 0 0 0 0 0 0 0 0 0 0 3 0 0 9 4 50 12 2 19 78 123 244
1 1 3 3 1 0 0 0 0 0 0 0 0 0 0 0 0 0 0 0 0 0 1 0 0 0 0 0 0 0 0 0 0 0 11 0 0 0 0 0 3 5 27 47 61 150 99
2 4 3 1 4 1 0 0 0 0 0 2 0 0 10 0 0 0 0 0 0 2 0 0 0 0 0 2 15 2 0 0 0 0 0 0 0 0 0 0 0 0 31 1 7 192 130
3 3 2 2 4 2 0 5 0 0 0 0 4 35 16 0 6 0 0 0 0 3 5 0 3 0 0 6 24 18 10 11 0 19 0 1 3 0 0 2 0 2 13 6 17 75 98
0 0 0 1 1 2 0 3 6 0 0 1 0 0 19 2 1 14 0 0 0 1 14 23 16 17 21 11 19 8 1 1 7 1 1 26 39 79 90 56 40 57 37 40 105 64 113
0 0 0 2 1 4 6 9 8 0 0 8 2 0 4 1 9 38 29 2 0 3 9 42 55 33 27 10 8 0 2 4 0 0 0 1 49 49 29 39 80 79 1 29 70 68 7
0 0 0 1 4 6 8 10 12 2 0 10 8 4 0 5 1 1 24 132 43 28 33 46 54 48 57 16 1 12 16 6 0 0 0 1 7 37 135 194 156 79 108 146 415 215 69
0 0 0 0 3 4 3 7 15 6 2 10 4 10 4 0 0 0 0 44 98 128 90 66 20 1 39 38 25 43 57 37 26 24 0 0 9 4 59 110 56 167 0 8 41 442 427
0 0 0 1 1 5 3 1 9 14 4 9 20 20 15 2 0 0 0 15 86 145 56 65 0 0 30 43 13 44 56 22 2 13 153 91 27 51 115 116 231 275 336 392 382 640 801
17 4 2 2 2 3 1 2 9 19 11 17 26 21 17 6 3 0 7 0 63 115 101 21 6 5 11 32 32 45 94 54 6 17 65 109 127 194 230 237 296 346 353 217 905 764 586
2 18 10 4 2 2 0 1 6 20 22 24 36 32 25 21 0 0 0 4 5 10 17 60 9 52 2 13 57 35 66 47 76 96 114 101 239 282 267 302 600 571 325 642 646 974 1340

GFSGBSN_con_sbcape_126.txt.gz
CAPE
9 8 8 4 5 2 1 1 0 0 0 1 0 0 0 2 2 1 0 0 0 0 0 0 0 0 0 0 0 0 9 0 0 0 0 0 0 0 15 82 382 489 498 254 481 51 0
12 17 8 10 10 4 2 1 1 0 1 0 0 3 2 0 2 3 1 2 1 0 0 0 0 0 0 0 0 0 0 0 0 0 0 0 0 5 3 28 41 438 388 581 449 172 24
9 8 9 6 11 11 9 8 6 2 2 2 1 1 1 0 0 1 2 2 1 0 0 0 0 0 0 0 0 0 0 0 0 0 0 0 0 9 7 7 113 531 485 741 741 700 463
2 5 3 4 5 1 2 9 6 4 2 1 1 0 0 0 0 0 2 2 1 0 0 0 0 0 0 0 0 0 0 0 0 0 0 0 0 0 9 12 0 75 349 410 896 682 508
4 5 5 2 2 5 5 6 4 6 3 5 3 2 1 0 0 0 1 1 0 0 0 0 0 0 0 0 0 0 0 0 0 0 0 0 0 0 0 0 0 55 56 107 294 834 684
4 9 8 5 5 4 2 3 5 5 1 0 0 0 2 1 1 1 0 0 0 0 0 0 0 0 0 0 0 0 0 0 0 0 0 0 0 0 0 0 0 30 52 69 342 886 649
6 2 2 6 7 7 7 7 7 7 3 0 2 4 2 0 0 0 0 0 0 0 0 0 0 0 0 0 0 0 0 0 0 0 0 0 0 0 0 0 1 1 7 197 599 455 308
9 4 3 3 3 6 7 2 1 5 5 5 5 1 0 0 0 0 0 0 0 0 0 0 0 0 0 0 0 0 0 0 0 0 0 0 0 0 0 0 0 3 0 0 139 252 58
6 0 0 0 0 0 2 1 0 0 0 2 4 0 0 0 0 0 0 0 0 0 0 0 0 0 0 0 0 0 0 0 0 0 0 0 0 0 0 0 0 0 0 10 94 410 185
1 0 0 0 0 0 0 0 1 0 1 1 0 0 0 0 0 0 0 0 0 0 0 0 0 0 0 0 0 0 0 0 0 0 0 0 0 0 0 0 0 0 0 0 4 2 4
0 0 0 0 0 0 0 0 0 0 0 0 0 0 0 0 0 0 0 0 0 0 0 0 0 0 0 0 0 0 0 0 0 0 0 0 0 0 0 0 0 0 0 0 0 0 0
0 0 0 0 0 0 0 0 0 0 0 0 0 0 0 0 0 0 0 0 0 0 0 0 0 0 0 0 0 0 0 0 0 0 0 0 0 0 0 0 0 0 0 0 0 0 0
0 0 0 0 0 0 0 0 0 0 0 0 0 0 0 0 0 0 0 0 0 0 0 0 0 0 0 0 0 0 0 0 0 0 0 0 0 0 0 0 0 0 0 0 0 0 8
0 0 0 0 0 1 1 0 0 0 0 0 0 0 0 0 0 0 0 0 0 0 0 0 0 0 0 0 0 0 0 0 0 0 0 0 0 0 0 0 0 0 0 0 10 5 2
0 0 0 0 0 1 0 0 0 0 0 0 0 0 0 0 0 0 0 0 0 0 0 0 0 0 0 0 0 0 0 0 0 0 0 1 0 0 0 0 0 0 0 0 0 0 5
0 0 0 0 1 0 0 0 0 0 0 0 0 0 0 0 0 0 0 0 0 0 0 0 0 0 0 0 0 0 0 0 0 0 0 0 0 0 0 0 0 0 4 13 2 14 8
0 0 0 0 1 0 0 1 0 0 0 0 0 0 0 0 0 0 0 0 0 0 0 0 0 0 0 1 0 0 0 0 0 0 0 0 0 2 0 0 0 3 0 0 0 13 50
0 0 0 0 0 0 1 0 0 0 0 0 0 0 0 0 0 0 0 0 0 0 2 0 0 0 0 0 0 0 0 6 0 0 0 0 0 0 9 5 2 0 4 30 11 13 69
0 0 0 4 1 0 1 0 0 0 0 0 0 0 0 0 0 0 0 0 0 0 6 0 0 0 0 0 0 0 0 0 0 0 0 0 0 0 0 0 12 3 5 14 22 4 66
0 1 9 7 2 3 1 0 0 0 0 0 0 0 12 0 0 0 0 0 0 0 4 7 0 0 0 0 0 0 0 0 0 0 0 0 0 0 0 0 0 0 5 10 24 9 26
1 1 8 2 3 0 0 0 0 0 0 0 8 13 4 4 9 0 0 0 0 0 0 0 2 0 0 0 4 0 0 0 0 0 0 0 0 0 0 0 0 0 0 0 16 0 0
2 5 1 1 1 0 1 0 0 0 0 0 46 23 2 0 0 0 0 0 0 4 0 0 15 0 1 0 4 15 6 0 0 0 0 0 0 0 0 0 0 0 0 0 5 0 0
1 0 0 0 1 1 0 4 1 0 0 8 16 29 8 0 0 0 24 0 0 0 0 22 9 6 6 0 1 10 2 0 3 1 3 3 5 17 12 10 22 24 14 27 43 15 0
0 0 0 0 0 2 7 8 9 2 0 1 13 11 35 15 0 0 1 10 82 0 0 0 20 24 15 5 9 7 1 0 0 0 0 0 2 2 0 0 0 31 12 4 11 12 0
0 0 0 0 0 3 5 4 14 9 0 1 11 14 21 36 5 6 2 0 11 181 1 0 2 28 57 4 12 13 5 0 0 0 0 0 1 0 6 22 36 46 10 0 0 0 32
2 0 0 0 2 2 5 1 6 14 1 4 4 5 1 8 0 1 7 0 23 132 114 0 0 21 1 46 29 28 22 13 30 9 7 0 0 1 7 15 16 87 1 0 0 0 8
8 11 1 0 0 2 5 2 6 15 8 5 12 22 13 23 0 0 0 15 0 13 122 109 45 14 3 43 33 33 30 41 26 28 54 47 3 4 21 12 14 48 0 63 145 379 39
0 0 16 5 3 4 7 0 2 10 12 10 9 22 20 24 1 2 3 4 12 8 18 68 36 8 11 92 70 41 19 29 85 18 0 58 139 134 126 148 99 149 59 168 587 468 0
2 5 3 21 9 5 7 0 1 18 19 12 19 52 32 24 0 0 0 0 0 0 0 0 13 76 41 54 106 43 5 79 54 52 12 0 27 133 156 181 358 274 209 164 170 461 156